<?xml version='1.0' encoding='UTF-8'?><gpx version="1.1" creator="JPX - https://github.com/jenetics/jpx" xmlns="http://www.topografix.com/GPX/1/1"><trk><trkseg><trkpt lat="50.98639356446217" lon="4.813053902307225"><ele>10.0</ele><time>2026-04-15T15:18:06Z</time></trkpt><trkpt lat="50.986307851903724" lon="4.812960191300119"><ele>10.0</ele><time>2026-04-15T15:18:08Z</time></trkpt><trkpt lat="50.986228379031914" lon="4.812909162918189"><ele>10.0</ele><time>2026-04-15T15:18:10Z</time></trkpt><trkpt lat="50.98611250426113" lon="4.812831420061394"><ele>10.0</ele><time>2026-04-15T15:18:12Z</time></trkpt><trkpt lat="50.98603824142688" lon="4.812792288234415"><ele>10.0</ele><time>2026-04-15T15:18:13Z</time></trkpt><trkpt lat="50.985950574682995" lon="4.812772067414364"><ele>10.0</ele><time>2026-04-15T15:18:14Z</time></trkpt><trkpt lat="50.98586750502339" lon="4.812768592734456"><ele>10.0</ele><time>2026-04-15T15:18:15Z</time></trkpt><trkpt lat="50.985777635025876" lon="4.8127674459324075"><ele>10.0</ele><time>2026-04-15T15:18:16Z</time></trkpt><trkpt lat="50.985682416437974" lon="4.812786697327356"><ele>10.0</ele><time>2026-04-15T15:18:17Z</time></trkpt><trkpt lat="50.98558842683029" lon="4.812798667596976"><ele>10.0</ele><time>2026-04-15T15:18:18Z</time></trkpt><trkpt lat="50.985492772256286" lon="4.812807122366112"><ele>10.25</ele><time>2026-04-15T15:18:19Z</time></trkpt><trkpt lat="50.98538225653587" lon="4.812825449949204"><ele>10.5</ele><time>2026-04-15T15:18:19.999Z</time></trkpt><trkpt lat="50.9852658931748" lon="4.812842871215673"><ele>10.75</ele><time>2026-04-15T15:18:20.999Z</time></trkpt><trkpt lat="50.98514176599179" lon="4.812864668097779"><ele>11.0</ele><time>2026-04-15T15:18:21.999Z</time></trkpt><trkpt lat="50.985021520395705" lon="4.812883958651182"><ele>11.0</ele><time>2026-04-15T15:18:22.999Z</time></trkpt><trkpt lat="50.984894918294245" lon="4.8129039115141135"><ele>11.0</ele><time>2026-04-15T15:18:23.999Z</time></trkpt><trkpt lat="50.98476924792127" lon="4.812919651850138"><ele>11.0</ele><time>2026-04-15T15:18:24.999Z</time></trkpt><trkpt lat="50.98464444139463" lon="4.8129239817259775"><ele>11.0</ele><time>2026-04-15T15:18:25.999Z</time></trkpt><trkpt lat="50.98451988902657" lon="4.812884921998511"><ele>11.0</ele><time>2026-04-15T15:18:26.999Z</time></trkpt><trkpt lat="50.98439584979965" lon="4.81289710767028"><ele>11.0</ele><time>2026-04-15T15:18:27.999Z</time></trkpt><trkpt lat="50.98427020958118" lon="4.812930624633475"><ele>11.0</ele><time>2026-04-15T15:18:28.999Z</time></trkpt><trkpt lat="50.98414798232392" lon="4.81293538837464"><ele>11.0</ele><time>2026-04-15T15:18:29.999Z</time></trkpt><trkpt lat="50.984043629857275" lon="4.812936309814966"><ele>10.833333333333332</ele><time>2026-04-15T15:18:30.999Z</time></trkpt><trkpt lat="50.98395274386636" lon="4.812945614479706"><ele>10.666666666666666</ele><time>2026-04-15T15:18:31.999Z</time></trkpt><trkpt lat="50.98387782680789" lon="4.812954568980102"><ele>10.5</ele><time>2026-04-15T15:18:32.999Z</time></trkpt><trkpt lat="50.98380991906171" lon="4.812965606846014"><ele>10.333333333333334</ele><time>2026-04-15T15:18:33.999Z</time></trkpt><trkpt lat="50.98370337851801" lon="4.812968096762926"><ele>10.166666666666668</ele><time>2026-04-15T15:18:35.999Z</time></trkpt><trkpt lat="50.983621657676984" lon="4.812965853775047"><ele>10.0</ele><time>2026-04-15T15:18:39.999Z</time></trkpt><trkpt lat="50.983566635490824" lon="4.812834430803193"><ele>10.0</ele><time>2026-04-15T15:18:42.999Z</time></trkpt><trkpt lat="50.98352733240408" lon="4.812745526764096"><ele>10.0</ele><time>2026-04-15T15:18:43.999Z</time></trkpt><trkpt lat="50.98349914050967" lon="4.812633639517495"><ele>10.0</ele><time>2026-04-15T15:18:44.999Z</time></trkpt><trkpt lat="50.98347397216775" lon="4.812502396173381"><ele>10.0</ele><time>2026-04-15T15:18:45.999Z</time></trkpt><trkpt lat="50.983449214943946" lon="4.81235324577502"><ele>10.0</ele><time>2026-04-15T15:18:46.999Z</time></trkpt><trkpt lat="50.983428055436804" lon="4.812226673720472"><ele>10.0</ele><time>2026-04-15T15:18:48.001Z</time></trkpt><trkpt lat="50.983414772058104" lon="4.812125868488218"><ele>10.0</ele><time>2026-04-15T15:18:49.001Z</time></trkpt><trkpt lat="50.98339739142643" lon="4.812017817885288"><ele>10.0</ele><time>2026-04-15T15:18:50.001Z</time></trkpt><trkpt lat="50.98337388502771" lon="4.811898093291614"><ele>10.0</ele><time>2026-04-15T15:18:51.001Z</time></trkpt><trkpt lat="50.98334986821512" lon="4.811773616853496"><ele>10.0</ele><time>2026-04-15T15:18:52.001Z</time></trkpt><trkpt lat="50.983326925130584" lon="4.8116524114409"><ele>10.0</ele><time>2026-04-15T15:18:53.001Z</time></trkpt><trkpt lat="50.98330361179033" lon="4.811533307930034"><ele>10.0</ele><time>2026-04-15T15:18:54.001Z</time></trkpt><trkpt lat="50.983282168907174" lon="4.811411021563449"><ele>10.166666666666668</ele><time>2026-04-15T15:18:55.001Z</time></trkpt><trkpt lat="50.98327641912451" lon="4.811288479858038"><ele>10.333333333333334</ele><time>2026-04-15T15:18:56.001Z</time></trkpt><trkpt lat="50.98324422002972" lon="4.811174295077101"><ele>10.5</ele><time>2026-04-15T15:18:58.001Z</time></trkpt><trkpt lat="50.98323787516414" lon="4.810996148291005"><ele>10.666666666666666</ele><time>2026-04-15T15:19:19Z</time></trkpt><trkpt lat="50.98322336496702" lon="4.81084517215145"><ele>10.833333333333332</ele><time>2026-04-15T15:19:21Z</time></trkpt><trkpt lat="50.98319847551691" lon="4.810745388160777"><ele>11.0</ele><time>2026-04-15T15:19:24Z</time></trkpt><trkpt lat="50.98311140467818" lon="4.8106786724246575"><ele>11.0</ele><time>2026-04-15T15:19:35Z</time></trkpt><trkpt lat="50.983019745465114" lon="4.810678083378809"><ele>11.0</ele><time>2026-04-15T15:19:36Z</time></trkpt><trkpt lat="50.98289678449246" lon="4.810701610796158"><ele>11.0</ele><time>2026-04-15T15:19:37Z</time></trkpt><trkpt lat="50.982739753030316" lon="4.810724823936485"><ele>11.0</ele><time>2026-04-15T15:19:38Z</time></trkpt><trkpt lat="50.9825686907181" lon="4.81074419260131"><ele>11.333333333333332</ele><time>2026-04-15T15:19:39Z</time></trkpt><trkpt lat="50.98237550948926" lon="4.810755290645088"><ele>11.666666666666666</ele><time>2026-04-15T15:19:40Z</time></trkpt><trkpt lat="50.982180044517854" lon="4.810762100831049"><ele>12.0</ele><time>2026-04-15T15:19:41Z</time></trkpt><trkpt lat="50.98196267623372" lon="4.810760763364778"><ele>12.0</ele><time>2026-04-15T15:19:42Z</time></trkpt><trkpt lat="50.98173700475008" lon="4.810773875547522"><ele>12.0</ele><time>2026-04-15T15:19:43Z</time></trkpt><trkpt lat="50.981521614397344" lon="4.810807101944783"><ele>12.0</ele><time>2026-04-15T15:19:44Z</time></trkpt><trkpt lat="50.98130412708443" lon="4.810837639434673"><ele>12.0</ele><time>2026-04-15T15:19:45Z</time></trkpt><trkpt lat="50.98108304567308" lon="4.810875984688968"><ele>12.0</ele><time>2026-04-15T15:19:46Z</time></trkpt><trkpt lat="50.98086064652258" lon="4.8109309969680245"><ele>12.0</ele><time>2026-04-15T15:19:47Z</time></trkpt><trkpt lat="50.98063804967391" lon="4.81099628347986"><ele>13.0</ele><time>2026-04-15T15:19:48Z</time></trkpt><trkpt lat="50.980421708083675" lon="4.811075571996213"><ele>14.0</ele><time>2026-04-15T15:19:49Z</time></trkpt><trkpt lat="50.98020329569283" lon="4.811175191943373"><ele>15.0</ele><time>2026-04-15T15:19:50Z</time></trkpt><trkpt lat="50.97999526723685" lon="4.8113004484710755"><ele>15.666666666666668</ele><time>2026-04-15T15:19:50.999Z</time></trkpt><trkpt lat="50.9798005654533" lon="4.81144238302239"><ele>16.333333333333336</ele><time>2026-04-15T15:19:51.999Z</time></trkpt><trkpt lat="50.97960728354047" lon="4.811594755031139"><ele>17.0</ele><time>2026-04-15T15:19:52.999Z</time></trkpt><trkpt lat="50.979422323426526" lon="4.811755541804979"><ele>17.0</ele><time>2026-04-15T15:19:53.999Z</time></trkpt><trkpt lat="50.97924467909322" lon="4.811930923279312"><ele>17.0</ele><time>2026-04-15T15:19:54.999Z</time></trkpt><trkpt lat="50.97907029086869" lon="4.812118107748628"><ele>17.0</ele><time>2026-04-15T15:19:55.999Z</time></trkpt><trkpt lat="50.97890408388249" lon="4.812320688747288"><ele>17.0</ele><time>2026-04-15T15:19:56.999Z</time></trkpt><trkpt lat="50.97874096501936" lon="4.812537837615777"><ele>17.0</ele><time>2026-04-15T15:19:57.999Z</time></trkpt><trkpt lat="50.97858923725059" lon="4.812771463237919"><ele>17.0</ele><time>2026-04-15T15:19:58.999Z</time></trkpt><trkpt lat="50.978436436462346" lon="4.813013456873123"><ele>17.0</ele><time>2026-04-15T15:19:59.999Z</time></trkpt><trkpt lat="50.97828939757511" lon="4.8132640332087835"><ele>17.0</ele><time>2026-04-15T15:20:00.999Z</time></trkpt><trkpt lat="50.978148969668474" lon="4.813524140391585"><ele>17.0</ele><time>2026-04-15T15:20:01.999Z</time></trkpt><trkpt lat="50.978011701867935" lon="4.813784397599661"><ele>17.0</ele><time>2026-04-15T15:20:02.999Z</time></trkpt><trkpt lat="50.97786661519981" lon="4.814050752015044"><ele>17.0</ele><time>2026-04-15T15:20:03.999Z</time></trkpt><trkpt lat="50.97772006267415" lon="4.814314752801278"><ele>17.0</ele><time>2026-04-15T15:20:04.999Z</time></trkpt><trkpt lat="50.97757804266593" lon="4.814577491142921"><ele>17.0</ele><time>2026-04-15T15:20:05.999Z</time></trkpt><trkpt lat="50.977441181413944" lon="4.814841342575863"><ele>17.0</ele><time>2026-04-15T15:20:06.999Z</time></trkpt><trkpt lat="50.97730732549571" lon="4.815112162948421"><ele>17.0</ele><time>2026-04-15T15:20:07.999Z</time></trkpt><trkpt lat="50.97717972547174" lon="4.815394922607708"><ele>17.0</ele><time>2026-04-15T15:20:08.999Z</time></trkpt><trkpt lat="50.97706489731094" lon="4.815689132594118"><ele>17.0</ele><time>2026-04-15T15:20:09.999Z</time></trkpt><trkpt lat="50.976963948483885" lon="4.81599853460325"><ele>17.0</ele><time>2026-04-15T15:20:10.999Z</time></trkpt><trkpt lat="50.97687751376401" lon="4.816322650547092"><ele>17.0</ele><time>2026-04-15T15:20:11.999Z</time></trkpt><trkpt lat="50.976810824243636" lon="4.816655995302881"><ele>17.0</ele><time>2026-04-15T15:20:12.999Z</time></trkpt><trkpt lat="50.976764707920346" lon="4.816989713867992"><ele>17.0</ele><time>2026-04-15T15:20:13.999Z</time></trkpt><trkpt lat="50.97674681020997" lon="4.817344715865463"><ele>18.333333333333336</ele><time>2026-04-15T15:20:14.999Z</time></trkpt><trkpt lat="50.97674845800552" lon="4.817692278830486"><ele>19.666666666666668</ele><time>2026-04-15T15:20:15.999Z</time></trkpt><trkpt lat="50.97676735956476" lon="4.818040695581321"><ele>21.0</ele><time>2026-04-15T15:20:16.999Z</time></trkpt><trkpt lat="50.976803959447544" lon="4.818382248935573"><ele>21.333333333333332</ele><time>2026-04-15T15:20:17.999Z</time></trkpt><trkpt lat="50.976860538085134" lon="4.818721590586867"><ele>21.666666666666664</ele><time>2026-04-15T15:20:18.999Z</time></trkpt><trkpt lat="50.976934184811164" lon="4.819053921744676"><ele>22.0</ele><time>2026-04-15T15:20:19.999Z</time></trkpt><trkpt lat="50.977014672176296" lon="4.819371586202258"><ele>23.0</ele><time>2026-04-15T15:20:20.999Z</time></trkpt><trkpt lat="50.97710024246828" lon="4.81969242624212"><ele>24.0</ele><time>2026-04-15T15:20:21.999Z</time></trkpt><trkpt lat="50.977189106652595" lon="4.820000685975951"><ele>25.0</ele><time>2026-04-15T15:20:22.999Z</time></trkpt><trkpt lat="50.97728228810689" lon="4.820316316211917"><ele>24.333333333333336</ele><time>2026-04-15T15:20:23.999Z</time></trkpt><trkpt lat="50.97737577471372" lon="4.820631774344806"><ele>23.666666666666668</ele><time>2026-04-15T15:20:24.999Z</time></trkpt><trkpt lat="50.97746764451674" lon="4.820946497089484"><ele>23.0</ele><time>2026-04-15T15:20:25.999Z</time></trkpt><trkpt lat="50.97755624217918" lon="4.821266393050895"><ele>23.0</ele><time>2026-04-15T15:20:26.999Z</time></trkpt><trkpt lat="50.977647409471246" lon="4.8215784441509895"><ele>23.0</ele><time>2026-04-15T15:20:27.999Z</time></trkpt><trkpt lat="50.97773922262775" lon="4.82189160529604"><ele>23.0</ele><time>2026-04-15T15:20:28.999Z</time></trkpt><trkpt lat="50.97782952905145" lon="4.822210226386367"><ele>24.333333333333336</ele><time>2026-04-15T15:20:29.999Z</time></trkpt><trkpt lat="50.977912456525324" lon="4.822523284530687"><ele>25.666666666666668</ele><time>2026-04-15T15:20:30.999Z</time></trkpt><trkpt lat="50.977989849385885" lon="4.822853603659751"><ele>27.0</ele><time>2026-04-15T15:20:31.999Z</time></trkpt><trkpt lat="50.978050312706664" lon="4.823181084115108"><ele>29.666666666666664</ele><time>2026-04-15T15:20:32.999Z</time></trkpt><trkpt lat="50.978092675008455" lon="4.82352321432139"><ele>32.33333333333333</ele><time>2026-04-15T15:20:33.999Z</time></trkpt><trkpt lat="50.978149175167836" lon="4.823853677356623"><ele>35.0</ele><time>2026-04-15T15:20:34.999Z</time></trkpt><trkpt lat="50.97820398673137" lon="4.8241790071522095"><ele>37.0</ele><time>2026-04-15T15:20:35.999Z</time></trkpt><trkpt lat="50.978103929185" lon="4.8245700162873115"><ele>39.0</ele><time>2026-04-15T15:20:36.999Z</time></trkpt><trkpt lat="50.9780618524072" lon="4.8249040488761255"><ele>39.333333333333336</ele><time>2026-04-15T15:20:37.999Z</time></trkpt><trkpt lat="50.978002015970176" lon="4.825225682996196"><ele>39.66666666666667</ele><time>2026-04-15T15:20:38.999Z</time></trkpt><trkpt lat="50.9779279859058" lon="4.825511962492983"><ele>40.0</ele><time>2026-04-15T15:20:39.999Z</time></trkpt><trkpt lat="50.97786676779099" lon="4.825725888024081"><ele>40.0</ele><time>2026-04-15T15:20:40.999Z</time></trkpt><trkpt lat="50.97780564487886" lon="4.825907414692161"><ele>40.0</ele><time>2026-04-15T15:20:41.999Z</time></trkpt><trkpt lat="50.9777437989744" lon="4.826051646904105"><ele>40.0</ele><time>2026-04-15T15:20:42.999Z</time></trkpt><trkpt lat="50.97768508046805" lon="4.82616425978072"><ele>40.0</ele><time>2026-04-15T15:20:43.999Z</time></trkpt><trkpt lat="50.97762341036028" lon="4.826275685488236"><ele>40.0</ele><time>2026-04-15T15:20:45.999Z</time></trkpt><trkpt lat="50.97755063360552" lon="4.826415066094025"><ele>40.2</ele><time>2026-04-15T15:21:08Z</time></trkpt><trkpt lat="50.977500168076666" lon="4.82649903272808"><ele>40.4</ele><time>2026-04-15T15:21:09Z</time></trkpt><trkpt lat="50.97742638985261" lon="4.826608001752986"><ele>40.599999999999994</ele><time>2026-04-15T15:21:10Z</time></trkpt><trkpt lat="50.977319588786834" lon="4.826726636552198"><ele>40.8</ele><time>2026-04-15T15:21:11Z</time></trkpt><trkpt lat="50.977208620432314" lon="4.826846943577359"><ele>41.0</ele><time>2026-04-15T15:21:12Z</time></trkpt><trkpt lat="50.977087129281486" lon="4.826999189752576"><ele>41.666666666666664</ele><time>2026-04-15T15:21:13Z</time></trkpt><trkpt lat="50.97695301135549" lon="4.8271373817426815"><ele>42.333333333333336</ele><time>2026-04-15T15:21:14Z</time></trkpt><trkpt lat="50.97686155318352" lon="4.827337209819228"><ele>43.0</ele><time>2026-04-15T15:21:15Z</time></trkpt><trkpt lat="50.976699080078156" lon="4.827506791942791"><ele>43.66666666666667</ele><time>2026-04-15T15:21:16Z</time></trkpt><trkpt lat="50.97652601135648" lon="4.827685548064163"><ele>44.333333333333336</ele><time>2026-04-15T15:21:17Z</time></trkpt><trkpt lat="50.97634846317712" lon="4.827873344644509"><ele>45.0</ele><time>2026-04-15T15:21:18Z</time></trkpt><trkpt lat="50.97615719003704" lon="4.828069839034137"><ele>45.0</ele><time>2026-04-15T15:21:19Z</time></trkpt><trkpt lat="50.975955245745716" lon="4.828263771604541"><ele>45.0</ele><time>2026-04-15T15:21:20Z</time></trkpt><trkpt lat="50.97575385336033" lon="4.828448882891993"><ele>45.0</ele><time>2026-04-15T15:21:21Z</time></trkpt><trkpt lat="50.975553880225256" lon="4.828640167257743"><ele>45.0</ele><time>2026-04-15T15:21:22Z</time></trkpt><trkpt lat="50.975361773016274" lon="4.828834587776235"><ele>45.0</ele><time>2026-04-15T15:21:23Z</time></trkpt><trkpt lat="50.97516527123007" lon="4.829036548467772"><ele>45.0</ele><time>2026-04-15T15:21:24Z</time></trkpt><trkpt lat="50.9749769134692" lon="4.829254197030995"><ele>45.0</ele><time>2026-04-15T15:21:25Z</time></trkpt><trkpt lat="50.974793832631725" lon="4.8294792996860645"><ele>45.0</ele><time>2026-04-15T15:21:26Z</time></trkpt><trkpt lat="50.974612902592355" lon="4.829703429626851"><ele>45.0</ele><time>2026-04-15T15:21:27Z</time></trkpt><trkpt lat="50.97443821605889" lon="4.829927952483252"><ele>45.0</ele><time>2026-04-15T15:21:28Z</time></trkpt><trkpt lat="50.97427099055172" lon="4.830154698301743"><ele>45.0</ele><time>2026-04-15T15:21:29Z</time></trkpt><trkpt lat="50.97409926723096" lon="4.83039058569255"><ele>46.0</ele><time>2026-04-15T15:21:30Z</time></trkpt><trkpt lat="50.97393690930649" lon="4.830627860548552"><ele>47.0</ele><time>2026-04-15T15:21:31Z</time></trkpt><trkpt lat="50.973782515382986" lon="4.830857946321965"><ele>48.0</ele><time>2026-04-15T15:21:32Z</time></trkpt><trkpt lat="50.97362340591391" lon="4.831089081647033"><ele>48.33333333333333</ele><time>2026-04-15T15:21:33Z</time></trkpt><trkpt lat="50.973464904970314" lon="4.831332117172125"><ele>48.666666666666664</ele><time>2026-04-15T15:21:34Z</time></trkpt><trkpt lat="50.9733045122327" lon="4.8315618711030925"><ele>49.0</ele><time>2026-04-15T15:21:35Z</time></trkpt><trkpt lat="50.97314203894094" lon="4.831791211796876"><ele>48.666666666666664</ele><time>2026-04-15T15:21:36Z</time></trkpt><trkpt lat="50.97298618825616" lon="4.8320370711709435"><ele>48.33333333333333</ele><time>2026-04-15T15:21:37Z</time></trkpt><trkpt lat="50.97283222359242" lon="4.8322899591894695"><ele>48.0</ele><time>2026-04-15T15:21:38Z</time></trkpt><trkpt lat="50.97267059530043" lon="4.832552865978281"><ele>48.0</ele><time>2026-04-15T15:21:39Z</time></trkpt><trkpt lat="50.97250028233729" lon="4.832806860892271"><ele>48.0</ele><time>2026-04-15T15:21:40Z</time></trkpt><trkpt lat="50.97232342405049" lon="4.833058830936957"><ele>48.0</ele><time>2026-04-15T15:21:41Z</time></trkpt><trkpt lat="50.97213856148951" lon="4.833304972118761"><ele>48.0</ele><time>2026-04-15T15:21:42Z</time></trkpt><trkpt lat="50.971920989600385" lon="4.833506772092552"><ele>48.0</ele><time>2026-04-15T15:21:43Z</time></trkpt><trkpt lat="50.97172113119237" lon="4.83372705147645"><ele>48.0</ele><time>2026-04-15T15:21:44Z</time></trkpt><trkpt lat="50.97151207562684" lon="4.833940805222849"><ele>48.0</ele><time>2026-04-15T15:21:45Z</time></trkpt><trkpt lat="50.97130369937348" lon="4.8341405473239245"><ele>48.0</ele><time>2026-04-15T15:21:46Z</time></trkpt><trkpt lat="50.971093252337496" lon="4.834321373525584"><ele>48.0</ele><time>2026-04-15T15:21:47Z</time></trkpt><trkpt lat="50.97087341831159" lon="4.834489688918778"><ele>48.0</ele><time>2026-04-15T15:21:48Z</time></trkpt><trkpt lat="50.97065388294338" lon="4.8346451863266795"><ele>48.0</ele><time>2026-04-15T15:21:49Z</time></trkpt><trkpt lat="50.97043000220644" lon="4.834809778342161"><ele>48.0</ele><time>2026-04-15T15:21:50Z</time></trkpt><trkpt lat="50.97019489573629" lon="4.834932301327145"><ele>49.0</ele><time>2026-04-15T15:21:51Z</time></trkpt><trkpt lat="50.96998211396409" lon="4.835084468390097"><ele>50.0</ele><time>2026-04-15T15:21:52Z</time></trkpt><trkpt lat="50.96975767458229" lon="4.835173826743838"><ele>50.0</ele><time>2026-04-15T15:21:53Z</time></trkpt><trkpt lat="50.96953933202882" lon="4.8352709334658295"><ele>50.0</ele><time>2026-04-15T15:21:54Z</time></trkpt><trkpt lat="50.96932575968827" lon="4.835351777986269"><ele>50.0</ele><time>2026-04-15T15:21:54.999Z</time></trkpt><trkpt lat="50.969115671486726" lon="4.835425024069518"><ele>51.66666666666667</ele><time>2026-04-15T15:21:55.999Z</time></trkpt><trkpt lat="50.96891752235402" lon="4.835488602151822"><ele>53.33333333333333</ele><time>2026-04-15T15:21:56.999Z</time></trkpt><trkpt lat="50.9687377504619" lon="4.8355409263315785"><ele>55.0</ele><time>2026-04-15T15:21:57.999Z</time></trkpt><trkpt lat="50.96857330609057" lon="4.835610918364775"><ele>55.0</ele><time>2026-04-15T15:21:58.999Z</time></trkpt><trkpt lat="50.96842537267915" lon="4.8356462939248015"><ele>55.0</ele><time>2026-04-15T15:21:59.999Z</time></trkpt><trkpt lat="50.96829542395737" lon="4.8356804571406835"><ele>55.0</ele><time>2026-04-15T15:22:00.999Z</time></trkpt><trkpt lat="50.96818940404969" lon="4.835685670581818"><ele>55.0</ele><time>2026-04-15T15:22:01.999Z</time></trkpt><trkpt lat="50.96809613237963" lon="4.8357090415109365"><ele>55.166666666666664</ele><time>2026-04-15T15:22:02.999Z</time></trkpt><trkpt lat="50.96801487687365" lon="4.835729401568998"><ele>55.33333333333333</ele><time>2026-04-15T15:22:03.999Z</time></trkpt><trkpt lat="50.96793794125983" lon="4.835748679199362"><ele>55.5</ele><time>2026-04-15T15:22:04.999Z</time></trkpt><trkpt lat="50.96787211127783" lon="4.835765174110014"><ele>55.66666666666667</ele><time>2026-04-15T15:22:05.999Z</time></trkpt><trkpt lat="50.96778727854228" lon="4.835786430509232"><ele>55.833333333333336</ele><time>2026-04-15T15:22:07.999Z</time></trkpt><trkpt lat="50.96772421138509" lon="4.835802230421046"><ele>56.0</ele><time>2026-04-15T15:23:31Z</time></trkpt><trkpt lat="50.9676033671079" lon="4.835834433673733"><ele>55.75</ele><time>2026-04-15T15:23:33Z</time></trkpt><trkpt lat="50.967524180930795" lon="4.8361440857799876"><ele>55.5</ele><time>2026-04-15T15:23:35Z</time></trkpt><trkpt lat="50.967525141062694" lon="4.8363098603848"><ele>55.25</ele><time>2026-04-15T15:23:36Z</time></trkpt><trkpt lat="50.96753572546663" lon="4.836501809751214"><ele>55.0</ele><time>2026-04-15T15:23:37Z</time></trkpt><trkpt lat="50.96754020678513" lon="4.836704251493732"><ele>55.0</ele><time>2026-04-15T15:23:38Z</time></trkpt><trkpt lat="50.96753733372225" lon="4.836927011182309"><ele>55.0</ele><time>2026-04-15T15:23:39Z</time></trkpt><trkpt lat="50.96752931904039" lon="4.837162560540558"><ele>55.0</ele><time>2026-04-15T15:23:40Z</time></trkpt><trkpt lat="50.967511987089" lon="4.837410667846255"><ele>55.0</ele><time>2026-04-15T15:23:41Z</time></trkpt><trkpt lat="50.967493117953445" lon="4.837660437776987"><ele>54.33333333333333</ele><time>2026-04-15T15:23:42Z</time></trkpt><trkpt lat="50.96746672604158" lon="4.837922127692474"><ele>53.66666666666667</ele><time>2026-04-15T15:23:43Z</time></trkpt><trkpt lat="50.967430744240225" lon="4.838195240387995"><ele>53.0</ele><time>2026-04-15T15:23:44Z</time></trkpt><trkpt lat="50.9673612645272" lon="4.838419907282512"><ele>52.75</ele><time>2026-04-15T15:23:45Z</time></trkpt><trkpt lat="50.96729776831003" lon="4.838621173556316"><ele>52.5</ele><time>2026-04-15T15:23:46Z</time></trkpt><trkpt lat="50.96723026493344" lon="4.838794168191671"><ele>52.25</ele><time>2026-04-15T15:23:47Z</time></trkpt><trkpt lat="50.96716435850334" lon="4.838937885671603"><ele>52.0</ele><time>2026-04-15T15:23:48Z</time></trkpt><trkpt lat="50.96710235870756" lon="4.839054523313174"><ele>52.0</ele><time>2026-04-15T15:23:49Z</time></trkpt><trkpt lat="50.967019562897086" lon="4.839174581862054"><ele>52.0</ele><time>2026-04-15T15:23:51Z</time></trkpt><trkpt lat="50.96695840855861" lon="4.839258532708758"><ele>52.0</ele><time>2026-04-15T15:23:54Z</time></trkpt><trkpt lat="50.967077227334364" lon="4.839541058068699"><ele>52.0</ele><time>2026-04-15T15:24:01Z</time></trkpt><trkpt lat="50.96715755055068" lon="4.839620977293978"><ele>52.0</ele><time>2026-04-15T15:24:02Z</time></trkpt><trkpt lat="50.96722744136127" lon="4.839741909351921"><ele>52.0</ele><time>2026-04-15T15:24:03Z</time></trkpt><trkpt lat="50.96729659547261" lon="4.839868215198149"><ele>52.0</ele><time>2026-04-15T15:24:04Z</time></trkpt><trkpt lat="50.967333124987974" lon="4.840053889965792"><ele>52.0</ele><time>2026-04-15T15:24:04.999Z</time></trkpt><trkpt lat="50.967374772032784" lon="4.8402419381951125"><ele>52.25</ele><time>2026-04-15T15:24:05.999Z</time></trkpt><trkpt lat="50.96739951318464" lon="4.8404488034728095"><ele>52.5</ele><time>2026-04-15T15:24:06.999Z</time></trkpt><trkpt lat="50.96739971598871" lon="4.840672367417478"><ele>52.75</ele><time>2026-04-15T15:24:07.999Z</time></trkpt><trkpt lat="50.96738852768601" lon="4.840899706390146"><ele>53.0</ele><time>2026-04-15T15:24:08.999Z</time></trkpt><trkpt lat="50.96737823402599" lon="4.841100400719284"><ele>53.0</ele><time>2026-04-15T15:24:09.999Z</time></trkpt><trkpt lat="50.96737012728407" lon="4.841270400231192"><ele>53.0</ele><time>2026-04-15T15:24:10.999Z</time></trkpt><trkpt lat="50.96736662472606" lon="4.841408421717122"><ele>53.0</ele><time>2026-04-15T15:24:11.999Z</time></trkpt><trkpt lat="50.96735983589336" lon="4.841531249640452"><ele>53.0</ele><time>2026-04-15T15:24:12.999Z</time></trkpt><trkpt lat="50.967350252328565" lon="4.841654042702385"><ele>53.0</ele><time>2026-04-15T15:24:13.999Z</time></trkpt><trkpt lat="50.96730932755237" lon="4.841827270695775"><ele>53.0</ele><time>2026-04-15T15:24:15.999Z</time></trkpt><trkpt lat="50.9671451334263" lon="4.84182326449824"><ele>53.0</ele><time>2026-04-15T15:24:17.999Z</time></trkpt><trkpt lat="50.967048561747035" lon="4.841849144840813"><ele>53.0</ele><time>2026-04-15T15:24:18.999Z</time></trkpt><trkpt lat="50.966952615775156" lon="4.841839465139102"><ele>53.0</ele><time>2026-04-15T15:24:19.999Z</time></trkpt><trkpt lat="50.96685677879524" lon="4.841841254429517"><ele>53.0</ele><time>2026-04-15T15:24:20.999Z</time></trkpt><trkpt lat="50.966768019956255" lon="4.841843434872274"><ele>53.0</ele><time>2026-04-15T15:24:21.999Z</time></trkpt><trkpt lat="50.96667905737695" lon="4.841849087329651"><ele>53.0</ele><time>2026-04-15T15:24:22.999Z</time></trkpt><trkpt lat="50.9665876410891" lon="4.841827424312482"><ele>53.0</ele><time>2026-04-15T15:24:23.999Z</time></trkpt><trkpt lat="50.96647965376615" lon="4.841833708446059"><ele>53.0</ele><time>2026-04-15T15:24:24.999Z</time></trkpt><trkpt lat="50.966373259965664" lon="4.841841213401204"><ele>52.5</ele><time>2026-04-15T15:24:25.999Z</time></trkpt><trkpt lat="50.96625881442147" lon="4.841849286322267"><ele>52.0</ele><time>2026-04-15T15:24:26.999Z</time></trkpt><trkpt lat="50.96614411594908" lon="4.841855464486911"><ele>51.5</ele><time>2026-04-15T15:24:27.999Z</time></trkpt><trkpt lat="50.96601899132761" lon="4.841855464486242"><ele>51.0</ele><time>2026-04-15T15:24:28.999Z</time></trkpt><trkpt lat="50.96589691017921" lon="4.841840181697539"><ele>51.0</ele><time>2026-04-15T15:24:29.999Z</time></trkpt><trkpt lat="50.96577182297181" lon="4.841813409479486"><ele>51.0</ele><time>2026-04-15T15:24:30.999Z</time></trkpt><trkpt lat="50.96564836758147" lon="4.84180628192039"><ele>51.0</ele><time>2026-04-15T15:24:31.999Z</time></trkpt><trkpt lat="50.965542483600274" lon="4.841748773179961"><ele>51.0</ele><time>2026-04-15T15:24:32.999Z</time></trkpt><trkpt lat="50.96542905576998" lon="4.841711619455737"><ele>51.199999999999996</ele><time>2026-04-15T15:24:33.999Z</time></trkpt><trkpt lat="50.96531490388286" lon="4.841694187668616"><ele>51.4</ele><time>2026-04-15T15:24:34.999Z</time></trkpt><trkpt lat="50.9652054261975" lon="4.841644943196898"><ele>51.6</ele><time>2026-04-15T15:24:35.999Z</time></trkpt><trkpt lat="50.9651048305773" lon="4.841593664419994"><ele>51.8</ele><time>2026-04-15T15:24:36.999Z</time></trkpt><trkpt lat="50.96502317677741" lon="4.841556161457977"><ele>52.0</ele><time>2026-04-15T15:24:37.999Z</time></trkpt><trkpt lat="50.96494273556493" lon="4.841521220078438"><ele>52.0</ele><time>2026-04-15T15:24:38.999Z</time></trkpt><trkpt lat="50.96486944805591" lon="4.8414863020487235"><ele>52.0</ele><time>2026-04-15T15:24:39.999Z</time></trkpt><trkpt lat="50.96480524646729" lon="4.841457747772351"><ele>52.0</ele><time>2026-04-15T15:24:40.999Z</time></trkpt><trkpt lat="50.964694346159426" lon="4.841489682488289"><ele>52.0</ele><time>2026-04-15T15:24:42.999Z</time></trkpt><trkpt lat="50.96466856902937" lon="4.841644944617208"><ele>52.0</ele><time>2026-04-15T15:24:43.999Z</time></trkpt><trkpt lat="50.964650801311414" lon="4.841801255953859"><ele>52.0</ele><time>2026-04-15T15:24:44.999Z</time></trkpt><trkpt lat="50.964615786999346" lon="4.841956012974195"><ele>52.0</ele><time>2026-04-15T15:24:45.999Z</time></trkpt><trkpt lat="50.9645902634926" lon="4.842137141487376"><ele>52.0</ele><time>2026-04-15T15:24:46.999Z</time></trkpt><trkpt lat="50.96457934594332" lon="4.842335798255552"><ele>52.0</ele><time>2026-04-15T15:24:47.999Z</time></trkpt><trkpt lat="50.96455513820184" lon="4.84255462331359"><ele>51.75</ele><time>2026-04-15T15:24:48.999Z</time></trkpt><trkpt lat="50.964539059993655" lon="4.842782704854406"><ele>51.5</ele><time>2026-04-15T15:24:49.999Z</time></trkpt><trkpt lat="50.96451605439682" lon="4.843019028335779"><ele>51.25</ele><time>2026-04-15T15:24:50.999Z</time></trkpt><trkpt lat="50.964492848962564" lon="4.843260490635862"><ele>51.0</ele><time>2026-04-15T15:24:51.999Z</time></trkpt><trkpt lat="50.96447038173069" lon="4.843496661803686"><ele>50.75</ele><time>2026-04-15T15:24:52.999Z</time></trkpt><trkpt lat="50.9644505420803" lon="4.843725273253122"><ele>50.5</ele><time>2026-04-15T15:24:53.999Z</time></trkpt><trkpt lat="50.96444016520488" lon="4.843934757994186"><ele>50.25</ele><time>2026-04-15T15:24:54.999Z</time></trkpt><trkpt lat="50.9644295713902" lon="4.844137960292985"><ele>50.0</ele><time>2026-04-15T15:24:55.999Z</time></trkpt><trkpt lat="50.964442379986906" lon="4.8443314757372296"><ele>50.00000000000001</ele><time>2026-04-15T15:24:56.999Z</time></trkpt><trkpt lat="50.96445528894047" lon="4.844499034728838"><ele>50.0</ele><time>2026-04-15T15:24:57.999Z</time></trkpt><trkpt lat="50.96446559754537" lon="4.844633600806276"><ele>50.0</ele><time>2026-04-15T15:24:58.999Z</time></trkpt><trkpt lat="50.96447982327711" lon="4.844752394514064"><ele>50.0</ele><time>2026-04-15T15:24:59.999Z</time></trkpt><trkpt lat="50.964493585409386" lon="4.844931100535273"><ele>50.00000000000001</ele><time>2026-04-15T15:25:01.999Z</time></trkpt><trkpt lat="50.96450755426643" lon="4.845033084790702"><ele>50.0</ele><time>2026-04-15T15:25:03.999Z</time></trkpt><trkpt lat="50.964299347785776" lon="4.845173428628196"><ele>50.2</ele><time>2026-04-15T15:25:04.998Z</time></trkpt><trkpt lat="50.964252256695026" lon="4.845295686681196"><ele>50.4</ele><time>2026-04-15T15:25:06.001Z</time></trkpt><trkpt lat="50.96422776454322" lon="4.845439920999807"><ele>50.599999999999994</ele><time>2026-04-15T15:25:07.001Z</time></trkpt><trkpt lat="50.96422320203218" lon="4.845588602913036"><ele>50.8</ele><time>2026-04-15T15:25:08.001Z</time></trkpt><trkpt lat="50.96421795521683" lon="4.845732214226148"><ele>51.0</ele><time>2026-04-15T15:25:09.001Z</time></trkpt><trkpt lat="50.96420604407864" lon="4.8458931683737685"><ele>50.4</ele><time>2026-04-15T15:25:10.001Z</time></trkpt><trkpt lat="50.96419456774462" lon="4.846058927223122"><ele>49.8</ele><time>2026-04-15T15:25:11.001Z</time></trkpt><trkpt lat="50.96419059206772" lon="4.846209662979952"><ele>49.199999999999996</ele><time>2026-04-15T15:25:12.001Z</time></trkpt><trkpt lat="50.964181587568454" lon="4.846373497636375"><ele>48.599999999999994</ele><time>2026-04-15T15:25:13.001Z</time></trkpt><trkpt lat="50.9641659602348" lon="4.846541372720806"><ele>48.0</ele><time>2026-04-15T15:25:14Z</time></trkpt><trkpt lat="50.96414960395665" lon="4.846695374238835"><ele>48.25</ele><time>2026-04-15T15:25:15Z</time></trkpt><trkpt lat="50.96414014192134" lon="4.846872987198167"><ele>48.5</ele><time>2026-04-15T15:25:16Z</time></trkpt><trkpt lat="50.964128202172674" lon="4.847054630336555"><ele>48.75</ele><time>2026-04-15T15:25:17Z</time></trkpt><trkpt lat="50.96410034497894" lon="4.847233218891082"><ele>49.0</ele><time>2026-04-15T15:25:18Z</time></trkpt><trkpt lat="50.96406715362321" lon="4.847440918535526"><ele>49.0</ele><time>2026-04-15T15:25:19Z</time></trkpt><trkpt lat="50.964044868092145" lon="4.8476256850454105"><ele>49.0</ele><time>2026-04-15T15:25:20Z</time></trkpt><trkpt lat="50.9640184831582" lon="4.847837291867556"><ele>49.0</ele><time>2026-04-15T15:25:21Z</time></trkpt><trkpt lat="50.96399706224318" lon="4.848040009657998"><ele>49.0</ele><time>2026-04-15T15:25:22Z</time></trkpt><trkpt lat="50.963982423944096" lon="4.848200968443633"><ele>48.49999999999999</ele><time>2026-04-15T15:25:23Z</time></trkpt><trkpt lat="50.963970006777956" lon="4.848340662040463"><ele>48.0</ele><time>2026-04-15T15:25:24Z</time></trkpt><trkpt lat="50.96395382719685" lon="4.848466677765047"><ele>47.5</ele><time>2026-04-15T15:25:25Z</time></trkpt><trkpt lat="50.96394143390312" lon="4.848588719318405"><ele>47.0</ele><time>2026-04-15T15:25:26Z</time></trkpt><trkpt lat="50.9639268979658" lon="4.848707566427656"><ele>46.5</ele><time>2026-04-15T15:25:27Z</time></trkpt><trkpt lat="50.96391191233257" lon="4.8488240753456555"><ele>46.0</ele><time>2026-04-15T15:25:28Z</time></trkpt><trkpt lat="50.963897460102544" lon="4.848973966711217"><ele>45.75</ele><time>2026-04-15T15:25:29Z</time></trkpt><trkpt lat="50.96387912138064" lon="4.849135235778731"><ele>45.5</ele><time>2026-04-15T15:25:30Z</time></trkpt><trkpt lat="50.96385621113874" lon="4.849318103774416"><ele>45.25</ele><time>2026-04-15T15:25:31Z</time></trkpt><trkpt lat="50.96383794749203" lon="4.84951834677772"><ele>45.0</ele><time>2026-04-15T15:25:32Z</time></trkpt><trkpt lat="50.963815857904045" lon="4.849728781672025"><ele>44.75</ele><time>2026-04-15T15:25:33Z</time></trkpt><trkpt lat="50.96379370230563" lon="4.849948697629293"><ele>44.5</ele><time>2026-04-15T15:25:34Z</time></trkpt><trkpt lat="50.96377144553591" lon="4.850169985769458"><ele>44.25</ele><time>2026-04-15T15:25:35Z</time></trkpt><trkpt lat="50.96374824209468" lon="4.850394293515371"><ele>44.0</ele><time>2026-04-15T15:25:36Z</time></trkpt><trkpt lat="50.96372406521098" lon="4.850617961696605"><ele>44.0</ele><time>2026-04-15T15:25:37Z</time></trkpt><trkpt lat="50.96369475188835" lon="4.850852267313279"><ele>44.0</ele><time>2026-04-15T15:25:38Z</time></trkpt><trkpt lat="50.963671236173035" lon="4.8510881641860255"><ele>44.0</ele><time>2026-04-15T15:25:39Z</time></trkpt><trkpt lat="50.96364358942538" lon="4.851325887340592"><ele>44.0</ele><time>2026-04-15T15:25:40Z</time></trkpt><trkpt lat="50.96361495708506" lon="4.851564306797006"><ele>44.0</ele><time>2026-04-15T15:25:41Z</time></trkpt><trkpt lat="50.96359256936329" lon="4.851810196643668"><ele>44.0</ele><time>2026-04-15T15:25:42Z</time></trkpt><trkpt lat="50.963562126491674" lon="4.85203461146634"><ele>44.0</ele><time>2026-04-15T15:25:43Z</time></trkpt><trkpt lat="50.96353815542859" lon="4.852243048717382"><ele>44.0</ele><time>2026-04-15T15:25:44Z</time></trkpt><trkpt lat="50.963521805996265" lon="4.852447006703411"><ele>44.0</ele><time>2026-04-15T15:25:45Z</time></trkpt><trkpt lat="50.96350900821586" lon="4.852624631080285"><ele>44.0</ele><time>2026-04-15T15:25:46Z</time></trkpt><trkpt lat="50.963491691365284" lon="4.852798347832185"><ele>43.6</ele><time>2026-04-15T15:25:47Z</time></trkpt><trkpt lat="50.96347998162014" lon="4.852955420477257"><ele>43.2</ele><time>2026-04-15T15:25:48Z</time></trkpt><trkpt lat="50.96347006010726" lon="4.853105321205867"><ele>42.800000000000004</ele><time>2026-04-15T15:25:49Z</time></trkpt><trkpt lat="50.963455946080046" lon="4.853260904776754"><ele>42.400000000000006</ele><time>2026-04-15T15:25:50Z</time></trkpt><trkpt lat="50.963434355369564" lon="4.853399202470224"><ele>42.0</ele><time>2026-04-15T15:25:51Z</time></trkpt><trkpt lat="50.963419548012844" lon="4.8535559375572666"><ele>41.75</ele><time>2026-04-15T15:25:52Z</time></trkpt><trkpt lat="50.963399987132725" lon="4.853741836008582"><ele>41.5</ele><time>2026-04-15T15:25:53Z</time></trkpt><trkpt lat="50.96338992031201" lon="4.8539257708831824"><ele>41.25</ele><time>2026-04-15T15:25:54Z</time></trkpt><trkpt lat="50.96338266759713" lon="4.854147258523123"><ele>41.0</ele><time>2026-04-15T15:25:55Z</time></trkpt><trkpt lat="50.96337091064688" lon="4.854358484113597"><ele>41.0</ele><time>2026-04-15T15:25:56Z</time></trkpt><trkpt lat="50.96335279083153" lon="4.854532893120953"><ele>41.0</ele><time>2026-04-15T15:25:57Z</time></trkpt><trkpt lat="50.9633386527439" lon="4.85472645168512"><ele>41.0</ele><time>2026-04-15T15:25:58Z</time></trkpt><trkpt lat="50.96331831538937" lon="4.854942190715555"><ele>41.0</ele><time>2026-04-15T15:25:59Z</time></trkpt><trkpt lat="50.963291302172415" lon="4.855180143299037"><ele>41.0</ele><time>2026-04-15T15:26:00Z</time></trkpt><trkpt lat="50.96327134196197" lon="4.855423420768109"><ele>41.0</ele><time>2026-04-15T15:26:01Z</time></trkpt><trkpt lat="50.9632553218627" lon="4.8556637864445"><ele>41.0</ele><time>2026-04-15T15:26:02Z</time></trkpt><trkpt lat="50.96324481386527" lon="4.855878099604602"><ele>41.0</ele><time>2026-04-15T15:26:03Z</time></trkpt><trkpt lat="50.96322774984609" lon="4.8560977689472"><ele>41.0</ele><time>2026-04-15T15:26:04Z</time></trkpt><trkpt lat="50.96320238127621" lon="4.856326457255411"><ele>41.0</ele><time>2026-04-15T15:26:05Z</time></trkpt><trkpt lat="50.963180385551276" lon="4.856572056406689"><ele>41.0</ele><time>2026-04-15T15:26:06Z</time></trkpt><trkpt lat="50.963164892857975" lon="4.856773318038986"><ele>41.0</ele><time>2026-04-15T15:26:07Z</time></trkpt><trkpt lat="50.96314730750581" lon="4.856970837855553"><ele>41.0</ele><time>2026-04-15T15:26:08Z</time></trkpt><trkpt lat="50.96313322727121" lon="4.857309701604625"><ele>41.0</ele><time>2026-04-15T15:26:08.999Z</time></trkpt><trkpt lat="50.963098936454806" lon="4.857589191191515"><ele>41.0</ele><time>2026-04-15T15:26:09.999Z</time></trkpt><trkpt lat="50.963065853697906" lon="4.857870767381651"><ele>41.33333333333333</ele><time>2026-04-15T15:26:10.999Z</time></trkpt><trkpt lat="50.9630335901774" lon="4.858178486799689"><ele>41.666666666666664</ele><time>2026-04-15T15:26:11.999Z</time></trkpt><trkpt lat="50.96300236340844" lon="4.858502162971884"><ele>42.0</ele><time>2026-04-15T15:26:12.999Z</time></trkpt><trkpt lat="50.96296840666071" lon="4.858835677420192"><ele>42.333333333333336</ele><time>2026-04-15T15:26:13.999Z</time></trkpt><trkpt lat="50.96293224607322" lon="4.859156162853755"><ele>42.66666666666667</ele><time>2026-04-15T15:26:14.999Z</time></trkpt><trkpt lat="50.96288770100299" lon="4.859484612964954"><ele>43.0</ele><time>2026-04-15T15:26:15.999Z</time></trkpt><trkpt lat="50.962848851051255" lon="4.859823513551701"><ele>44.5</ele><time>2026-04-15T15:26:16.999Z</time></trkpt><trkpt lat="50.96279891004274" lon="4.860169624136912"><ele>46.0</ele><time>2026-04-15T15:26:17.999Z</time></trkpt><trkpt lat="50.96274803369431" lon="4.860521366106533"><ele>46.0</ele><time>2026-04-15T15:26:18.999Z</time></trkpt><trkpt lat="50.96270414545971" lon="4.86087965995838"><ele>46.0</ele><time>2026-04-15T15:26:19.999Z</time></trkpt><trkpt lat="50.9626624886364" lon="4.861245069401607"><ele>46.0</ele><time>2026-04-15T15:26:20.999Z</time></trkpt><trkpt lat="50.96261807750589" lon="4.861610146091095"><ele>46.0</ele><time>2026-04-15T15:26:21.999Z</time></trkpt><trkpt lat="50.962581952859324" lon="4.8619670731963085"><ele>46.0</ele><time>2026-04-15T15:26:22.999Z</time></trkpt><trkpt lat="50.96255185875135" lon="4.862332608664382"><ele>46.0</ele><time>2026-04-15T15:26:23.999Z</time></trkpt><trkpt lat="50.962522399112046" lon="4.862707890732258"><ele>46.5</ele><time>2026-04-15T15:26:24.999Z</time></trkpt><trkpt lat="50.962491140467776" lon="4.863087604498051"><ele>47.0</ele><time>2026-04-15T15:26:25.999Z</time></trkpt><trkpt lat="50.96245844513965" lon="4.863466116888103"><ele>47.0</ele><time>2026-04-15T15:26:26.999Z</time></trkpt><trkpt lat="50.96242267620464" lon="4.863845308335827"><ele>47.0</ele><time>2026-04-15T15:26:27.999Z</time></trkpt><trkpt lat="50.9623882286048" lon="4.864229142278543"><ele>48.5</ele><time>2026-04-15T15:26:28.999Z</time></trkpt><trkpt lat="50.96235426385265" lon="4.864613875737548"><ele>50.0</ele><time>2026-04-15T15:26:29.999Z</time></trkpt><trkpt lat="50.962323349743556" lon="4.865012561891684"><ele>50.0</ele><time>2026-04-15T15:26:30.999Z</time></trkpt><trkpt lat="50.96228908422019" lon="4.865422516653893"><ele>50.0</ele><time>2026-04-15T15:26:31.999Z</time></trkpt><trkpt lat="50.96224961405247" lon="4.86581572884767"><ele>49.5</ele><time>2026-04-15T15:26:32.999Z</time></trkpt><trkpt lat="50.962217439600245" lon="4.8661978439847795"><ele>49.0</ele><time>2026-04-15T15:26:33.999Z</time></trkpt><trkpt lat="50.96218664903611" lon="4.866596412835444"><ele>50.0</ele><time>2026-04-15T15:26:34.999Z</time></trkpt><trkpt lat="50.962160503296225" lon="4.866989902769192"><ele>51.0</ele><time>2026-04-15T15:26:35.999Z</time></trkpt><trkpt lat="50.962133214659616" lon="4.86737600588709"><ele>51.33333333333333</ele><time>2026-04-15T15:26:36.999Z</time></trkpt><trkpt lat="50.96210947389885" lon="4.867730671215981"><ele>51.666666666666664</ele><time>2026-04-15T15:26:37.999Z</time></trkpt><trkpt lat="50.96208950100057" lon="4.868051639071612"><ele>52.0</ele><time>2026-04-15T15:26:38.999Z</time></trkpt><trkpt lat="50.96207155887764" lon="4.86834028247965"><ele>52.666666666666664</ele><time>2026-04-15T15:26:39.999Z</time></trkpt><trkpt lat="50.96205467778486" lon="4.8686179517386785"><ele>53.33333333333333</ele><time>2026-04-15T15:26:40.999Z</time></trkpt><trkpt lat="50.96203626629311" lon="4.868859554307893"><ele>54.0</ele><time>2026-04-15T15:26:41.999Z</time></trkpt><trkpt lat="50.96202113465424" lon="4.869069719251287"><ele>54.0</ele><time>2026-04-15T15:26:42.999Z</time></trkpt><trkpt lat="50.96201773229336" lon="4.869244558641363"><ele>54.0</ele><time>2026-04-15T15:26:43.999Z</time></trkpt><trkpt lat="50.96204382846922" lon="4.869383312542739"><ele>54.0</ele><time>2026-04-15T15:26:44.999Z</time></trkpt><trkpt lat="50.96209037532362" lon="4.8694794460293345"><ele>54.0</ele><time>2026-04-15T15:26:45.999Z</time></trkpt><trkpt lat="50.96213740574492" lon="4.86956804250606"><ele>54.0</ele><time>2026-04-15T15:26:46.999Z</time></trkpt><trkpt lat="50.962182757047906" lon="4.869666759751287"><ele>54.0</ele><time>2026-04-15T15:26:48.999Z</time></trkpt><trkpt lat="50.96225824329112" lon="4.869669600840731"><ele>54.400000000000006</ele><time>2026-04-15T15:26:50.999Z</time></trkpt><trkpt lat="50.96233406604567" lon="4.869627179169143"><ele>54.800000000000004</ele><time>2026-04-15T15:26:51.999Z</time></trkpt><trkpt lat="50.96242676183566" lon="4.869599436783081"><ele>55.199999999999996</ele><time>2026-04-15T15:26:52.999Z</time></trkpt><trkpt lat="50.96254036048501" lon="4.86958540636773"><ele>55.599999999999994</ele><time>2026-04-15T15:26:53.999Z</time></trkpt><trkpt lat="50.96265571606246" lon="4.869567512557796"><ele>56.0</ele><time>2026-04-15T15:26:54.999Z</time></trkpt><trkpt lat="50.96278260438753" lon="4.869528955552802"><ele>56.25</ele><time>2026-04-15T15:26:55.999Z</time></trkpt><trkpt lat="50.96291685494602" lon="4.869483968993839"><ele>56.5</ele><time>2026-04-15T15:26:56.999Z</time></trkpt><trkpt lat="50.963062602929966" lon="4.869429218827299"><ele>56.75</ele><time>2026-04-15T15:26:57.999Z</time></trkpt><trkpt lat="50.96320977903623" lon="4.8693754185405975"><ele>57.0</ele><time>2026-04-15T15:26:58.999Z</time></trkpt><trkpt lat="50.96335932102829" lon="4.869322174300321"><ele>57.33333333333333</ele><time>2026-04-15T15:26:59.999Z</time></trkpt><trkpt lat="50.96351484935599" lon="4.869266116942404"><ele>57.666666666666664</ele><time>2026-04-15T15:27:00.999Z</time></trkpt><trkpt lat="50.963676132923865" lon="4.869212207349773"><ele>58.0</ele><time>2026-04-15T15:27:01.999Z</time></trkpt><trkpt lat="50.9638236440357" lon="4.869161288918423"><ele>58.0</ele><time>2026-04-15T15:27:02.999Z</time></trkpt><trkpt lat="50.96395546106461" lon="4.869112901089235"><ele>58.0</ele><time>2026-04-15T15:27:03.999Z</time></trkpt><trkpt lat="50.964073865035424" lon="4.8690669360088386"><ele>58.0</ele><time>2026-04-15T15:27:04.999Z</time></trkpt><trkpt lat="50.96416989211362" lon="4.869028499942502"><ele>58.0</ele><time>2026-04-15T15:27:05.999Z</time></trkpt><trkpt lat="50.964241412401286" lon="4.869001223641077"><ele>58.0</ele><time>2026-04-15T15:27:06.998Z</time></trkpt><trkpt lat="50.964305832985254" lon="4.868988830869764"><ele>58.0</ele><time>2026-04-15T15:27:07.998Z</time></trkpt><trkpt lat="50.96437420676412" lon="4.869008496177036"><ele>58.0</ele><time>2026-04-15T15:27:08.998Z</time></trkpt><trkpt lat="50.96444284537882" lon="4.868998389977529"><ele>58.0</ele><time>2026-04-15T15:27:10.998Z</time></trkpt><trkpt lat="50.96445439322323" lon="4.869369314006169"><ele>58.0</ele><time>2026-04-15T15:27:12Z</time></trkpt><trkpt lat="50.96445659666995" lon="4.869536731302402"><ele>58.25</ele><time>2026-04-15T15:27:13Z</time></trkpt><trkpt lat="50.96446749024231" lon="4.86970763874943"><ele>58.5</ele><time>2026-04-15T15:27:14Z</time></trkpt><trkpt lat="50.96447224171762" lon="4.869896381095007"><ele>58.75</ele><time>2026-04-15T15:27:15Z</time></trkpt><trkpt lat="50.96447391203771" lon="4.870111856816532"><ele>59.0</ele><time>2026-04-15T15:27:16Z</time></trkpt><trkpt lat="50.96447812823014" lon="4.870341655759933"><ele>59.66666666666667</ele><time>2026-04-15T15:27:17Z</time></trkpt><trkpt lat="50.9644830391407" lon="4.8705888657870045"><ele>60.33333333333333</ele><time>2026-04-15T15:27:18Z</time></trkpt><trkpt lat="50.96448800470758" lon="4.870838971266728"><ele>61.0</ele><time>2026-04-15T15:27:19Z</time></trkpt><trkpt lat="50.96449405960012" lon="4.8710987506963"><ele>61.33333333333333</ele><time>2026-04-15T15:27:20Z</time></trkpt><trkpt lat="50.96450421624459" lon="4.871374991786563"><ele>61.66666666666667</ele><time>2026-04-15T15:27:21Z</time></trkpt><trkpt lat="50.964521533313494" lon="4.8716605900975685"><ele>62.0</ele><time>2026-04-15T15:27:22Z</time></trkpt><trkpt lat="50.9645518215551" lon="4.871951833870762"><ele>62.333333333333336</ele><time>2026-04-15T15:27:23Z</time></trkpt><trkpt lat="50.96459524411653" lon="4.872251448323864"><ele>62.66666666666667</ele><time>2026-04-15T15:27:24Z</time></trkpt><trkpt lat="50.9646464366891" lon="4.872535060826141"><ele>63.0</ele><time>2026-04-15T15:27:25Z</time></trkpt><trkpt lat="50.96471332082638" lon="4.872816936593055"><ele>63.66666666666667</ele><time>2026-04-15T15:27:26Z</time></trkpt><trkpt lat="50.96479649206626" lon="4.87308902638938"><ele>64.33333333333334</ele><time>2026-04-15T15:27:27Z</time></trkpt><trkpt lat="50.964887002152864" lon="4.873347662667179"><ele>65.0</ele><time>2026-04-15T15:27:28Z</time></trkpt><trkpt lat="50.96498453595953" lon="4.873604874642775"><ele>65.66666666666667</ele><time>2026-04-15T15:27:29Z</time></trkpt><trkpt lat="50.96508113380718" lon="4.8738446540333875"><ele>66.33333333333333</ele><time>2026-04-15T15:27:30Z</time></trkpt><trkpt lat="50.96518719368684" lon="4.874091140128762"><ele>67.0</ele><time>2026-04-15T15:27:31Z</time></trkpt><trkpt lat="50.96529118010066" lon="4.874329848944319"><ele>65.66666666666666</ele><time>2026-04-15T15:27:32Z</time></trkpt><trkpt lat="50.965398566758246" lon="4.874580479751352"><ele>64.33333333333333</ele><time>2026-04-15T15:27:33Z</time></trkpt><trkpt lat="50.96550281462606" lon="4.874833723157466"><ele>63.0</ele><time>2026-04-15T15:27:34Z</time></trkpt><trkpt lat="50.965608679255695" lon="4.875085552328494"><ele>62.0</ele><time>2026-04-15T15:27:35Z</time></trkpt><trkpt lat="50.965704492328655" lon="4.875311603507803"><ele>61.0</ele><time>2026-04-15T15:27:36Z</time></trkpt><trkpt lat="50.96580695959582" lon="4.875547394905063"><ele>60.0</ele><time>2026-04-15T15:27:37Z</time></trkpt><trkpt lat="50.965903281470844" lon="4.875772440616153"><ele>59.33333333333333</ele><time>2026-04-15T15:27:38Z</time></trkpt><trkpt lat="50.96599814417277" lon="4.876005078173501"><ele>58.666666666666664</ele><time>2026-04-15T15:27:39Z</time></trkpt><trkpt lat="50.96608932706797" lon="4.876233965409546"><ele>58.0</ele><time>2026-04-15T15:27:40Z</time></trkpt><trkpt lat="50.96617437812858" lon="4.8764592567117155"><ele>58.0</ele><time>2026-04-15T15:27:41Z</time></trkpt><trkpt lat="50.96623498948049" lon="4.876680166639315"><ele>58.0</ele><time>2026-04-15T15:27:42Z</time></trkpt><trkpt lat="50.966299134833136" lon="4.87688559992846"><ele>58.0</ele><time>2026-04-15T15:27:43Z</time></trkpt><trkpt lat="50.96635725198426" lon="4.877072784999446"><ele>58.0</ele><time>2026-04-15T15:27:44Z</time></trkpt><trkpt lat="50.96640860065158" lon="4.877237157133863"><ele>58.0</ele><time>2026-04-15T15:27:45Z</time></trkpt><trkpt lat="50.96647855191023" lon="4.877397248576067"><ele>58.0</ele><time>2026-04-15T15:27:46Z</time></trkpt><trkpt lat="50.96651574510058" lon="4.877535884748094"><ele>58.0</ele><time>2026-04-15T15:27:47Z</time></trkpt><trkpt lat="50.966553561293765" lon="4.877642838089934"><ele>58.0</ele><time>2026-04-15T15:27:48Z</time></trkpt><trkpt lat="50.96657911776524" lon="4.8778122269377455"><ele>58.0</ele><time>2026-04-15T15:27:50Z</time></trkpt><trkpt lat="50.96640626579092" lon="4.8779373374606"><ele>57.5</ele><time>2026-04-15T15:27:52Z</time></trkpt><trkpt lat="50.96630386099175" lon="4.877953176023286"><ele>57.0</ele><time>2026-04-15T15:27:53Z</time></trkpt><trkpt lat="50.96618251878881" lon="4.877990780653919"><ele>56.5</ele><time>2026-04-15T15:27:54Z</time></trkpt><trkpt lat="50.966063483023156" lon="4.878035994258385"><ele>56.0</ele><time>2026-04-15T15:27:55Z</time></trkpt><trkpt lat="50.96592983100297" lon="4.878091261559533"><ele>55.0</ele><time>2026-04-15T15:27:56Z</time></trkpt><trkpt lat="50.96578820521785" lon="4.878175872010885"><ele>54.0</ele><time>2026-04-15T15:27:57Z</time></trkpt><trkpt lat="50.96563757515714" lon="4.878223793491549"><ele>53.0</ele><time>2026-04-15T15:27:58Z</time></trkpt><trkpt lat="50.965487053260084" lon="4.878279680338747"><ele>53.0</ele><time>2026-04-15T15:27:59Z</time></trkpt><trkpt lat="50.96533358527043" lon="4.878334159858632"><ele>53.0</ele><time>2026-04-15T15:28:00Z</time></trkpt><trkpt lat="50.9651708562566" lon="4.8783848775843675"><ele>53.0</ele><time>2026-04-15T15:28:01Z</time></trkpt><trkpt lat="50.96499976425881" lon="4.878445799973179"><ele>52.66666666666667</ele><time>2026-04-15T15:28:02Z</time></trkpt><trkpt lat="50.96483636004437" lon="4.878510678253615"><ele>52.33333333333333</ele><time>2026-04-15T15:28:03Z</time></trkpt><trkpt lat="50.964668422561324" lon="4.878545150350596"><ele>52.0</ele><time>2026-04-15T15:28:04Z</time></trkpt><trkpt lat="50.964502545263024" lon="4.878602573809422"><ele>52.0</ele><time>2026-04-15T15:28:05Z</time></trkpt><trkpt lat="50.964341099006155" lon="4.878661783674798"><ele>52.0</ele><time>2026-04-15T15:28:06Z</time></trkpt><trkpt lat="50.96419511345745" lon="4.878718660785583"><ele>52.0</ele><time>2026-04-15T15:28:07Z</time></trkpt><trkpt lat="50.96404645410536" lon="4.8787729351629405"><ele>51.75</ele><time>2026-04-15T15:28:08Z</time></trkpt><trkpt lat="50.96390774860836" lon="4.878821432827281"><ele>51.5</ele><time>2026-04-15T15:28:09Z</time></trkpt><trkpt lat="50.963777242171325" lon="4.878894163212926"><ele>51.25</ele><time>2026-04-15T15:28:09.999Z</time></trkpt><trkpt lat="50.96363717177653" lon="4.878917257015725"><ele>51.0</ele><time>2026-04-15T15:28:10.999Z</time></trkpt><trkpt lat="50.96349641690252" lon="4.878967561637277"><ele>51.25</ele><time>2026-04-15T15:28:11.999Z</time></trkpt><trkpt lat="50.96335824919865" lon="4.879043129929824"><ele>51.5</ele><time>2026-04-15T15:28:12.999Z</time></trkpt><trkpt lat="50.96320971665067" lon="4.879090217599946"><ele>51.75</ele><time>2026-04-15T15:28:13.999Z</time></trkpt><trkpt lat="50.96306832872539" lon="4.879145865318738"><ele>52.0</ele><time>2026-04-15T15:28:14.999Z</time></trkpt><trkpt lat="50.96293806114855" lon="4.879168631515452"><ele>52.0</ele><time>2026-04-15T15:28:15.999Z</time></trkpt><trkpt lat="50.962818476744395" lon="4.8792124910570625"><ele>52.0</ele><time>2026-04-15T15:28:16.999Z</time></trkpt><trkpt lat="50.96268285447908" lon="4.879263119105004"><ele>52.0</ele><time>2026-04-15T15:28:17.999Z</time></trkpt><trkpt lat="50.96253669180986" lon="4.8793199601486155"><ele>52.0</ele><time>2026-04-15T15:28:18.999Z</time></trkpt><trkpt lat="50.96239396509397" lon="4.879407159146326"><ele>52.0</ele><time>2026-04-15T15:28:19.999Z</time></trkpt><trkpt lat="50.96224136196209" lon="4.879435675454873"><ele>52.0</ele><time>2026-04-15T15:28:20.999Z</time></trkpt><trkpt lat="50.96210993476483" lon="4.879486166533027"><ele>52.0</ele><time>2026-04-15T15:28:21.999Z</time></trkpt><trkpt lat="50.96197734197126" lon="4.8795367287966736"><ele>52.0</ele><time>2026-04-15T15:28:22.999Z</time></trkpt><trkpt lat="50.96184552218779" lon="4.879586996320999"><ele>52.0</ele><time>2026-04-15T15:28:23.999Z</time></trkpt><trkpt lat="50.96171942088017" lon="4.87963106240852"><ele>52.0</ele><time>2026-04-15T15:28:24.999Z</time></trkpt><trkpt lat="50.96161969852732" lon="4.879664367861592"><ele>52.0</ele><time>2026-04-15T15:28:25.999Z</time></trkpt><trkpt lat="50.961524905768755" lon="4.879695650802142"><ele>52.0</ele><time>2026-04-15T15:28:26.999Z</time></trkpt><trkpt lat="50.96143862227598" lon="4.879724125536245"><ele>52.0</ele><time>2026-04-15T15:28:27.999Z</time></trkpt><trkpt lat="50.961353984472474" lon="4.879752057183907"><ele>51.8</ele><time>2026-04-15T15:28:28.999Z</time></trkpt><trkpt lat="50.961255969300744" lon="4.879796415190556"><ele>51.6</ele><time>2026-04-15T15:28:29.999Z</time></trkpt><trkpt lat="50.961198537380525" lon="4.8799393090360255"><ele>51.4</ele><time>2026-04-15T15:28:30.999Z</time></trkpt><trkpt lat="50.96120245734744" lon="4.880117293233433"><ele>51.199999999999996</ele><time>2026-04-15T15:28:31.999Z</time></trkpt><trkpt lat="50.9612077941679" lon="4.8802801530802915"><ele>51.0</ele><time>2026-04-15T15:28:32.999Z</time></trkpt><trkpt lat="50.96118978573903" lon="4.880468690947981"><ele>51.0</ele><time>2026-04-15T15:28:33.999Z</time></trkpt><trkpt lat="50.96118645059588" lon="4.8806767269957545"><ele>51.0</ele><time>2026-04-15T15:28:34.999Z</time></trkpt><trkpt lat="50.961170569484786" lon="4.880892680182811"><ele>51.0</ele><time>2026-04-15T15:28:35.999Z</time></trkpt><trkpt lat="50.961150965064306" lon="4.881128564854486"><ele>51.0</ele><time>2026-04-15T15:28:36.999Z</time></trkpt><trkpt lat="50.961124034802225" lon="4.881369822810877"><ele>51.0</ele><time>2026-04-15T15:28:37.999Z</time></trkpt><trkpt lat="50.96110314858204" lon="4.88163463165546"><ele>51.0</ele><time>2026-04-15T15:28:38.999Z</time></trkpt><trkpt lat="50.96108880045792" lon="4.881888750323425"><ele>51.0</ele><time>2026-04-15T15:28:39.999Z</time></trkpt><trkpt lat="50.961071126969195" lon="4.8821230798912945"><ele>50.75</ele><time>2026-04-15T15:28:40.999Z</time></trkpt><trkpt lat="50.961058431857914" lon="4.882333027837783"><ele>50.5</ele><time>2026-04-15T15:28:41.999Z</time></trkpt><trkpt lat="50.96104032085857" lon="4.882543903745296"><ele>50.25</ele><time>2026-04-15T15:28:42.999Z</time></trkpt><trkpt lat="50.96103110830769" lon="4.882747928327772"><ele>50.0</ele><time>2026-04-15T15:28:43.999Z</time></trkpt><trkpt lat="50.96101926204418" lon="4.882942384374658"><ele>51.25</ele><time>2026-04-15T15:28:44.999Z</time></trkpt><trkpt lat="50.96098831968464" lon="4.883139674172468"><ele>52.5</ele><time>2026-04-15T15:28:45.999Z</time></trkpt><trkpt lat="50.960973604064684" lon="4.883351326503301"><ele>53.75</ele><time>2026-04-15T15:28:46.999Z</time></trkpt><trkpt lat="50.960959059808225" lon="4.883571012550113"><ele>55.0</ele><time>2026-04-15T15:28:47.999Z</time></trkpt><trkpt lat="50.96094180757488" lon="4.883811492597561"><ele>56.666666666666664</ele><time>2026-04-15T15:28:48.999Z</time></trkpt><trkpt lat="50.96092369356845" lon="4.884062462318866"><ele>58.33333333333333</ele><time>2026-04-15T15:28:49.999Z</time></trkpt><trkpt lat="50.960904724398745" lon="4.884329497031688"><ele>60.0</ele><time>2026-04-15T15:28:50.999Z</time></trkpt><trkpt lat="50.9608988858621" lon="4.8846191703145365"><ele>60.66666666666667</ele><time>2026-04-15T15:28:51.999Z</time></trkpt><trkpt lat="50.96087577331399" lon="4.884924317573431"><ele>61.333333333333336</ele><time>2026-04-15T15:28:52.999Z</time></trkpt><trkpt lat="50.960857175818816" lon="4.8852743661773825"><ele>62.0</ele><time>2026-04-15T15:28:53.999Z</time></trkpt><trkpt lat="50.960832669116584" lon="4.885655177188653"><ele>56.0</ele><time>2026-04-15T15:28:54.999Z</time></trkpt><trkpt lat="50.96080414086543" lon="4.886054389937086"><ele>50.0</ele><time>2026-04-15T15:28:55.999Z</time></trkpt><trkpt lat="50.960775281735884" lon="4.886483160729205"><ele>49.0</ele><time>2026-04-15T15:28:56.999Z</time></trkpt><trkpt lat="50.96074628132146" lon="4.886918923555182"><ele>48.0</ele><time>2026-04-15T15:28:57.999Z</time></trkpt><trkpt lat="50.96071579738127" lon="4.887374081062407"><ele>47.5</ele><time>2026-04-15T15:28:58.999Z</time></trkpt><trkpt lat="50.960690757471774" lon="4.887822558675597"><ele>47.0</ele><time>2026-04-15T15:28:59.999Z</time></trkpt><trkpt lat="50.96066643622789" lon="4.8882882091373165"><ele>47.0</ele><time>2026-04-15T15:29:00.999Z</time></trkpt><trkpt lat="50.96064013350671" lon="4.888748670619174"><ele>47.0</ele><time>2026-04-15T15:29:01.999Z</time></trkpt><trkpt lat="50.96061778769009" lon="4.889152824727247"><ele>46.5</ele><time>2026-04-15T15:29:02.999Z</time></trkpt><trkpt lat="50.96059699205429" lon="4.889519990224343"><ele>46.0</ele><time>2026-04-15T15:29:03.999Z</time></trkpt><trkpt lat="50.96057621085167" lon="4.889875735324501"><ele>44.66666666666667</ele><time>2026-04-15T15:29:04.999Z</time></trkpt><trkpt lat="50.96055432318918" lon="4.8902159669744005"><ele>43.333333333333336</ele><time>2026-04-15T15:29:05.998Z</time></trkpt><trkpt lat="50.96054270458992" lon="4.890567385987228"><ele>42.0</ele><time>2026-04-15T15:29:06.998Z</time></trkpt><trkpt lat="50.96054148414549" lon="4.890926429401882"><ele>38.5</ele><time>2026-04-15T15:29:07.998Z</time></trkpt><trkpt lat="50.960543871341685" lon="4.891292188819225"><ele>35.0</ele><time>2026-04-15T15:29:08.998Z</time></trkpt><trkpt lat="50.9605414630101" lon="4.891666675450861"><ele>33.0</ele><time>2026-04-15T15:29:09.998Z</time></trkpt><trkpt lat="50.96053551308941" lon="4.892023339262288"><ele>31.0</ele><time>2026-04-15T15:29:10.998Z</time></trkpt><trkpt lat="50.960521957025904" lon="4.8923953002333915"><ele>29.5</ele><time>2026-04-15T15:29:11.998Z</time></trkpt><trkpt lat="50.96050088602025" lon="4.892775520872046"><ele>28.0</ele><time>2026-04-15T15:29:12.998Z</time></trkpt><trkpt lat="50.96048209528516" lon="4.89316589415843"><ele>27.5</ele><time>2026-04-15T15:29:13.998Z</time></trkpt><trkpt lat="50.96047250392964" lon="4.893546571016025"><ele>27.0</ele><time>2026-04-15T15:29:14.998Z</time></trkpt><trkpt lat="50.960460893742024" lon="4.893947794437731"><ele>27.0</ele><time>2026-04-15T15:29:15.998Z</time></trkpt><trkpt lat="50.960437718223766" lon="4.89434886376321"><ele>27.0</ele><time>2026-04-15T15:29:16.998Z</time></trkpt><trkpt lat="50.96042812358603" lon="4.894752831368208"><ele>26.0</ele><time>2026-04-15T15:29:18Z</time></trkpt><trkpt lat="50.960430435468204" lon="4.895170825691224"><ele>25.0</ele><time>2026-04-15T15:29:19Z</time></trkpt><trkpt lat="50.96041975125568" lon="4.895573476699865"><ele>23.5</ele><time>2026-04-15T15:29:20Z</time></trkpt><trkpt lat="50.960407178405546" lon="4.895977002487985"><ele>22.0</ele><time>2026-04-15T15:29:21Z</time></trkpt><trkpt lat="50.96039121410842" lon="4.896385198859487"><ele>21.0</ele><time>2026-04-15T15:29:22Z</time></trkpt><trkpt lat="50.9603835595229" lon="4.896778433102522"><ele>20.0</ele><time>2026-04-15T15:29:23Z</time></trkpt><trkpt lat="50.96037773681179" lon="4.897158495911595"><ele>20.0</ele><time>2026-04-15T15:29:24Z</time></trkpt><trkpt lat="50.96037142996613" lon="4.897544734478716"><ele>20.0</ele><time>2026-04-15T15:29:25Z</time></trkpt><trkpt lat="50.960345038124075" lon="4.89790001906321"><ele>20.0</ele><time>2026-04-15T15:29:26Z</time></trkpt><trkpt lat="50.96035066188776" lon="4.89821093916113"><ele>20.0</ele><time>2026-04-15T15:29:27Z</time></trkpt><trkpt lat="50.96034080428613" lon="4.898466356303803"><ele>20.0</ele><time>2026-04-15T15:29:28Z</time></trkpt><trkpt lat="50.960335656546086" lon="4.898670839723321"><ele>20.0</ele><time>2026-04-15T15:29:29Z</time></trkpt><trkpt lat="50.96031353300378" lon="4.898837589911954"><ele>20.0</ele><time>2026-04-15T15:29:30Z</time></trkpt><trkpt lat="50.96030892651102" lon="4.898961165517531"><ele>20.0</ele><time>2026-04-15T15:29:31Z</time></trkpt><trkpt lat="50.96030412304468" lon="4.89909002516875"><ele>20.0</ele><time>2026-04-15T15:29:33Z</time></trkpt><trkpt lat="50.960298012693485" lon="4.8992539443310505"><ele>20.0</ele><time>2026-04-15T15:29:43Z</time></trkpt><trkpt lat="50.96029374330142" lon="4.8993684776963295"><ele>20.0</ele><time>2026-04-15T15:29:44Z</time></trkpt><trkpt lat="50.96028846343651" lon="4.899510118687108"><ele>20.0</ele><time>2026-04-15T15:29:45Z</time></trkpt><trkpt lat="50.96029638721828" lon="4.899692183997724"><ele>20.0</ele><time>2026-04-15T15:29:46Z</time></trkpt><trkpt lat="50.96028658793065" lon="4.899875800529322"><ele>20.0</ele><time>2026-04-15T15:29:47Z</time></trkpt><trkpt lat="50.96027860414543" lon="4.900074453288342"><ele>20.0</ele><time>2026-04-15T15:29:48Z</time></trkpt><trkpt lat="50.960278473745674" lon="4.900307289568348"><ele>21.0</ele><time>2026-04-15T15:29:49Z</time></trkpt><trkpt lat="50.96026914071278" lon="4.900568501018625"><ele>22.0</ele><time>2026-04-15T15:29:50Z</time></trkpt><trkpt lat="50.960259319921185" lon="4.900827813381112"><ele>23.0</ele><time>2026-04-15T15:29:51Z</time></trkpt><trkpt lat="50.960249629366125" lon="4.901096957305213"><ele>23.666666666666668</ele><time>2026-04-15T15:29:52Z</time></trkpt><trkpt lat="50.9602395959688" lon="4.901370949633777"><ele>24.333333333333336</ele><time>2026-04-15T15:29:53Z</time></trkpt><trkpt lat="50.9602297153764" lon="4.901649414616758"><ele>25.0</ele><time>2026-04-15T15:29:54Z</time></trkpt><trkpt lat="50.96021892513544" lon="4.901941318584621"><ele>25.0</ele><time>2026-04-15T15:29:55Z</time></trkpt><trkpt lat="50.96021175134949" lon="4.9022187447407415"><ele>25.0</ele><time>2026-04-15T15:29:56Z</time></trkpt><trkpt lat="50.96020072739159" lon="4.902493302538277"><ele>25.0</ele><time>2026-04-15T15:29:57Z</time></trkpt><trkpt lat="50.96018964884564" lon="4.9027443674256475"><ele>25.666666666666668</ele><time>2026-04-15T15:29:58Z</time></trkpt><trkpt lat="50.96017325411544" lon="4.902999789380534"><ele>26.333333333333336</ele><time>2026-04-15T15:29:59Z</time></trkpt><trkpt lat="50.96014550607547" lon="4.903247966332191"><ele>27.0</ele><time>2026-04-15T15:30:00Z</time></trkpt><trkpt lat="50.96011399200537" lon="4.903491393700478"><ele>28.0</ele><time>2026-04-15T15:30:01Z</time></trkpt><trkpt lat="50.96009149642907" lon="4.903741726198474"><ele>29.0</ele><time>2026-04-15T15:30:02Z</time></trkpt><trkpt lat="50.960087342507755" lon="4.904001374998518"><ele>30.0</ele><time>2026-04-15T15:30:03Z</time></trkpt><trkpt lat="50.960076969901685" lon="4.904260298323328"><ele>30.333333333333336</ele><time>2026-04-15T15:30:04Z</time></trkpt><trkpt lat="50.96005240617398" lon="4.9045291833318885"><ele>30.666666666666668</ele><time>2026-04-15T15:30:05Z</time></trkpt><trkpt lat="50.960041143109265" lon="4.904810086874519"><ele>31.0</ele><time>2026-04-15T15:30:06Z</time></trkpt><trkpt lat="50.96003031922848" lon="4.905100875604716"><ele>29.333333333333336</ele><time>2026-04-15T15:30:07Z</time></trkpt><trkpt lat="50.96003286376002" lon="4.905368766967157"><ele>27.666666666666664</ele><time>2026-04-15T15:30:08Z</time></trkpt><trkpt lat="50.96000796575918" lon="4.905640548671945"><ele>26.0</ele><time>2026-04-15T15:30:09Z</time></trkpt><trkpt lat="50.96000099641179" lon="4.905897942357659"><ele>26.666666666666664</ele><time>2026-04-15T15:30:10Z</time></trkpt><trkpt lat="50.959999593249364" lon="4.906198893262227"><ele>27.333333333333336</ele><time>2026-04-15T15:30:11Z</time></trkpt><trkpt lat="50.95997013964526" lon="4.906476442714977"><ele>28.0</ele><time>2026-04-15T15:30:12Z</time></trkpt><trkpt lat="50.95995702911074" lon="4.906751034091566"><ele>28.333333333333336</ele><time>2026-04-15T15:30:13Z</time></trkpt><trkpt lat="50.95995997912782" lon="4.907026181166557"><ele>28.666666666666664</ele><time>2026-04-15T15:30:13.999Z</time></trkpt><trkpt lat="50.959949734281736" lon="4.907305740389805"><ele>29.0</ele><time>2026-04-15T15:30:14.999Z</time></trkpt><trkpt lat="50.9599342952443" lon="4.907584221681431"><ele>29.333333333333332</ele><time>2026-04-15T15:30:15.999Z</time></trkpt><trkpt lat="50.95992127906043" lon="4.907853124049207"><ele>29.666666666666664</ele><time>2026-04-15T15:30:16.999Z</time></trkpt><trkpt lat="50.95990768934665" lon="4.908112558269156"><ele>30.0</ele><time>2026-04-15T15:30:17.999Z</time></trkpt><trkpt lat="50.95989387634318" lon="4.908364171103189"><ele>30.666666666666664</ele><time>2026-04-15T15:30:18.999Z</time></trkpt><trkpt lat="50.959878826802566" lon="4.908626685551691"><ele>31.333333333333332</ele><time>2026-04-15T15:30:19.999Z</time></trkpt><trkpt lat="50.95986409206638" lon="4.9088958866069925"><ele>32.0</ele><time>2026-04-15T15:30:20.999Z</time></trkpt><trkpt lat="50.959856848120126" lon="4.9091708689938125"><ele>32.0</ele><time>2026-04-15T15:30:21.999Z</time></trkpt><trkpt lat="50.95983976421243" lon="4.909449641290491"><ele>32.0</ele><time>2026-04-15T15:30:22.999Z</time></trkpt><trkpt lat="50.95981106004624" lon="4.90972649139716"><ele>32.0</ele><time>2026-04-15T15:30:23.999Z</time></trkpt><trkpt lat="50.95979297128758" lon="4.910010564983519"><ele>30.666666666666664</ele><time>2026-04-15T15:30:24.999Z</time></trkpt><trkpt lat="50.959774027447814" lon="4.910296789328679"><ele>29.333333333333336</ele><time>2026-04-15T15:30:25.999Z</time></trkpt><trkpt lat="50.959750322974074" lon="4.910592743705151"><ele>28.0</ele><time>2026-04-15T15:30:26.999Z</time></trkpt><trkpt lat="50.959729007739746" lon="4.91088520511107"><ele>28.0</ele><time>2026-04-15T15:30:27.999Z</time></trkpt><trkpt lat="50.95971129358152" lon="4.9111833219192365"><ele>28.0</ele><time>2026-04-15T15:30:28.999Z</time></trkpt><trkpt lat="50.95969080562067" lon="4.91147919768939"><ele>28.0</ele><time>2026-04-15T15:30:29.999Z</time></trkpt><trkpt lat="50.959666245083675" lon="4.911775233042977"><ele>28.0</ele><time>2026-04-15T15:30:30.999Z</time></trkpt><trkpt lat="50.95964020724164" lon="4.9120687297266254"><ele>28.0</ele><time>2026-04-15T15:30:31.999Z</time></trkpt><trkpt lat="50.95961468156466" lon="4.912366797971241"><ele>28.0</ele><time>2026-04-15T15:30:32.999Z</time></trkpt><trkpt lat="50.95958251761187" lon="4.912674314637782"><ele>29.0</ele><time>2026-04-15T15:30:33.999Z</time></trkpt><trkpt lat="50.95955049994681" lon="4.9129721133369335"><ele>30.0</ele><time>2026-04-15T15:30:34.999Z</time></trkpt><trkpt lat="50.95951996727325" lon="4.913249872135665"><ele>31.0</ele><time>2026-04-15T15:30:35.999Z</time></trkpt><trkpt lat="50.95948976447621" lon="4.913511121795244"><ele>32.0</ele><time>2026-04-15T15:30:36.999Z</time></trkpt><trkpt lat="50.95946110269446" lon="4.913772971780643"><ele>33.0</ele><time>2026-04-15T15:30:37.999Z</time></trkpt><trkpt lat="50.959442389416246" lon="4.914037935490357"><ele>34.0</ele><time>2026-04-15T15:30:38.999Z</time></trkpt><trkpt lat="50.95941590925439" lon="4.914288855731676"><ele>34.66666666666667</ele><time>2026-04-15T15:30:39.999Z</time></trkpt><trkpt lat="50.95939689344584" lon="4.914547739104426"><ele>35.333333333333336</ele><time>2026-04-15T15:30:40.999Z</time></trkpt><trkpt lat="50.95934730158619" lon="4.914804221912224"><ele>36.0</ele><time>2026-04-15T15:30:41.999Z</time></trkpt><trkpt lat="50.95931339674287" lon="4.915053783144289"><ele>37.666666666666664</ele><time>2026-04-15T15:30:42.999Z</time></trkpt><trkpt lat="50.95929403118286" lon="4.915308868432362"><ele>39.33333333333333</ele><time>2026-04-15T15:30:43.999Z</time></trkpt><trkpt lat="50.95924528464546" lon="4.915556490936213"><ele>41.0</ele><time>2026-04-15T15:30:44.999Z</time></trkpt><trkpt lat="50.95921055109162" lon="4.915812044507331"><ele>42.33333333333333</ele><time>2026-04-15T15:30:45.999Z</time></trkpt><trkpt lat="50.95917573511276" lon="4.9160749753192885"><ele>43.666666666666664</ele><time>2026-04-15T15:30:46.999Z</time></trkpt><trkpt lat="50.959174674971976" lon="4.916345522510714"><ele>45.0</ele><time>2026-04-15T15:30:47.999Z</time></trkpt><trkpt lat="50.95916124110942" lon="4.9166164125749665"><ele>46.66666666666667</ele><time>2026-04-15T15:30:48.999Z</time></trkpt><trkpt lat="50.959164982032114" lon="4.91686821795405"><ele>48.333333333333336</ele><time>2026-04-15T15:30:49.999Z</time></trkpt><trkpt lat="50.95917748690721" lon="4.917115509870152"><ele>50.0</ele><time>2026-04-15T15:30:50.999Z</time></trkpt><trkpt lat="50.95917254598094" lon="4.917329984622698"><ele>50.0</ele><time>2026-04-15T15:30:51.999Z</time></trkpt><trkpt lat="50.95915827688876" lon="4.9175567941707135"><ele>50.0</ele><time>2026-04-15T15:30:52.999Z</time></trkpt><trkpt lat="50.95914404224859" lon="4.917783184169136"><ele>50.0</ele><time>2026-04-15T15:30:53.999Z</time></trkpt><trkpt lat="50.95913972370238" lon="4.917997916731738"><ele>50.0</ele><time>2026-04-15T15:30:54.999Z</time></trkpt><trkpt lat="50.95913194224856" lon="4.918228630019461"><ele>50.333333333333336</ele><time>2026-04-15T15:30:55.999Z</time></trkpt><trkpt lat="50.95910149883858" lon="4.918460539300031"><ele>50.66666666666667</ele><time>2026-04-15T15:30:56.999Z</time></trkpt><trkpt lat="50.95907841564122" lon="4.918705680829984"><ele>51.0</ele><time>2026-04-15T15:30:57.999Z</time></trkpt><trkpt lat="50.959056958070875" lon="4.9189559840270345"><ele>51.0</ele><time>2026-04-15T15:30:58.999Z</time></trkpt><trkpt lat="50.95903659893673" lon="4.919210991589055"><ele>51.0</ele><time>2026-04-15T15:30:59.999Z</time></trkpt><trkpt lat="50.95901742202579" lon="4.919459563301455"><ele>51.0</ele><time>2026-04-15T15:31:00.999Z</time></trkpt><trkpt lat="50.95899726724019" lon="4.9197104542060535"><ele>51.66666666666667</ele><time>2026-04-15T15:31:01.999Z</time></trkpt><trkpt lat="50.958976319126705" lon="4.919971220656572"><ele>52.333333333333336</ele><time>2026-04-15T15:31:02.999Z</time></trkpt><trkpt lat="50.95895342693595" lon="4.9202355982817"><ele>53.0</ele><time>2026-04-15T15:31:03.999Z</time></trkpt><trkpt lat="50.95893040796202" lon="4.920496843356779"><ele>53.66666666666667</ele><time>2026-04-15T15:31:04.999Z</time></trkpt><trkpt lat="50.9589070504201" lon="4.920761937352759"><ele>54.33333333333333</ele><time>2026-04-15T15:31:05.999Z</time></trkpt><trkpt lat="50.95888522519195" lon="4.920997870837604"><ele>55.0</ele><time>2026-04-15T15:31:06.999Z</time></trkpt><trkpt lat="50.958865278936265" lon="4.9212042529381685"><ele>55.2</ele><time>2026-04-15T15:31:07.999Z</time></trkpt><trkpt lat="50.95884769037932" lon="4.921372864484165"><ele>55.4</ele><time>2026-04-15T15:31:08.998Z</time></trkpt><trkpt lat="50.95883823576666" lon="4.9215392086587775"><ele>55.599999999999994</ele><time>2026-04-15T15:31:09.998Z</time></trkpt><trkpt lat="50.95885567939937" lon="4.921702032341032"><ele>55.8</ele><time>2026-04-15T15:31:10.998Z</time></trkpt><trkpt lat="50.958878433936974" lon="4.921898583436157"><ele>56.0</ele><time>2026-04-15T15:31:11.998Z</time></trkpt><trkpt lat="50.95894992118815" lon="4.922094287889165"><ele>56.25</ele><time>2026-04-15T15:31:12.998Z</time></trkpt><trkpt lat="50.959007570163116" lon="4.922292295785548"><ele>56.5</ele><time>2026-04-15T15:31:13.998Z</time></trkpt><trkpt lat="50.959059349160036" lon="4.922483996781251"><ele>56.75</ele><time>2026-04-15T15:31:14.998Z</time></trkpt><trkpt lat="50.95909833263714" lon="4.922662532822826"><ele>57.0</ele><time>2026-04-15T15:31:15.998Z</time></trkpt><trkpt lat="50.95911431102933" lon="4.9228487970156944"><ele>57.0</ele><time>2026-04-15T15:31:16.998Z</time></trkpt><trkpt lat="50.95913112979793" lon="4.923052860191702"><ele>57.0</ele><time>2026-04-15T15:31:17.998Z</time></trkpt><trkpt lat="50.95914885678802" lon="4.923259329410249"><ele>57.0</ele><time>2026-04-15T15:31:18.998Z</time></trkpt><trkpt lat="50.95916837648041" lon="4.923445018761913"><ele>57.0</ele><time>2026-04-15T15:31:19.998Z</time></trkpt><trkpt lat="50.95920262612166" lon="4.923599831898839"><ele>56.0</ele><time>2026-04-15T15:31:20.998Z</time></trkpt><trkpt lat="50.959216836493674" lon="4.92373671787838"><ele>55.0</ele><time>2026-04-15T15:31:21.998Z</time></trkpt><trkpt lat="50.959224293010266" lon="4.923839467894263"><ele>54.0</ele><time>2026-04-15T15:31:22.998Z</time></trkpt><trkpt lat="50.959228219236955" lon="4.923960287495188"><ele>53.0</ele><time>2026-04-15T15:31:25Z</time></trkpt><trkpt lat="50.95924745444848" lon="4.924079391181799"><ele>52.0</ele><time>2026-04-15T15:31:28Z</time></trkpt><trkpt lat="50.95925301816498" lon="4.924294528615358"><ele>51.0</ele><time>2026-04-15T15:31:30Z</time></trkpt><trkpt lat="50.95926644787641" lon="4.92444422262287"><ele>50.75</ele><time>2026-04-15T15:31:31Z</time></trkpt><trkpt lat="50.959280538189304" lon="4.924601280005377"><ele>50.5</ele><time>2026-04-15T15:31:32Z</time></trkpt><trkpt lat="50.959297171529585" lon="4.9247835007565355"><ele>50.25</ele><time>2026-04-15T15:31:33Z</time></trkpt><trkpt lat="50.959315235151124" lon="4.924979539016419"><ele>50.0</ele><time>2026-04-15T15:31:34Z</time></trkpt><trkpt lat="50.959333809333835" lon="4.925188730333875"><ele>49.66666666666667</ele><time>2026-04-15T15:31:35Z</time></trkpt><trkpt lat="50.959352598392506" lon="4.92540991750438"><ele>49.33333333333333</ele><time>2026-04-15T15:31:36Z</time></trkpt><trkpt lat="50.95937306590879" lon="4.925655904054314"><ele>49.0</ele><time>2026-04-15T15:31:37Z</time></trkpt><trkpt lat="50.95939327858926" lon="4.925901199140047"><ele>48.666666666666664</ele><time>2026-04-15T15:31:38Z</time></trkpt><trkpt lat="50.95941519323649" lon="4.926156876717767"><ele>48.33333333333333</ele><time>2026-04-15T15:31:39Z</time></trkpt><trkpt lat="50.95944059246984" lon="4.926425903968226"><ele>48.0</ele><time>2026-04-15T15:31:40Z</time></trkpt><trkpt lat="50.959465582664755" lon="4.926692678611005"><ele>48.0</ele><time>2026-04-15T15:31:41Z</time></trkpt><trkpt lat="50.95948975818197" lon="4.926975832540296"><ele>48.0</ele><time>2026-04-15T15:31:42Z</time></trkpt><trkpt lat="50.95951774255222" lon="4.927252486936791"><ele>48.0</ele><time>2026-04-15T15:31:43Z</time></trkpt><trkpt lat="50.95956033579819" lon="4.927537014260107"><ele>48.0</ele><time>2026-04-15T15:31:44Z</time></trkpt><trkpt lat="50.959585762537365" lon="4.92781291758597"><ele>48.0</ele><time>2026-04-15T15:31:45Z</time></trkpt><trkpt lat="50.959591893234204" lon="4.928077867468106"><ele>48.0</ele><time>2026-04-15T15:31:46Z</time></trkpt><trkpt lat="50.95961309847949" lon="4.928325685254103"><ele>48.0</ele><time>2026-04-15T15:31:47Z</time></trkpt><trkpt lat="50.95963311646172" lon="4.928568529471799"><ele>48.0</ele><time>2026-04-15T15:31:48Z</time></trkpt><trkpt lat="50.9596582036176" lon="4.928803989343843"><ele>48.0</ele><time>2026-04-15T15:31:49Z</time></trkpt><trkpt lat="50.95969806036212" lon="4.9290223609412305"><ele>48.0</ele><time>2026-04-15T15:31:50Z</time></trkpt><trkpt lat="50.959722690033175" lon="4.929220927835828"><ele>48.25</ele><time>2026-04-15T15:31:51Z</time></trkpt><trkpt lat="50.959728241340144" lon="4.929414790109593"><ele>48.5</ele><time>2026-04-15T15:31:52Z</time></trkpt><trkpt lat="50.95974585142414" lon="4.929606918441646"><ele>48.75</ele><time>2026-04-15T15:31:53Z</time></trkpt><trkpt lat="50.95978613992155" lon="4.929774195685347"><ele>49.0</ele><time>2026-04-15T15:31:54Z</time></trkpt><trkpt lat="50.959808729393494" lon="4.9299394433178785"><ele>49.2</ele><time>2026-04-15T15:31:55Z</time></trkpt><trkpt lat="50.959879980247386" lon="4.9300905451458705"><ele>49.400000000000006</ele><time>2026-04-15T15:31:56Z</time></trkpt><trkpt lat="50.96001366030349" lon="4.9301230250764005"><ele>49.6</ele><time>2026-04-15T15:31:57Z</time></trkpt><trkpt lat="50.960108671748294" lon="4.930131658685464"><ele>49.8</ele><time>2026-04-15T15:31:58Z</time></trkpt><trkpt lat="50.960174590530876" lon="4.930163510751869"><ele>50.0</ele><time>2026-04-15T15:31:59Z</time></trkpt><trkpt lat="50.96022192591923" lon="4.930264048574876"><ele>50.0</ele><time>2026-04-15T15:32:00Z</time></trkpt><trkpt lat="50.96024553317219" lon="4.930404824434384"><ele>50.0</ele><time>2026-04-15T15:32:01Z</time></trkpt><trkpt lat="50.960207070558624" lon="4.930544506658275"><ele>50.0</ele><time>2026-04-15T15:32:02Z</time></trkpt><trkpt lat="50.96017685130279" lon="4.9306425131164655"><ele>50.0</ele><time>2026-04-15T15:32:03Z</time></trkpt><trkpt lat="50.95998000293897" lon="4.930688507569296"><ele>50.0</ele><time>2026-04-15T15:32:05Z</time></trkpt><trkpt lat="50.9598670379314" lon="4.930655543324947"><ele>50.0</ele><time>2026-04-15T15:32:06Z</time></trkpt><trkpt lat="50.959746178656076" lon="4.93063725896254"><ele>50.0</ele><time>2026-04-15T15:32:07Z</time></trkpt><trkpt lat="50.959611398198554" lon="4.930626739506061"><ele>50.0</ele><time>2026-04-15T15:32:08Z</time></trkpt><trkpt lat="50.959467078871064" lon="4.930609234314374"><ele>50.0</ele><time>2026-04-15T15:32:09Z</time></trkpt><trkpt lat="50.95932138477244" lon="4.93059486512657"><ele>50.0</ele><time>2026-04-15T15:32:10Z</time></trkpt><trkpt lat="50.959170519349584" lon="4.930580908512353"><ele>50.0</ele><time>2026-04-15T15:32:11Z</time></trkpt><trkpt lat="50.959013789063555" lon="4.930570817480571"><ele>49.66666666666667</ele><time>2026-04-15T15:32:12Z</time></trkpt><trkpt lat="50.95885027832929" lon="4.930561818885403"><ele>49.33333333333333</ele><time>2026-04-15T15:32:13Z</time></trkpt><trkpt lat="50.95867782810569" lon="4.9305554552419295"><ele>49.0</ele><time>2026-04-15T15:32:14Z</time></trkpt><trkpt lat="50.95850816849645" lon="4.930547501767415"><ele>49.666666666666664</ele><time>2026-04-15T15:32:15Z</time></trkpt><trkpt lat="50.95833638641958" lon="4.9305362517321205"><ele>50.33333333333333</ele><time>2026-04-15T15:32:16Z</time></trkpt><trkpt lat="50.958167776801155" lon="4.9305263748246535"><ele>51.0</ele><time>2026-04-15T15:32:17Z</time></trkpt><trkpt lat="50.95800768852408" lon="4.930516968037238"><ele>51.0</ele><time>2026-04-15T15:32:18Z</time></trkpt><trkpt lat="50.957844017236" lon="4.9305030241383685"><ele>51.0</ele><time>2026-04-15T15:32:18.999Z</time></trkpt><trkpt lat="50.957680169933134" lon="4.930483906188489"><ele>51.0</ele><time>2026-04-15T15:32:19.999Z</time></trkpt><trkpt lat="50.95751695523406" lon="4.930465674322194"><ele>51.66666666666667</ele><time>2026-04-15T15:32:20.999Z</time></trkpt><trkpt lat="50.95735001348451" lon="4.930452843557687"><ele>52.333333333333336</ele><time>2026-04-15T15:32:21.999Z</time></trkpt><trkpt lat="50.95717999112798" lon="4.930421835405189"><ele>53.0</ele><time>2026-04-15T15:32:22.999Z</time></trkpt><trkpt lat="50.95700674279543" lon="4.930404548341374"><ele>53.0</ele><time>2026-04-15T15:32:23.999Z</time></trkpt><trkpt lat="50.95683887330575" lon="4.930384565072341"><ele>53.0</ele><time>2026-04-15T15:32:24.999Z</time></trkpt><trkpt lat="50.95667657829921" lon="4.930362440105704"><ele>53.0</ele><time>2026-04-15T15:32:25.999Z</time></trkpt><trkpt lat="50.9565284317642" lon="4.930337950828801"><ele>52.25</ele><time>2026-04-15T15:32:26.999Z</time></trkpt><trkpt lat="50.95639267833117" lon="4.93031595238697"><ele>51.5</ele><time>2026-04-15T15:32:27.999Z</time></trkpt><trkpt lat="50.956263872388504" lon="4.930298100598624"><ele>50.75</ele><time>2026-04-15T15:32:28.999Z</time></trkpt><trkpt lat="50.95614775237187" lon="4.930284216688462"><ele>50.0</ele><time>2026-04-15T15:32:29.999Z</time></trkpt><trkpt lat="50.95602494115138" lon="4.930272558189893"><ele>50.0</ele><time>2026-04-15T15:32:30.999Z</time></trkpt><trkpt lat="50.955907538690425" lon="4.9302628010440745"><ele>50.0</ele><time>2026-04-15T15:32:31.999Z</time></trkpt><trkpt lat="50.955808821230136" lon="4.930256769425405"><ele>50.0</ele><time>2026-04-15T15:32:32.999Z</time></trkpt><trkpt lat="50.955730430236144" lon="4.93024457896674"><ele>50.0</ele><time>2026-04-15T15:32:33.999Z</time></trkpt><trkpt lat="50.95564044603807" lon="4.930238934480624"><ele>50.0</ele><time>2026-04-15T15:32:35.999Z</time></trkpt><trkpt lat="50.955572587000695" lon="4.930229893263334"><ele>49.28571428571429</ele><time>2026-04-15T15:32:39.999Z</time></trkpt><trkpt lat="50.95548227613129" lon="4.930238332167326"><ele>48.57142857142857</ele><time>2026-04-15T15:32:42.999Z</time></trkpt><trkpt lat="50.95541458158888" lon="4.930224654442196"><ele>47.85714285714286</ele><time>2026-04-15T15:32:43.999Z</time></trkpt><trkpt lat="50.95534006803686" lon="4.930218948818751"><ele>47.142857142857146</ele><time>2026-04-15T15:32:44.999Z</time></trkpt><trkpt lat="50.955271818325116" lon="4.930213904917614"><ele>46.42857142857143</ele><time>2026-04-15T15:32:45.999Z</time></trkpt><trkpt lat="50.95520089216552" lon="4.930208663206376"><ele>45.714285714285715</ele><time>2026-04-15T15:32:46.999Z</time></trkpt><trkpt lat="50.955137714217216" lon="4.930203994121221"><ele>45.0</ele><time>2026-04-15T15:32:47.999Z</time></trkpt><trkpt lat="50.95504613655907" lon="4.930197973518475"><ele>45.0</ele><time>2026-04-15T15:32:49.999Z</time></trkpt><trkpt lat="50.95492474083577" lon="4.930566300346935"><ele>45.0</ele><time>2026-04-15T15:32:51.999Z</time></trkpt><trkpt lat="50.954921408184475" lon="4.9306806785713615"><ele>45.0</ele><time>2026-04-15T15:32:52.999Z</time></trkpt><trkpt lat="50.95552831380054" lon="4.930772497307498"><ele>45.0</ele><time>2026-04-15T15:32:53.999Z</time></trkpt><trkpt lat="50.95551321955986" lon="4.930892199589015"><ele>45.0</ele><time>2026-04-15T15:32:54.999Z</time></trkpt><trkpt lat="50.95552213389388" lon="4.9310189980297965"><ele>45.0</ele><time>2026-04-15T15:32:55.999Z</time></trkpt><trkpt lat="50.955529097487016" lon="4.931154176647867"><ele>45.0</ele><time>2026-04-15T15:32:56.999Z</time></trkpt><trkpt lat="50.955535317516336" lon="4.931259639272731"><ele>45.0</ele><time>2026-04-15T15:32:57.999Z</time></trkpt><trkpt lat="50.95554991707218" lon="4.93138574413756"><ele>45.0</ele><time>2026-04-15T15:32:58.999Z</time></trkpt><trkpt lat="50.95557907117608" lon="4.931538335323786"><ele>45.0</ele><time>2026-04-15T15:32:59.999Z</time></trkpt><trkpt lat="50.95561395741742" lon="4.931681919566817"><ele>45.0</ele><time>2026-04-15T15:33:00.999Z</time></trkpt><trkpt lat="50.95565173742647" lon="4.931796805787813"><ele>45.0</ele><time>2026-04-15T15:33:01.999Z</time></trkpt><trkpt lat="50.95571039074909" lon="4.931953193310346"><ele>45.0</ele><time>2026-04-15T15:33:02.999Z</time></trkpt><trkpt lat="50.955803644010494" lon="4.932116770387408"><ele>45.0</ele><time>2026-04-15T15:33:04.999Z</time></trkpt><trkpt lat="50.95587508905974" lon="4.932223586244383"><ele>46.4</ele><time>2026-04-15T15:33:05.999Z</time></trkpt><trkpt lat="50.955942239035764" lon="4.932304604648021"><ele>47.8</ele><time>2026-04-15T15:33:06.999Z</time></trkpt><trkpt lat="50.95601637565682" lon="4.9323820455740925"><ele>49.2</ele><time>2026-04-15T15:33:07.999Z</time></trkpt><trkpt lat="50.95610841105746" lon="4.932473993510464"><ele>50.6</ele><time>2026-04-15T15:33:08.999Z</time></trkpt><trkpt lat="50.95618915509662" lon="4.932537101226437"><ele>52.0</ele><time>2026-04-15T15:33:09.999Z</time></trkpt><trkpt lat="50.95627268905196" lon="4.932602101369154"><ele>52.0</ele><time>2026-04-15T15:33:10.999Z</time></trkpt><trkpt lat="50.95636312570087" lon="4.932674362689061"><ele>52.0</ele><time>2026-04-15T15:33:11.999Z</time></trkpt><trkpt lat="50.95645992326116" lon="4.932751706643025"><ele>52.0</ele><time>2026-04-15T15:33:12.998Z</time></trkpt><trkpt lat="50.95656538214542" lon="4.932838171195215"><ele>52.0</ele><time>2026-04-15T15:33:13.998Z</time></trkpt><trkpt lat="50.95666448333601" lon="4.932943749202552"><ele>52.0</ele><time>2026-04-15T15:33:14.998Z</time></trkpt><trkpt lat="50.956755526410475" lon="4.933063818999546"><ele>52.0</ele><time>2026-04-15T15:33:15.998Z</time></trkpt><trkpt lat="50.95683199989286" lon="4.933189511867655"><ele>52.0</ele><time>2026-04-15T15:33:16.998Z</time></trkpt><trkpt lat="50.95689854983439" lon="4.933340818557428"><ele>52.0</ele><time>2026-04-15T15:33:17.998Z</time></trkpt><trkpt lat="50.95694749158474" lon="4.933491204220244"><ele>52.0</ele><time>2026-04-15T15:33:18.998Z</time></trkpt><trkpt lat="50.95698124733332" lon="4.933662249680821"><ele>52.0</ele><time>2026-04-15T15:33:19.998Z</time></trkpt><trkpt lat="50.95699798870329" lon="4.933850515697918"><ele>52.0</ele><time>2026-04-15T15:33:20.998Z</time></trkpt><trkpt lat="50.95700196670069" lon="4.934022041601934"><ele>52.0</ele><time>2026-04-15T15:33:21.998Z</time></trkpt><trkpt lat="50.956999497073" lon="4.934216033181367"><ele>52.0</ele><time>2026-04-15T15:33:22.998Z</time></trkpt><trkpt lat="50.95699593245416" lon="4.934353795265482"><ele>52.0</ele><time>2026-04-15T15:33:23.998Z</time></trkpt><trkpt lat="50.956990389842005" lon="4.93448322811967"><ele>52.0</ele><time>2026-04-15T15:33:24.998Z</time></trkpt><trkpt lat="50.95698514019273" lon="4.934585577485819"><ele>52.0</ele><time>2026-04-15T15:33:25.998Z</time></trkpt><trkpt lat="50.956976297641354" lon="4.93472632226476"><ele>52.0</ele><time>2026-04-15T15:33:26.998Z</time></trkpt><trkpt lat="50.95696470785917" lon="4.934864135160637"><ele>52.0</ele><time>2026-04-15T15:33:27.998Z</time></trkpt><trkpt lat="50.95695523947118" lon="4.935015313551749"><ele>52.0</ele><time>2026-04-15T15:33:28.998Z</time></trkpt><trkpt lat="50.95695956880658" lon="4.935136499346216"><ele>52.0</ele><time>2026-04-15T15:33:30Z</time></trkpt><trkpt lat="50.956911200748465" lon="4.935375876181825"><ele>52.400000000000006</ele><time>2026-04-15T15:33:31Z</time></trkpt><trkpt lat="50.95689483124015" lon="4.9355480850091595"><ele>52.800000000000004</ele><time>2026-04-15T15:33:32Z</time></trkpt><trkpt lat="50.956877901478265" lon="4.93572618732853"><ele>53.2</ele><time>2026-04-15T15:33:33Z</time></trkpt><trkpt lat="50.95686331280936" lon="4.935880530898151"><ele>53.6</ele><time>2026-04-15T15:33:34Z</time></trkpt><trkpt lat="50.9568494823379" lon="4.936034813411547"><ele>54.0</ele><time>2026-04-15T15:33:35Z</time></trkpt><trkpt lat="50.95683793266959" lon="4.936163652739506"><ele>54.2</ele><time>2026-04-15T15:33:36Z</time></trkpt><trkpt lat="50.9568280758779" lon="4.93627360826613"><ele>54.400000000000006</ele><time>2026-04-15T15:33:37Z</time></trkpt><trkpt lat="50.956819225077886" lon="4.93637324274306"><ele>54.6</ele><time>2026-04-15T15:33:38Z</time></trkpt><trkpt lat="50.956809929929136" lon="4.936482040033172"><ele>54.8</ele><time>2026-04-15T15:33:39Z</time></trkpt><trkpt lat="50.956773029103644" lon="4.936653059992774"><ele>55.0</ele><time>2026-04-15T15:33:41Z</time></trkpt><trkpt lat="50.956326463389615" lon="4.936624449489077"><ele>55.0</ele><time>2026-04-15T15:33:42Z</time></trkpt><trkpt lat="50.95623294221328" lon="4.93669394897677"><ele>55.0</ele><time>2026-04-15T15:33:43Z</time></trkpt><trkpt lat="50.95613022616455" lon="4.936772330902761"><ele>55.0</ele><time>2026-04-15T15:33:44Z</time></trkpt><trkpt lat="50.9560278540675" lon="4.936850374206822"><ele>55.0</ele><time>2026-04-15T15:33:45Z</time></trkpt><trkpt lat="50.95591509476658" lon="4.936937272721734"><ele>54.25</ele><time>2026-04-15T15:33:46Z</time></trkpt><trkpt lat="50.95580284905681" lon="4.937021289848202"><ele>53.5</ele><time>2026-04-15T15:33:47Z</time></trkpt><trkpt lat="50.95568572195459" lon="4.937098334064986"><ele>52.75</ele><time>2026-04-15T15:33:48Z</time></trkpt><trkpt lat="50.95556028774836" lon="4.937161022088179"><ele>52.0</ele><time>2026-04-15T15:33:49Z</time></trkpt><trkpt lat="50.9554294152965" lon="4.937209088651025"><ele>52.0</ele><time>2026-04-15T15:33:50Z</time></trkpt><trkpt lat="50.95529704302572" lon="4.937287229807899"><ele>52.0</ele><time>2026-04-15T15:33:51Z</time></trkpt><trkpt lat="50.95516820080527" lon="4.93736613870576"><ele>52.0</ele><time>2026-04-15T15:33:52Z</time></trkpt><trkpt lat="50.95505317316379" lon="4.937427184140149"><ele>52.0</ele><time>2026-04-15T15:33:53Z</time></trkpt><trkpt lat="50.95495368872692" lon="4.9374790561022674"><ele>51.8</ele><time>2026-04-15T15:33:54Z</time></trkpt><trkpt lat="50.95485905619557" lon="4.937531074160836"><ele>51.6</ele><time>2026-04-15T15:33:55Z</time></trkpt><trkpt lat="50.95478065436991" lon="4.937573139182471"><ele>51.4</ele><time>2026-04-15T15:33:56Z</time></trkpt><trkpt lat="50.95471626139715" lon="4.937606345369406"><ele>51.199999999999996</ele><time>2026-04-15T15:33:57Z</time></trkpt><trkpt lat="50.95462140170646" lon="4.93763812555873"><ele>51.0</ele><time>2026-04-15T15:33:59Z</time></trkpt><trkpt lat="50.95463876488055" lon="4.937869901069553"><ele>51.199999999999996</ele><time>2026-04-15T15:34:01Z</time></trkpt><trkpt lat="50.954654557173534" lon="4.937992970528467"><ele>51.4</ele><time>2026-04-15T15:34:02Z</time></trkpt><trkpt lat="50.95465860515163" lon="4.938127268652923"><ele>51.6</ele><time>2026-04-15T15:34:03Z</time></trkpt><trkpt lat="50.95466339257679" lon="4.938288262579389"><ele>51.8</ele><time>2026-04-15T15:34:04Z</time></trkpt><trkpt lat="50.95466806021693" lon="4.938478085031378"><ele>52.0</ele><time>2026-04-15T15:34:05Z</time></trkpt><trkpt lat="50.954670286874425" lon="4.938648068585357"><ele>52.0</ele><time>2026-04-15T15:34:06Z</time></trkpt><trkpt lat="50.95466659662318" lon="4.938823604102705"><ele>52.0</ele><time>2026-04-15T15:34:07Z</time></trkpt><trkpt lat="50.95467424987608" lon="4.939017321983234"><ele>52.0</ele><time>2026-04-15T15:34:08Z</time></trkpt><trkpt lat="50.9546987666013" lon="4.939231363470167"><ele>52.0</ele><time>2026-04-15T15:34:09Z</time></trkpt><trkpt lat="50.95470839333451" lon="4.939462650752767"><ele>52.0</ele><time>2026-04-15T15:34:10Z</time></trkpt><trkpt lat="50.954726404204514" lon="4.939698382912561"><ele>52.0</ele><time>2026-04-15T15:34:11Z</time></trkpt><trkpt lat="50.95474221264753" lon="4.939944276267722"><ele>52.0</ele><time>2026-04-15T15:34:12Z</time></trkpt><trkpt lat="50.9547639874206" lon="4.940207071357987"><ele>51.666666666666664</ele><time>2026-04-15T15:34:13Z</time></trkpt><trkpt lat="50.95478280130728" lon="4.940486185922769"><ele>51.33333333333333</ele><time>2026-04-15T15:34:14Z</time></trkpt><trkpt lat="50.95480338876396" lon="4.940772042022143"><ele>51.0</ele><time>2026-04-15T15:34:15Z</time></trkpt><trkpt lat="50.95482139776401" lon="4.941059254342506"><ele>50.66666666666667</ele><time>2026-04-15T15:34:16Z</time></trkpt><trkpt lat="50.954834249726346" lon="4.941317835324417"><ele>50.333333333333336</ele><time>2026-04-15T15:34:17Z</time></trkpt><trkpt lat="50.95484790961847" lon="4.941561543389081"><ele>50.0</ele><time>2026-04-15T15:34:18Z</time></trkpt><trkpt lat="50.95485645975547" lon="4.941799693404665"><ele>49.75</ele><time>2026-04-15T15:34:19Z</time></trkpt><trkpt lat="50.954869532059895" lon="4.9420086378490335"><ele>49.5</ele><time>2026-04-15T15:34:20Z</time></trkpt><trkpt lat="50.95488669143178" lon="4.94220946082993"><ele>49.25</ele><time>2026-04-15T15:34:21Z</time></trkpt><trkpt lat="50.95488611309766" lon="4.942406300604892"><ele>49.0</ele><time>2026-04-15T15:34:22Z</time></trkpt><trkpt lat="50.95490853854389" lon="4.942579500306963"><ele>49.0</ele><time>2026-04-15T15:34:22.999Z</time></trkpt><trkpt lat="50.95487174596905" lon="4.9427505132640945"><ele>49.0</ele><time>2026-04-15T15:34:23.999Z</time></trkpt><trkpt lat="50.95481930063978" lon="4.942928638080371"><ele>49.0</ele><time>2026-04-15T15:34:24.999Z</time></trkpt><trkpt lat="50.95474500313196" lon="4.943100064120796"><ele>49.0</ele><time>2026-04-15T15:34:25.999Z</time></trkpt><trkpt lat="50.954682029166705" lon="4.943291634791022"><ele>48.75</ele><time>2026-04-15T15:34:26.999Z</time></trkpt><trkpt lat="50.95461264881348" lon="4.9434810106975124"><ele>48.5</ele><time>2026-04-15T15:34:27.999Z</time></trkpt><trkpt lat="50.95456110589782" lon="4.943698770113852"><ele>48.25</ele><time>2026-04-15T15:34:28.999Z</time></trkpt><trkpt lat="50.954541873311456" lon="4.943936655865787"><ele>48.0</ele><time>2026-04-15T15:34:29.999Z</time></trkpt><trkpt lat="50.95455162072254" lon="4.944188917377398"><ele>47.666666666666664</ele><time>2026-04-15T15:34:30.999Z</time></trkpt><trkpt lat="50.95456762841732" lon="4.944439314120704"><ele>47.33333333333333</ele><time>2026-04-15T15:34:31.999Z</time></trkpt><trkpt lat="50.95457679880152" lon="4.944699079258038"><ele>47.0</ele><time>2026-04-15T15:34:32.999Z</time></trkpt><trkpt lat="50.95457476255901" lon="4.944964581849897"><ele>46.666666666666664</ele><time>2026-04-15T15:34:33.999Z</time></trkpt><trkpt lat="50.95457105687322" lon="4.9452308918846075"><ele>46.333333333333336</ele><time>2026-04-15T15:34:34.999Z</time></trkpt><trkpt lat="50.9545693105107" lon="4.945512564197151"><ele>46.0</ele><time>2026-04-15T15:34:35.999Z</time></trkpt><trkpt lat="50.954567316671024" lon="4.945808280569834"><ele>45.66666666666667</ele><time>2026-04-15T15:34:36.999Z</time></trkpt><trkpt lat="50.954570427021196" lon="4.946100922592985"><ele>45.333333333333336</ele><time>2026-04-15T15:34:37.999Z</time></trkpt><trkpt lat="50.9545754665301" lon="4.94636716680917"><ele>45.0</ele><time>2026-04-15T15:34:38.999Z</time></trkpt><trkpt lat="50.95459101790471" lon="4.946615277169587"><ele>45.0</ele><time>2026-04-15T15:34:39.999Z</time></trkpt><trkpt lat="50.95457983660035" lon="4.946969497217578"><ele>45.0</ele><time>2026-04-15T15:34:40.999Z</time></trkpt><trkpt lat="50.95457775774615" lon="4.947288940919001"><ele>45.0</ele><time>2026-04-15T15:34:41.999Z</time></trkpt><trkpt lat="50.95457375310838" lon="4.947614345854133"><ele>45.0</ele><time>2026-04-15T15:34:42.999Z</time></trkpt><trkpt lat="50.95456789540996" lon="4.947939017554609"><ele>45.0</ele><time>2026-04-15T15:34:43.999Z</time></trkpt><trkpt lat="50.95455630055346" lon="4.948244210767825"><ele>45.0</ele><time>2026-04-15T15:34:44.999Z</time></trkpt><trkpt lat="50.954546325344225" lon="4.948509242902083"><ele>45.0</ele><time>2026-04-15T15:34:45.999Z</time></trkpt><trkpt lat="50.95453179707198" lon="4.948751874339326"><ele>45.0</ele><time>2026-04-15T15:34:46.999Z</time></trkpt><trkpt lat="50.954517126450725" lon="4.948983580068587"><ele>45.0</ele><time>2026-04-15T15:34:47.999Z</time></trkpt><trkpt lat="50.954522884600124" lon="4.949216617812294"><ele>45.0</ele><time>2026-04-15T15:34:48.999Z</time></trkpt><trkpt lat="50.95457217473605" lon="4.949449551308214"><ele>45.0</ele><time>2026-04-15T15:34:49.999Z</time></trkpt><trkpt lat="50.95464521759539" lon="4.949685170329903"><ele>45.0</ele><time>2026-04-15T15:34:50.999Z</time></trkpt><trkpt lat="50.95472823482382" lon="4.949930550252159"><ele>45.0</ele><time>2026-04-15T15:34:51.999Z</time></trkpt><trkpt lat="50.95479622403295" lon="4.950182426158765"><ele>44.666666666666664</ele><time>2026-04-15T15:34:52.999Z</time></trkpt><trkpt lat="50.95486469163411" lon="4.95043437908351"><ele>44.33333333333333</ele><time>2026-04-15T15:34:53.999Z</time></trkpt><trkpt lat="50.95492450321881" lon="4.950674389266209"><ele>44.0</ele><time>2026-04-15T15:34:54.999Z</time></trkpt><trkpt lat="50.954976061932335" lon="4.9509000012453805"><ele>44.0</ele><time>2026-04-15T15:34:55.999Z</time></trkpt><trkpt lat="50.95502389064825" lon="4.951122366418505"><ele>44.0</ele><time>2026-04-15T15:34:56.999Z</time></trkpt><trkpt lat="50.9550525641231" lon="4.951349984647766"><ele>44.0</ele><time>2026-04-15T15:34:57.999Z</time></trkpt><trkpt lat="50.95508403275742" lon="4.9515544352566865"><ele>44.0</ele><time>2026-04-15T15:34:58.999Z</time></trkpt><trkpt lat="50.95512558948878" lon="4.951731173897202"><ele>43.83333333333333</ele><time>2026-04-15T15:34:59.999Z</time></trkpt><trkpt lat="50.95515936737753" lon="4.951882076674236"><ele>43.666666666666664</ele><time>2026-04-15T15:35:00.999Z</time></trkpt><trkpt lat="50.955182843333425" lon="4.95201808672315"><ele>43.5</ele><time>2026-04-15T15:35:01.999Z</time></trkpt><trkpt lat="50.95520276121751" lon="4.952135100459569"><ele>43.333333333333336</ele><time>2026-04-15T15:35:02.999Z</time></trkpt><trkpt lat="50.955207223526315" lon="4.952261703030907"><ele>43.16666666666667</ele><time>2026-04-15T15:35:03.999Z</time></trkpt><trkpt lat="50.9551704816349" lon="4.952362769173664"><ele>43.0</ele><time>2026-04-15T15:35:04.999Z</time></trkpt><trkpt lat="50.95510191792984" lon="4.952424180229178"><ele>42.8</ele><time>2026-04-15T15:35:05.999Z</time></trkpt><trkpt lat="50.95500972226099" lon="4.952445066029676"><ele>42.599999999999994</ele><time>2026-04-15T15:35:06.999Z</time></trkpt><trkpt lat="50.954923422645955" lon="4.952447120059143"><ele>42.400000000000006</ele><time>2026-04-15T15:35:07.999Z</time></trkpt><trkpt lat="50.954819784881856" lon="4.952486433607018"><ele>42.2</ele><time>2026-04-15T15:35:08.999Z</time></trkpt><trkpt lat="50.95471952408234" lon="4.95254261733102"><ele>42.0</ele><time>2026-04-15T15:35:09.999Z</time></trkpt><trkpt lat="50.95460440421333" lon="4.952603283048664"><ele>41.75</ele><time>2026-04-15T15:35:10.999Z</time></trkpt><trkpt lat="50.95448023436383" lon="4.95265299821429"><ele>41.5</ele><time>2026-04-15T15:35:11.999Z</time></trkpt><trkpt lat="50.954370270295" lon="4.95270364318947"><ele>41.25</ele><time>2026-04-15T15:35:12.999Z</time></trkpt><trkpt lat="50.95425944555734" lon="4.952773207927446"><ele>41.0</ele><time>2026-04-15T15:35:13.999Z</time></trkpt><trkpt lat="50.954151202423894" lon="4.952860113106066"><ele>40.5</ele><time>2026-04-15T15:35:14.998Z</time></trkpt><trkpt lat="50.95405519278806" lon="4.952964685181795"><ele>40.0</ele><time>2026-04-15T15:35:15.998Z</time></trkpt><trkpt lat="50.953959295934006" lon="4.953063321682121"><ele>39.5</ele><time>2026-04-15T15:35:16.998Z</time></trkpt><trkpt lat="50.95385917429489" lon="4.953179504238793"><ele>39.0</ele><time>2026-04-15T15:35:17.998Z</time></trkpt><trkpt lat="50.95377035887072" lon="4.9532603265090085"><ele>39.0</ele><time>2026-04-15T15:35:18.998Z</time></trkpt><trkpt lat="50.95365643461373" lon="4.953335192491283"><ele>39.0</ele><time>2026-04-15T15:35:19.998Z</time></trkpt><trkpt lat="50.953534935164555" lon="4.953333905159384"><ele>39.0</ele><time>2026-04-15T15:35:20.998Z</time></trkpt><trkpt lat="50.95342531592349" lon="4.953387899226725"><ele>39.0</ele><time>2026-04-15T15:35:21.998Z</time></trkpt><trkpt lat="50.9533392770205" lon="4.953456726490031"><ele>39.0</ele><time>2026-04-15T15:35:22.998Z</time></trkpt><trkpt lat="50.95326581019779" lon="4.95352097402749"><ele>39.0</ele><time>2026-04-15T15:35:23.998Z</time></trkpt><trkpt lat="50.953181070397925" lon="4.953609769801042"><ele>39.0</ele><time>2026-04-15T15:35:24.998Z</time></trkpt><trkpt lat="50.953194426118074" lon="4.953814554128852"><ele>39.0</ele><time>2026-04-15T15:35:25.998Z</time></trkpt><trkpt lat="50.95321221720168" lon="4.954002408779348"><ele>39.0</ele><time>2026-04-15T15:35:26.998Z</time></trkpt><trkpt lat="50.95322060850512" lon="4.954190568149237"><ele>40.5</ele><time>2026-04-15T15:35:27.998Z</time></trkpt><trkpt lat="50.953178143909774" lon="4.954382509278058"><ele>42.0</ele><time>2026-04-15T15:35:28.998Z</time></trkpt><trkpt lat="50.953115613692276" lon="4.9545896866546055"><ele>43.5</ele><time>2026-04-15T15:35:29.998Z</time></trkpt><trkpt lat="50.953065533244356" lon="4.954832236307238"><ele>45.0</ele><time>2026-04-15T15:35:30.998Z</time></trkpt><trkpt lat="50.9530045692187" lon="4.955050380280696"><ele>46.0</ele><time>2026-04-15T15:35:31.998Z</time></trkpt><trkpt lat="50.952940671274035" lon="4.955287652265815"><ele>47.0</ele><time>2026-04-15T15:35:32.998Z</time></trkpt><trkpt lat="50.952885912464865" lon="4.9555285230781525"><ele>48.0</ele><time>2026-04-15T15:35:33.998Z</time></trkpt><trkpt lat="50.9528476747408" lon="4.955804682237558"><ele>47.666666666666664</ele><time>2026-04-15T15:35:34.998Z</time></trkpt><trkpt lat="50.95279551643619" lon="4.956089043820399"><ele>47.33333333333333</ele><time>2026-04-15T15:35:36Z</time></trkpt><trkpt lat="50.95274214829775" lon="4.956374530524593"><ele>47.0</ele><time>2026-04-15T15:35:37Z</time></trkpt><trkpt lat="50.95269316054431" lon="4.956644311042773"><ele>46.33333333333333</ele><time>2026-04-15T15:35:38Z</time></trkpt><trkpt lat="50.952631725825064" lon="4.956899672450821"><ele>45.666666666666664</ele><time>2026-04-15T15:35:39Z</time></trkpt><trkpt lat="50.952591066415" lon="4.957118909199771"><ele>45.0</ele><time>2026-04-15T15:35:40Z</time></trkpt><trkpt lat="50.952568739227665" lon="4.957331080364384"><ele>45.25</ele><time>2026-04-15T15:35:41Z</time></trkpt><trkpt lat="50.95253060133848" lon="4.957529544719297"><ele>45.5</ele><time>2026-04-15T15:35:42Z</time></trkpt><trkpt lat="50.95249478682966" lon="4.9577484834049965"><ele>45.75</ele><time>2026-04-15T15:35:43Z</time></trkpt><trkpt lat="50.95244377998679" lon="4.957967312026322"><ele>46.0</ele><time>2026-04-15T15:35:44Z</time></trkpt><trkpt lat="50.95240842808113" lon="4.95819784004981"><ele>46.0</ele><time>2026-04-15T15:35:45Z</time></trkpt><trkpt lat="50.95236412799718" lon="4.958420611985969"><ele>46.0</ele><time>2026-04-15T15:35:46Z</time></trkpt><trkpt lat="50.95232552913634" lon="4.9586423100429045"><ele>46.0</ele><time>2026-04-15T15:35:47Z</time></trkpt><trkpt lat="50.95227684280566" lon="4.958833678773888"><ele>46.0</ele><time>2026-04-15T15:35:48Z</time></trkpt><trkpt lat="50.95225678918505" lon="4.959011420721328"><ele>46.0</ele><time>2026-04-15T15:35:49Z</time></trkpt><trkpt lat="50.95222932813959" lon="4.959178573135574"><ele>46.0</ele><time>2026-04-15T15:35:50Z</time></trkpt><trkpt lat="50.95220703122875" lon="4.959321167734573"><ele>46.0</ele><time>2026-04-15T15:35:51Z</time></trkpt><trkpt lat="50.95217011493086" lon="4.959430982214784"><ele>46.0</ele><time>2026-04-15T15:35:52Z</time></trkpt><trkpt lat="50.952139227914486" lon="4.959582567934753"><ele>46.0</ele><time>2026-04-15T15:35:54Z</time></trkpt><trkpt lat="50.952033053617434" lon="4.959654347717277"><ele>45.833333333333336</ele><time>2026-04-15T15:35:56Z</time></trkpt><trkpt lat="50.951968959658544" lon="4.959690318214041"><ele>45.66666666666667</ele><time>2026-04-15T15:35:58Z</time></trkpt><trkpt lat="50.95188389463086" lon="4.959764202300659"><ele>45.5</ele><time>2026-04-15T15:36:11Z</time></trkpt><trkpt lat="50.95183596861807" lon="4.959848401090975"><ele>45.333333333333336</ele><time>2026-04-15T15:36:12Z</time></trkpt><trkpt lat="50.95177139006113" lon="4.959935124978582"><ele>45.166666666666664</ele><time>2026-04-15T15:36:13Z</time></trkpt><trkpt lat="50.951727718926925" lon="4.960068215528102"><ele>45.0</ele><time>2026-04-15T15:36:14Z</time></trkpt><trkpt lat="50.95169831345792" lon="4.960225111275587"><ele>45.0</ele><time>2026-04-15T15:36:15Z</time></trkpt><trkpt lat="50.95164835998094" lon="4.960383737298875"><ele>45.0</ele><time>2026-04-15T15:36:16Z</time></trkpt><trkpt lat="50.95160239158769" lon="4.960541373742415"><ele>45.0</ele><time>2026-04-15T15:36:17Z</time></trkpt><trkpt lat="50.95155125348122" lon="4.96071951153371"><ele>45.0</ele><time>2026-04-15T15:36:18Z</time></trkpt><trkpt lat="50.95149432733305" lon="4.960904876395999"><ele>45.5</ele><time>2026-04-15T15:36:19Z</time></trkpt><trkpt lat="50.951435836477536" lon="4.961093594080223"><ele>46.0</ele><time>2026-04-15T15:36:20Z</time></trkpt><trkpt lat="50.9513840776107" lon="4.961265541890016"><ele>46.5</ele><time>2026-04-15T15:36:21Z</time></trkpt><trkpt lat="50.951337344648714" lon="4.961417363906902"><ele>47.0</ele><time>2026-04-15T15:36:22Z</time></trkpt><trkpt lat="50.95129310266848" lon="4.961559807801975"><ele>47.0</ele><time>2026-04-15T15:36:23Z</time></trkpt><trkpt lat="50.95124634889477" lon="4.9617117347517485"><ele>47.0</ele><time>2026-04-15T15:36:23.999Z</time></trkpt><trkpt lat="50.951182751184696" lon="4.961824054033052"><ele>47.0</ele><time>2026-04-15T15:36:24.999Z</time></trkpt><trkpt lat="50.95114970373065" lon="4.961934645259158"><ele>47.0</ele><time>2026-04-15T15:36:25.999Z</time></trkpt><trkpt lat="50.951124940818225" lon="4.96203326942016"><ele>47.0</ele><time>2026-04-15T15:36:26.999Z</time></trkpt><trkpt lat="50.951104823510896" lon="4.962217381358302"><ele>47.0</ele><time>2026-04-15T15:36:28.999Z</time></trkpt><trkpt lat="50.95103785538028" lon="4.962273569190739"><ele>47.0</ele><time>2026-04-15T15:36:29.999Z</time></trkpt><trkpt lat="50.95097200641983" lon="4.962369698322179"><ele>47.0</ele><time>2026-04-15T15:36:30.999Z</time></trkpt><trkpt lat="50.950877496183054" lon="4.962428900293905"><ele>47.0</ele><time>2026-04-15T15:36:31.999Z</time></trkpt><trkpt lat="50.95079369927677" lon="4.962517549675356"><ele>47.0</ele><time>2026-04-15T15:36:32.999Z</time></trkpt><trkpt lat="50.95071070997052" lon="4.962619565775774"><ele>46.6</ele><time>2026-04-15T15:36:33.999Z</time></trkpt><trkpt lat="50.95063525672929" lon="4.962686910702968"><ele>46.2</ele><time>2026-04-15T15:36:34.999Z</time></trkpt><trkpt lat="50.95053546416551" lon="4.962786732446918"><ele>45.8</ele><time>2026-04-15T15:36:36.999Z</time></trkpt><trkpt lat="50.95046214027579" lon="4.962871073646281"><ele>45.4</ele><time>2026-04-15T15:36:38.999Z</time></trkpt><trkpt lat="50.95039566030922" lon="4.962942966459559"><ele>45.0</ele><time>2026-04-15T15:36:40.999Z</time></trkpt><trkpt lat="50.950283425544775" lon="4.963071140527527"><ele>45.0</ele><time>2026-04-15T15:36:42.999Z</time></trkpt><trkpt lat="50.95020525563914" lon="4.963173757828042"><ele>45.0</ele><time>2026-04-15T15:36:43.999Z</time></trkpt><trkpt lat="50.95010880906883" lon="4.9632783832898495"><ele>45.0</ele><time>2026-04-15T15:36:44.999Z</time></trkpt><trkpt lat="50.95001378842262" lon="4.963378288263555"><ele>45.0</ele><time>2026-04-15T15:36:45.999Z</time></trkpt><trkpt lat="50.949916458851305" lon="4.963474914843645"><ele>45.0</ele><time>2026-04-15T15:36:46.999Z</time></trkpt><trkpt lat="50.949822793580196" lon="4.963544773599758"><ele>44.8</ele><time>2026-04-15T15:36:47.999Z</time></trkpt><trkpt lat="50.94972900106059" lon="4.963605294399059"><ele>44.6</ele><time>2026-04-15T15:36:48.999Z</time></trkpt><trkpt lat="50.949645936682664" lon="4.963657092449552"><ele>44.400000000000006</ele><time>2026-04-15T15:36:49.999Z</time></trkpt><trkpt lat="50.94956726188346" lon="4.963680235709663"><ele>44.2</ele><time>2026-04-15T15:36:50.999Z</time></trkpt><trkpt lat="50.94949889993927" lon="4.9638247089486995"><ele>44.0</ele><time>2026-04-15T15:36:51.999Z</time></trkpt><trkpt lat="50.94940825879098" lon="4.963925995310582"><ele>44.0</ele><time>2026-04-15T15:36:52.999Z</time></trkpt><trkpt lat="50.94931885343342" lon="4.964060103468796"><ele>44.0</ele><time>2026-04-15T15:36:53.999Z</time></trkpt><trkpt lat="50.949233429551995" lon="4.96418359363628"><ele>44.0</ele><time>2026-04-15T15:36:54.999Z</time></trkpt><trkpt lat="50.94915642658159" lon="4.964287522289814"><ele>44.0</ele><time>2026-04-15T15:36:55.999Z</time></trkpt><trkpt lat="50.94909155441695" lon="4.964392255637745"><ele>44.0</ele><time>2026-04-15T15:36:56.999Z</time></trkpt><trkpt lat="50.94905171355493" lon="4.964517988448036"><ele>44.5</ele><time>2026-04-15T15:36:57.999Z</time></trkpt><trkpt lat="50.9490750651847" lon="4.96469432383581"><ele>45.0</ele><time>2026-04-15T15:36:58.999Z</time></trkpt><trkpt lat="50.94910445567839" lon="4.964842379174452"><ele>45.5</ele><time>2026-04-15T15:36:59.999Z</time></trkpt><trkpt lat="50.94912863522239" lon="4.965038787330721"><ele>46.0</ele><time>2026-04-15T15:37:00.999Z</time></trkpt><trkpt lat="50.94916810040857" lon="4.965275080284749"><ele>42.66666666666667</ele><time>2026-04-15T15:37:01.999Z</time></trkpt><trkpt lat="50.94921499232777" lon="4.965551663872877"><ele>39.333333333333336</ele><time>2026-04-15T15:37:02.999Z</time></trkpt><trkpt lat="50.94926407743076" lon="4.965842041108376"><ele>36.0</ele><time>2026-04-15T15:37:03.999Z</time></trkpt><trkpt lat="50.94931544472264" lon="4.9661563294867745"><ele>35.666666666666664</ele><time>2026-04-15T15:37:04.999Z</time></trkpt><trkpt lat="50.94939094008672" lon="4.966484486445466"><ele>35.33333333333333</ele><time>2026-04-15T15:37:05.999Z</time></trkpt><trkpt lat="50.94946355134725" lon="4.966810826674506"><ele>35.0</ele><time>2026-04-15T15:37:06.999Z</time></trkpt><trkpt lat="50.94952947920964" lon="4.967140497894746"><ele>34.33333333333333</ele><time>2026-04-15T15:37:07.999Z</time></trkpt><trkpt lat="50.94958940933392" lon="4.967450058825052"><ele>33.666666666666664</ele><time>2026-04-15T15:37:08.999Z</time></trkpt><trkpt lat="50.949643506308185" lon="4.967720881323679"><ele>33.0</ele><time>2026-04-15T15:37:09.999Z</time></trkpt><trkpt lat="50.94969104068673" lon="4.967951569505602"><ele>33.0</ele><time>2026-04-15T15:37:10.999Z</time></trkpt><trkpt lat="50.949730946281235" lon="4.968145990714664"><ele>33.0</ele><time>2026-04-15T15:37:11.999Z</time></trkpt><trkpt lat="50.94976595704162" lon="4.968316646571899"><ele>33.0</ele><time>2026-04-15T15:37:12.999Z</time></trkpt><trkpt lat="50.94979642474754" lon="4.968465519675933"><ele>33.0</ele><time>2026-04-15T15:37:13.999Z</time></trkpt><trkpt lat="50.94982289160285" lon="4.968595034974083"><ele>33.0</ele><time>2026-04-15T15:37:14.999Z</time></trkpt><trkpt lat="50.94984391694228" lon="4.968692848649128"><ele>33.4</ele><time>2026-04-15T15:37:15.998Z</time></trkpt><trkpt lat="50.94986417906974" lon="4.9688617597582265"><ele>33.8</ele><time>2026-04-15T15:37:17.998Z</time></trkpt><trkpt lat="50.949775184495316" lon="4.96890070785902"><ele>34.2</ele><time>2026-04-15T15:37:18.998Z</time></trkpt><trkpt lat="50.94970635182393" lon="4.9690007597980275"><ele>34.6</ele><time>2026-04-15T15:37:19.998Z</time></trkpt><trkpt lat="50.949632660046525" lon="4.969109191570794"><ele>35.0</ele><time>2026-04-15T15:37:20.998Z</time></trkpt><trkpt lat="50.94957785100546" lon="4.969191223342531"><ele>35.57142857142857</ele><time>2026-04-15T15:37:21.998Z</time></trkpt><trkpt lat="50.94952146824614" lon="4.969276051513398"><ele>36.14285714285714</ele><time>2026-04-15T15:37:22.998Z</time></trkpt><trkpt lat="50.949468261448224" lon="4.969356101620284"><ele>36.714285714285715</ele><time>2026-04-15T15:37:23.998Z</time></trkpt><trkpt lat="50.94942077370255" lon="4.969427547246828"><ele>37.285714285714285</ele><time>2026-04-15T15:37:24.998Z</time></trkpt><trkpt lat="50.949373840349885" lon="4.969497054346286"><ele>37.857142857142854</ele><time>2026-04-15T15:37:25.998Z</time></trkpt><trkpt lat="50.94932648223176" lon="4.969569037301796"><ele>38.42857142857143</ele><time>2026-04-15T15:37:26.998Z</time></trkpt><trkpt lat="50.94927965396304" lon="4.9696402149137615"><ele>39.0</ele><time>2026-04-15T15:37:27.998Z</time></trkpt><trkpt lat="50.949230532478694" lon="4.969714820919917"><ele>39.2</ele><time>2026-04-15T15:37:28.998Z</time></trkpt><trkpt lat="50.949176339392" lon="4.969796937927186"><ele>39.4</ele><time>2026-04-15T15:37:29.998Z</time></trkpt><trkpt lat="50.94911674356916" lon="4.969887241518999"><ele>39.6</ele><time>2026-04-15T15:37:30.998Z</time></trkpt><trkpt lat="50.94904973448184" lon="4.969987193408094"><ele>39.8</ele><time>2026-04-15T15:37:31.998Z</time></trkpt><trkpt lat="50.94897961755555" lon="4.970091376886412"><ele>40.0</ele><time>2026-04-15T15:37:32.998Z</time></trkpt><trkpt lat="50.94890127458612" lon="4.97020747886883"><ele>40.0</ele><time>2026-04-15T15:37:33.998Z</time></trkpt><trkpt lat="50.94881820877037" lon="4.97033102197605"><ele>40.0</ele><time>2026-04-15T15:37:34.998Z</time></trkpt><trkpt lat="50.948726769280114" lon="4.970467119969326"><ele>40.0</ele><time>2026-04-15T15:37:35.998Z</time></trkpt><trkpt lat="50.94862964657139" lon="4.970612675817849"><ele>40.0</ele><time>2026-04-15T15:37:36.998Z</time></trkpt><trkpt lat="50.9485273245033" lon="4.970769635995243"><ele>38.75</ele><time>2026-04-15T15:37:37.998Z</time></trkpt><trkpt lat="50.9484208094639" lon="4.970935597157683"><ele>37.5</ele><time>2026-04-15T15:37:38.998Z</time></trkpt><trkpt lat="50.94831357158527" lon="4.971094678524768"><ele>36.25</ele><time>2026-04-15T15:37:39.998Z</time></trkpt><trkpt lat="50.948203198366855" lon="4.971256918348911"><ele>35.0</ele><time>2026-04-15T15:37:40.998Z</time></trkpt><trkpt lat="50.948094169589574" lon="4.971418213442385"><ele>34.75</ele><time>2026-04-15T15:37:42Z</time></trkpt><trkpt lat="50.947984171117255" lon="4.971581296482943"><ele>34.5</ele><time>2026-04-15T15:37:43Z</time></trkpt><trkpt lat="50.94787663136646" lon="4.971744803447654"><ele>34.25</ele><time>2026-04-15T15:37:44Z</time></trkpt><trkpt lat="50.94777218976345" lon="4.971906254824718"><ele>34.0</ele><time>2026-04-15T15:37:45Z</time></trkpt><trkpt lat="50.947672589790265" lon="4.972060886083644"><ele>34.0</ele><time>2026-04-15T15:37:46Z</time></trkpt><trkpt lat="50.94757648606351" lon="4.972205901259559"><ele>34.0</ele><time>2026-04-15T15:37:47Z</time></trkpt><trkpt lat="50.94748293806464" lon="4.972331963329501"><ele>34.0</ele><time>2026-04-15T15:37:48Z</time></trkpt><trkpt lat="50.94738276871967" lon="4.972468373011884"><ele>34.0</ele><time>2026-04-15T15:37:49Z</time></trkpt><trkpt lat="50.947290038751916" lon="4.972601022096654"><ele>34.0</ele><time>2026-04-15T15:37:50Z</time></trkpt><trkpt lat="50.947205857501544" lon="4.972717719825795"><ele>34.0</ele><time>2026-04-15T15:37:51Z</time></trkpt><trkpt lat="50.94713130559978" lon="4.972817359781554"><ele>34.0</ele><time>2026-04-15T15:37:52Z</time></trkpt><trkpt lat="50.94706361833839" lon="4.972909576329993"><ele>34.0</ele><time>2026-04-15T15:37:53Z</time></trkpt><trkpt lat="50.94698911421194" lon="4.973013741977154"><ele>34.0</ele><time>2026-04-15T15:37:54Z</time></trkpt><trkpt lat="50.94691400551746" lon="4.97311418067707"><ele>34.0</ele><time>2026-04-15T15:37:55Z</time></trkpt><trkpt lat="50.946851113584245" lon="4.973202087681369"><ele>34.0</ele><time>2026-04-15T15:37:56Z</time></trkpt><trkpt lat="50.94680405868761" lon="4.973298773974133"><ele>34.0</ele><time>2026-04-15T15:37:57Z</time></trkpt><trkpt lat="50.94670980037964" lon="4.973393515163674"><ele>34.0</ele><time>2026-04-15T15:37:59Z</time></trkpt><trkpt lat="50.946640440977056" lon="4.973421974469726"><ele>34.0</ele><time>2026-04-15T15:38:01Z</time></trkpt><trkpt lat="50.94661956111574" lon="4.973609477853002"><ele>34.2</ele><time>2026-04-15T15:38:03Z</time></trkpt><trkpt lat="50.946626908592414" lon="4.973722720693422"><ele>34.4</ele><time>2026-04-15T15:38:04Z</time></trkpt><trkpt lat="50.94664731779071" lon="4.973873022130696"><ele>34.6</ele><time>2026-04-15T15:38:05Z</time></trkpt><trkpt lat="50.94666907590007" lon="4.9740347124444755"><ele>34.8</ele><time>2026-04-15T15:38:06Z</time></trkpt><trkpt lat="50.94668861781898" lon="4.974203139990841"><ele>35.0</ele><time>2026-04-15T15:38:07Z</time></trkpt><trkpt lat="50.946700521731636" lon="4.974412068171128"><ele>35.0</ele><time>2026-04-15T15:38:08Z</time></trkpt><trkpt lat="50.946705172831514" lon="4.974632673294251"><ele>35.0</ele><time>2026-04-15T15:38:09Z</time></trkpt><trkpt lat="50.94670544335656" lon="4.97485311131878"><ele>35.0</ele><time>2026-04-15T15:38:10Z</time></trkpt><trkpt lat="50.9467062830081" lon="4.975056057184193"><ele>35.0</ele><time>2026-04-15T15:38:11Z</time></trkpt><trkpt lat="50.946711244778626" lon="4.975233986124511"><ele>35.0</ele><time>2026-04-15T15:38:12Z</time></trkpt><trkpt lat="50.94671419498527" lon="4.97540240763963"><ele>35.0</ele><time>2026-04-15T15:38:13Z</time></trkpt><trkpt lat="50.94671504613434" lon="4.975573147904169"><ele>35.0</ele><time>2026-04-15T15:38:14Z</time></trkpt><trkpt lat="50.94671583966288" lon="4.975729397084634"><ele>35.0</ele><time>2026-04-15T15:38:15Z</time></trkpt><trkpt lat="50.94671489056693" lon="4.975878149085501"><ele>35.0</ele><time>2026-04-15T15:38:16Z</time></trkpt><trkpt lat="50.94670716858741" lon="4.976044338100089"><ele>35.0</ele><time>2026-04-15T15:38:17Z</time></trkpt><trkpt lat="50.946715117382546" lon="4.976211441152769"><ele>35.0</ele><time>2026-04-15T15:38:18Z</time></trkpt><trkpt lat="50.94670785911413" lon="4.97637389745936"><ele>35.0</ele><time>2026-04-15T15:38:19Z</time></trkpt><trkpt lat="50.94670254115637" lon="4.97654155582231"><ele>35.0</ele><time>2026-04-15T15:38:20Z</time></trkpt><trkpt lat="50.946693160774196" lon="4.976705612339078"><ele>35.0</ele><time>2026-04-15T15:38:21Z</time></trkpt><trkpt lat="50.94668149932174" lon="4.976860666784881"><ele>35.0</ele><time>2026-04-15T15:38:22Z</time></trkpt><trkpt lat="50.9466665237236" lon="4.977019291505309"><ele>35.0</ele><time>2026-04-15T15:38:23Z</time></trkpt><trkpt lat="50.946652247658996" lon="4.977179675176556"><ele>35.0</ele><time>2026-04-15T15:38:24Z</time></trkpt><trkpt lat="50.94663667492687" lon="4.977337915391986"><ele>35.0</ele><time>2026-04-15T15:38:25Z</time></trkpt><trkpt lat="50.94662248102025" lon="4.977500755601399"><ele>35.0</ele><time>2026-04-15T15:38:25.999Z</time></trkpt><trkpt lat="50.94661380273783" lon="4.977661807229084"><ele>35.0</ele><time>2026-04-15T15:38:26.999Z</time></trkpt><trkpt lat="50.94660900871364" lon="4.9778271407530665"><ele>35.0</ele><time>2026-04-15T15:38:27.999Z</time></trkpt><trkpt lat="50.94660861589589" lon="4.978000265930555"><ele>35.0</ele><time>2026-04-15T15:38:28.999Z</time></trkpt><trkpt lat="50.94661073987223" lon="4.9781774515866255"><ele>35.0</ele><time>2026-04-15T15:38:29.999Z</time></trkpt><trkpt lat="50.94661428526655" lon="4.978350342759244"><ele>35.0</ele><time>2026-04-15T15:38:30.999Z</time></trkpt><trkpt lat="50.94662147361738" lon="4.97852486612096"><ele>35.25</ele><time>2026-04-15T15:38:31.999Z</time></trkpt><trkpt lat="50.946632710756305" lon="4.9787026368357905"><ele>35.5</ele><time>2026-04-15T15:38:32.999Z</time></trkpt><trkpt lat="50.946641387150116" lon="4.978880237472973"><ele>35.75</ele><time>2026-04-15T15:38:33.999Z</time></trkpt><trkpt lat="50.9466511394683" lon="4.979058129515055"><ele>36.0</ele><time>2026-04-15T15:38:34.999Z</time></trkpt><trkpt lat="50.946662484889714" lon="4.979237812119256"><ele>36.0</ele><time>2026-04-15T15:38:35.999Z</time></trkpt><trkpt lat="50.9466691141242" lon="4.9794162550230645"><ele>36.0</ele><time>2026-04-15T15:38:36.999Z</time></trkpt><trkpt lat="50.94667485902542" lon="4.979569244515426"><ele>36.0</ele><time>2026-04-15T15:38:37.999Z</time></trkpt><trkpt lat="50.946680618252735" lon="4.97972045988274"><ele>36.0</ele><time>2026-04-15T15:38:38.999Z</time></trkpt><trkpt lat="50.9466898773143" lon="4.979872717466319"><ele>36.0</ele><time>2026-04-15T15:38:39.999Z</time></trkpt><trkpt lat="50.946701844028496" lon="4.980029563418535"><ele>36.0</ele><time>2026-04-15T15:38:40.999Z</time></trkpt><trkpt lat="50.94671577338607" lon="4.980160785662549"><ele>36.0</ele><time>2026-04-15T15:38:41.999Z</time></trkpt><trkpt lat="50.946733458268525" lon="4.980281542857699"><ele>36.0</ele><time>2026-04-15T15:38:42.999Z</time></trkpt><trkpt lat="50.94675244365566" lon="4.98038665758295"><ele>36.0</ele><time>2026-04-15T15:38:43.999Z</time></trkpt><trkpt lat="50.946755166750485" lon="4.980493355653887"><ele>36.0</ele><time>2026-04-15T15:38:45.999Z</time></trkpt><trkpt lat="50.94669119551156" lon="4.98057774257776"><ele>36.0</ele><time>2026-04-15T15:38:47.999Z</time></trkpt><trkpt lat="50.94661061748473" lon="4.980590294005639"><ele>36.0</ele><time>2026-04-15T15:38:48.999Z</time></trkpt><trkpt lat="50.946540590678794" lon="4.980658488766596"><ele>36.0</ele><time>2026-04-15T15:38:49.999Z</time></trkpt><trkpt lat="50.94645412080635" lon="4.980728288860912"><ele>36.0</ele><time>2026-04-15T15:38:51.999Z</time></trkpt><trkpt lat="50.946404397787" lon="4.980818990557084"><ele>36.0</ele><time>2026-04-15T15:38:56.999Z</time></trkpt><trkpt lat="50.94638727736951" lon="4.981024965862419"><ele>36.0</ele><time>2026-04-15T15:38:58.999Z</time></trkpt><trkpt lat="50.94642360071543" lon="4.981163143897925"><ele>36.2</ele><time>2026-04-15T15:38:59.999Z</time></trkpt><trkpt lat="50.94645373278443" lon="4.981251640688031"><ele>36.400000000000006</ele><time>2026-04-15T15:39:00.999Z</time></trkpt><trkpt lat="50.946498097962156" lon="4.981404266291165"><ele>36.6</ele><time>2026-04-15T15:39:01.999Z</time></trkpt><trkpt lat="50.94654532449813" lon="4.981571886532714"><ele>36.800000000000004</ele><time>2026-04-15T15:39:02.999Z</time></trkpt><trkpt lat="50.94659743097341" lon="4.981741417053203"><ele>37.0</ele><time>2026-04-15T15:39:03.999Z</time></trkpt><trkpt lat="50.94665084238202" lon="4.981923247253561"><ele>37.0</ele><time>2026-04-15T15:39:04.999Z</time></trkpt><trkpt lat="50.94670802566887" lon="4.982109140726347"><ele>37.0</ele><time>2026-04-15T15:39:05.999Z</time></trkpt><trkpt lat="50.94675948175517" lon="4.982273543507714"><ele>37.0</ele><time>2026-04-15T15:39:06.999Z</time></trkpt><trkpt lat="50.946807698057725" lon="4.982418480391621"><ele>37.0</ele><time>2026-04-15T15:39:07.999Z</time></trkpt><trkpt lat="50.946848206247125" lon="4.98253654071734"><ele>37.0</ele><time>2026-04-15T15:39:08.999Z</time></trkpt><trkpt lat="50.94688701115151" lon="4.982640969687336"><ele>37.0</ele><time>2026-04-15T15:39:09.999Z</time></trkpt><trkpt lat="50.946924039131915" lon="4.982736545199469"><ele>37.0</ele><time>2026-04-15T15:39:10.999Z</time></trkpt><trkpt lat="50.94692325105355" lon="4.982846053882938"><ele>37.0</ele><time>2026-04-15T15:39:11.999Z</time></trkpt><trkpt lat="50.94677017850593" lon="4.982869123673972"><ele>37.0</ele><time>2026-04-15T15:39:13.999Z</time></trkpt><trkpt lat="50.9466764371958" lon="4.982897347077839"><ele>37.0</ele><time>2026-04-15T15:39:14.999Z</time></trkpt><trkpt lat="50.94657859247653" lon="4.982920848253256"><ele>37.0</ele><time>2026-04-15T15:39:15.998Z</time></trkpt><trkpt lat="50.94646695064543" lon="4.982952374997861"><ele>37.0</ele><time>2026-04-15T15:39:16.998Z</time></trkpt><trkpt lat="50.946357727397725" lon="4.9829819057742055"><ele>37.0</ele><time>2026-04-15T15:39:17.998Z</time></trkpt><trkpt lat="50.94623711579551" lon="4.983015568409164"><ele>37.0</ele><time>2026-04-15T15:39:18.998Z</time></trkpt><trkpt lat="50.94611273425373" lon="4.983057496410339"><ele>37.0</ele><time>2026-04-15T15:39:19.998Z</time></trkpt><trkpt lat="50.94598675706135" lon="4.983118791837741"><ele>37.0</ele><time>2026-04-15T15:39:20.998Z</time></trkpt><trkpt lat="50.94586261550933" lon="4.9831591223069145"><ele>37.0</ele><time>2026-04-15T15:39:21.998Z</time></trkpt><trkpt lat="50.94573795141958" lon="4.983189537148466"><ele>37.0</ele><time>2026-04-15T15:39:22.998Z</time></trkpt><trkpt lat="50.94561906465498" lon="4.983224669860828"><ele>37.5</ele><time>2026-04-15T15:39:23.998Z</time></trkpt><trkpt lat="50.94549840448938" lon="4.983264160894351"><ele>38.0</ele><time>2026-04-15T15:39:24.998Z</time></trkpt><trkpt lat="50.9453782718507" lon="4.983301771190024"><ele>38.5</ele><time>2026-04-15T15:39:25.998Z</time></trkpt><trkpt lat="50.945257654894185" lon="4.98334983324917"><ele>39.0</ele><time>2026-04-15T15:39:26.998Z</time></trkpt><trkpt lat="50.945135377590276" lon="4.983353675066162"><ele>39.75</ele><time>2026-04-15T15:39:27.998Z</time></trkpt><trkpt lat="50.94501551089022" lon="4.98345755725679"><ele>40.5</ele><time>2026-04-15T15:39:28.998Z</time></trkpt><trkpt lat="50.94488311631663" lon="4.983496062819549"><ele>41.25</ele><time>2026-04-15T15:39:29.998Z</time></trkpt><trkpt lat="50.9447523690495" lon="4.98355020409093"><ele>42.0</ele><time>2026-04-15T15:39:30.998Z</time></trkpt><trkpt lat="50.94461408059362" lon="4.983597643797987"><ele>42.0</ele><time>2026-04-15T15:39:31.998Z</time></trkpt><trkpt lat="50.944477033510516" lon="4.983669989089467"><ele>42.0</ele><time>2026-04-15T15:39:32.998Z</time></trkpt><trkpt lat="50.944329919830054" lon="4.983695898596731"><ele>42.0</ele><time>2026-04-15T15:39:33.998Z</time></trkpt><trkpt lat="50.94420583814863" lon="4.983739369307087"><ele>42.0</ele><time>2026-04-15T15:39:34.998Z</time></trkpt><trkpt lat="50.94408689508276" lon="4.983781039751706"><ele>42.5</ele><time>2026-04-15T15:39:35.998Z</time></trkpt><trkpt lat="50.94396369443632" lon="4.983824201794693"><ele>43.0</ele><time>2026-04-15T15:39:36.998Z</time></trkpt><trkpt lat="50.943845490262966" lon="4.983897059860521"><ele>43.5</ele><time>2026-04-15T15:39:37.998Z</time></trkpt><trkpt lat="50.943737148929216" lon="4.983943575748735"><ele>44.0</ele><time>2026-04-15T15:39:38.998Z</time></trkpt><trkpt lat="50.943629324399744" lon="4.984029263823384"><ele>44.0</ele><time>2026-04-15T15:39:39.998Z</time></trkpt><trkpt lat="50.94352569650916" lon="4.984126969552171"><ele>44.0</ele><time>2026-04-15T15:39:40.998Z</time></trkpt><trkpt lat="50.94340927969836" lon="4.984181377560917"><ele>44.0</ele><time>2026-04-15T15:39:41.998Z</time></trkpt><trkpt lat="50.943294984173235" lon="4.984266969911089"><ele>44.0</ele><time>2026-04-15T15:39:42.998Z</time></trkpt><trkpt lat="50.943183490540314" lon="4.984355192474334"><ele>45.5</ele><time>2026-04-15T15:39:43.998Z</time></trkpt><trkpt lat="50.94306101257388" lon="4.984415513302303"><ele>47.0</ele><time>2026-04-15T15:39:44.998Z</time></trkpt><trkpt lat="50.942947306283386" lon="4.984480125784489"><ele>48.5</ele><time>2026-04-15T15:39:45.998Z</time></trkpt><trkpt lat="50.94284406443437" lon="4.984602581049165"><ele>50.0</ele><time>2026-04-15T15:39:47Z</time></trkpt><trkpt lat="50.94274967493257" lon="4.9847363428011295"><ele>50.0</ele><time>2026-04-15T15:39:48Z</time></trkpt><trkpt lat="50.94264183846384" lon="4.984852805577849"><ele>50.0</ele><time>2026-04-15T15:39:49Z</time></trkpt><trkpt lat="50.94252752668006" lon="4.9849282925543426"><ele>50.0</ele><time>2026-04-15T15:39:50Z</time></trkpt><trkpt lat="50.942429725931255" lon="4.98502221797838"><ele>50.0</ele><time>2026-04-15T15:39:51Z</time></trkpt><trkpt lat="50.942334663853245" lon="4.985128932398587"><ele>51.5</ele><time>2026-04-15T15:39:52Z</time></trkpt><trkpt lat="50.942234593054145" lon="4.9852477363316945"><ele>53.0</ele><time>2026-04-15T15:39:53Z</time></trkpt><trkpt lat="50.94212694846193" lon="4.985356875696228"><ele>54.5</ele><time>2026-04-15T15:39:54Z</time></trkpt><trkpt lat="50.9420204853415" lon="4.98544517087355"><ele>56.0</ele><time>2026-04-15T15:39:55Z</time></trkpt><trkpt lat="50.94190720242301" lon="4.985530005158346"><ele>56.0</ele><time>2026-04-15T15:39:56Z</time></trkpt><trkpt lat="50.94178699496785" lon="4.985601296763498"><ele>56.0</ele><time>2026-04-15T15:39:57Z</time></trkpt><trkpt lat="50.94166548459152" lon="4.985696254088247"><ele>56.0</ele><time>2026-04-15T15:39:58Z</time></trkpt><trkpt lat="50.94154534408098" lon="4.985786078250354"><ele>56.0</ele><time>2026-04-15T15:39:59Z</time></trkpt><trkpt lat="50.94142161916394" lon="4.985863990577941"><ele>58.0</ele><time>2026-04-15T15:40:00Z</time></trkpt><trkpt lat="50.94131143917806" lon="4.9859522067494995"><ele>60.0</ele><time>2026-04-15T15:40:01Z</time></trkpt><trkpt lat="50.94120331243526" lon="4.986067122699007"><ele>62.0</ele><time>2026-04-15T15:40:02Z</time></trkpt><trkpt lat="50.941096272272" lon="4.9862065257676855"><ele>64.0</ele><time>2026-04-15T15:40:03Z</time></trkpt><trkpt lat="50.940995851047994" lon="4.986358819856212"><ele>64.0</ele><time>2026-04-15T15:40:04Z</time></trkpt><trkpt lat="50.94090646979132" lon="4.9865209015106355"><ele>64.0</ele><time>2026-04-15T15:40:05Z</time></trkpt><trkpt lat="50.94081963419292" lon="4.98668081120716"><ele>64.0</ele><time>2026-04-15T15:40:06Z</time></trkpt><trkpt lat="50.940729112847215" lon="4.986846543985209"><ele>64.0</ele><time>2026-04-15T15:40:07Z</time></trkpt><trkpt lat="50.9406679685052" lon="4.987039988363306"><ele>65.0</ele><time>2026-04-15T15:40:08Z</time></trkpt><trkpt lat="50.94061111033549" lon="4.9872388322572165"><ele>66.0</ele><time>2026-04-15T15:40:09Z</time></trkpt><trkpt lat="50.94055287782678" lon="4.987439521971298"><ele>67.0</ele><time>2026-04-15T15:40:10Z</time></trkpt><trkpt lat="50.94048956104891" lon="4.987635450461359"><ele>68.0</ele><time>2026-04-15T15:40:11Z</time></trkpt><trkpt lat="50.94041673883976" lon="4.98787387220706"><ele>68.0</ele><time>2026-04-15T15:40:12Z</time></trkpt><trkpt lat="50.94034915724542" lon="4.988101769704258"><ele>68.0</ele><time>2026-04-15T15:40:13Z</time></trkpt><trkpt lat="50.94027904652616" lon="4.988304618842724"><ele>68.0</ele><time>2026-04-15T15:40:14Z</time></trkpt><trkpt lat="50.94021557759237" lon="4.988467412930878"><ele>68.0</ele><time>2026-04-15T15:40:15Z</time></trkpt><trkpt lat="50.9401468647488" lon="4.988685575446273"><ele>67.5</ele><time>2026-04-15T15:40:16Z</time></trkpt><trkpt lat="50.94008917945694" lon="4.98884737392556"><ele>67.0</ele><time>2026-04-15T15:40:17Z</time></trkpt><trkpt lat="50.94002410091115" lon="4.989037760076036"><ele>66.5</ele><time>2026-04-15T15:40:18Z</time></trkpt><trkpt lat="50.939956406665125" lon="4.989236698140832"><ele>66.0</ele><time>2026-04-15T15:40:19Z</time></trkpt><trkpt lat="50.93988565281679" lon="4.989416139064131"><ele>65.5</ele><time>2026-04-15T15:40:20Z</time></trkpt><trkpt lat="50.93983060252126" lon="4.989581039808875"><ele>65.0</ele><time>2026-04-15T15:40:21Z</time></trkpt><trkpt lat="50.93976975462872" lon="4.989768048618375"><ele>64.5</ele><time>2026-04-15T15:40:22Z</time></trkpt><trkpt lat="50.939695088356906" lon="4.989966149054614"><ele>64.0</ele><time>2026-04-15T15:40:23Z</time></trkpt><trkpt lat="50.939637864500476" lon="4.990170880133112"><ele>63.25</ele><time>2026-04-15T15:40:24Z</time></trkpt><trkpt lat="50.93958685231453" lon="4.990387484022654"><ele>62.5</ele><time>2026-04-15T15:40:24.999Z</time></trkpt><trkpt lat="50.93954056036469" lon="4.990579419029347"><ele>61.75</ele><time>2026-04-15T15:40:25.999Z</time></trkpt><trkpt lat="50.93948823904957" lon="4.990733276301081"><ele>61.0</ele><time>2026-04-15T15:40:26.999Z</time></trkpt><trkpt lat="50.939441700515175" lon="4.9908672579158235"><ele>60.599999999999994</ele><time>2026-04-15T15:40:27.999Z</time></trkpt><trkpt lat="50.93940076026954" lon="4.990984107570332"><ele>60.199999999999996</ele><time>2026-04-15T15:40:28.999Z</time></trkpt><trkpt lat="50.93937218340003" lon="4.99107389435436"><ele>59.800000000000004</ele><time>2026-04-15T15:40:29.999Z</time></trkpt><trkpt lat="50.93937660183304" lon="4.991233639157166"><ele>59.400000000000006</ele><time>2026-04-15T15:40:31.999Z</time></trkpt><trkpt lat="50.93949462870839" lon="4.991350314558039"><ele>59.0</ele><time>2026-04-15T15:40:33.999Z</time></trkpt><trkpt lat="50.939568152693354" lon="4.9914022272056515"><ele>59.0</ele><time>2026-04-15T15:40:34.999Z</time></trkpt><trkpt lat="50.93964777406412" lon="4.991519924011503"><ele>59.00000000000001</ele><time>2026-04-15T15:40:36.999Z</time></trkpt><trkpt lat="50.93965586728074" lon="4.991692805586207"><ele>59.00000000000001</ele><time>2026-04-15T15:40:38.999Z</time></trkpt><trkpt lat="50.939596795280345" lon="4.991827394487922"><ele>59.0</ele><time>2026-04-15T15:40:40.999Z</time></trkpt><trkpt lat="50.93962802667593" lon="4.991979935929415"><ele>59.0</ele><time>2026-04-15T15:40:43.999Z</time></trkpt><trkpt lat="50.939711243087906" lon="4.992010984057631"><ele>58.16666666666667</ele><time>2026-04-15T15:40:44.999Z</time></trkpt><trkpt lat="50.93978488065528" lon="4.992051514626094"><ele>57.333333333333336</ele><time>2026-04-15T15:40:45.999Z</time></trkpt><trkpt lat="50.9398093091388" lon="4.992152664349046"><ele>56.5</ele><time>2026-04-15T15:40:46.999Z</time></trkpt><trkpt lat="50.93978364387437" lon="4.992262432027084"><ele>55.66666666666667</ele><time>2026-04-15T15:40:47.999Z</time></trkpt><trkpt lat="50.939732003800124" lon="4.992381344711097"><ele>54.833333333333336</ele><time>2026-04-15T15:40:48.999Z</time></trkpt><trkpt lat="50.93968100370619" lon="4.992526656269913"><ele>54.0</ele><time>2026-04-15T15:40:49.999Z</time></trkpt><trkpt lat="50.93963094954941" lon="4.992697525170262"><ele>52.75</ele><time>2026-04-15T15:40:50.999Z</time></trkpt><trkpt lat="50.939577341164664" lon="4.992897154109771"><ele>51.5</ele><time>2026-04-15T15:40:51.999Z</time></trkpt><trkpt lat="50.93951686207743" lon="4.993100452968699"><ele>50.25</ele><time>2026-04-15T15:40:52.999Z</time></trkpt><trkpt lat="50.93944643179359" lon="4.993322535175701"><ele>49.0</ele><time>2026-04-15T15:40:53.999Z</time></trkpt><trkpt lat="50.9393771298055" lon="4.993567686793094"><ele>47.33333333333333</ele><time>2026-04-15T15:40:54.999Z</time></trkpt><trkpt lat="50.93930850337022" lon="4.993836719083067"><ele>45.666666666666664</ele><time>2026-04-15T15:40:55.999Z</time></trkpt><trkpt lat="50.939232272074335" lon="4.994109291009862"><ele>44.0</ele><time>2026-04-15T15:40:56.999Z</time></trkpt><trkpt lat="50.9391534104603" lon="4.994383139777194"><ele>43.666666666666664</ele><time>2026-04-15T15:40:57.999Z</time></trkpt><trkpt lat="50.93907507272025" lon="4.994669706519024"><ele>43.333333333333336</ele><time>2026-04-15T15:40:58.999Z</time></trkpt><trkpt lat="50.93899164104533" lon="4.994961195731198"><ele>43.0</ele><time>2026-04-15T15:40:59.999Z</time></trkpt><trkpt lat="50.93891023800704" lon="4.995249534865561"><ele>41.66666666666667</ele><time>2026-04-15T15:41:00.999Z</time></trkpt><trkpt lat="50.93881000253209" lon="4.995535785209498"><ele>40.333333333333336</ele><time>2026-04-15T15:41:01.999Z</time></trkpt><trkpt lat="50.93872498577439" lon="4.995834199463309"><ele>39.0</ele><time>2026-04-15T15:41:02.999Z</time></trkpt><trkpt lat="50.938635500635115" lon="4.996147073253302"><ele>38.666666666666664</ele><time>2026-04-15T15:41:03.999Z</time></trkpt><trkpt lat="50.93855072630836" lon="4.996443381031447"><ele>38.33333333333333</ele><time>2026-04-15T15:41:04.999Z</time></trkpt><trkpt lat="50.938474285322364" lon="4.996762609052086"><ele>38.0</ele><time>2026-04-15T15:41:05.999Z</time></trkpt><trkpt lat="50.93838639342094" lon="4.997073562097564"><ele>37.666666666666664</ele><time>2026-04-15T15:41:06.999Z</time></trkpt><trkpt lat="50.938281248372334" lon="4.99738560669384"><ele>37.333333333333336</ele><time>2026-04-15T15:41:07.999Z</time></trkpt><trkpt lat="50.938198519742606" lon="4.997675184777899"><ele>37.0</ele><time>2026-04-15T15:41:08.999Z</time></trkpt><trkpt lat="50.938118075019275" lon="4.997956768718793"><ele>36.333333333333336</ele><time>2026-04-15T15:41:09.999Z</time></trkpt><trkpt lat="50.93803939990001" lon="4.998232158088825"><ele>35.666666666666664</ele><time>2026-04-15T15:41:10.999Z</time></trkpt><trkpt lat="50.93796642284439" lon="4.99848690592696"><ele>35.0</ele><time>2026-04-15T15:41:11.999Z</time></trkpt><trkpt lat="50.93788994144377" lon="4.998753641452155"><ele>34.666666666666664</ele><time>2026-04-15T15:41:12.999Z</time></trkpt><trkpt lat="50.93781592059775" lon="4.998998461186196"><ele>34.333333333333336</ele><time>2026-04-15T15:41:13.999Z</time></trkpt><trkpt lat="50.937736760966075" lon="4.9992583910323924"><ele>34.0</ele><time>2026-04-15T15:41:14.998Z</time></trkpt><trkpt lat="50.9376856462004" lon="4.99949901161972"><ele>33.5</ele><time>2026-04-15T15:41:15.998Z</time></trkpt><trkpt lat="50.937625558838754" lon="4.999705357662086"><ele>33.0</ele><time>2026-04-15T15:41:16.998Z</time></trkpt><trkpt lat="50.93757153647217" lon="4.99989278265833"><ele>32.5</ele><time>2026-04-15T15:41:17.998Z</time></trkpt><trkpt lat="50.93752893377905" lon="5.000043112606123"><ele>32.0</ele><time>2026-04-15T15:41:18.998Z</time></trkpt><trkpt lat="50.93746818226667" lon="5.000195363890928"><ele>32.0</ele><time>2026-04-15T15:41:19.998Z</time></trkpt><trkpt lat="50.93742347611036" lon="5.000348473626111"><ele>32.0</ele><time>2026-04-15T15:41:20.998Z</time></trkpt><trkpt lat="50.93738523342142" lon="5.0005271877792365"><ele>32.0</ele><time>2026-04-15T15:41:21.998Z</time></trkpt><trkpt lat="50.93733839039283" lon="5.000639638819509"><ele>32.0</ele><time>2026-04-15T15:41:23.998Z</time></trkpt><trkpt lat="50.937443442890846" lon="5.000891946600791"><ele>32.2</ele><time>2026-04-15T15:41:27.998Z</time></trkpt><trkpt lat="50.93755193399557" lon="5.000990783902932"><ele>32.400000000000006</ele><time>2026-04-15T15:41:29.998Z</time></trkpt><trkpt lat="50.93763246083632" lon="5.001109299418778"><ele>32.599999999999994</ele><time>2026-04-15T15:41:31.998Z</time></trkpt><trkpt lat="50.93772324376486" lon="5.0011951569280875"><ele>32.8</ele><time>2026-04-15T15:41:33.998Z</time></trkpt><trkpt lat="50.93766641685079" lon="5.00128791216455"><ele>33.0</ele><time>2026-04-15T15:41:35.998Z</time></trkpt><trkpt lat="50.93758113083554" lon="5.001448693915606"><ele>33.0</ele><time>2026-04-15T15:41:37.998Z</time></trkpt><trkpt lat="50.937528637838945" lon="5.00154915455734"><ele>33.0</ele><time>2026-04-15T15:41:38.998Z</time></trkpt><trkpt lat="50.93747089747062" lon="5.001661058983178"><ele>33.0</ele><time>2026-04-15T15:41:39.998Z</time></trkpt><trkpt lat="50.93742196262529" lon="5.001761854336396"><ele>33.0</ele><time>2026-04-15T15:41:40.998Z</time></trkpt><trkpt lat="50.93738025460638" lon="5.001843082057448"><ele>33.0</ele><time>2026-04-15T15:41:41.998Z</time></trkpt><trkpt lat="50.937334909051074" lon="5.001919597267037"><ele>33.0</ele><time>2026-04-15T15:41:42.998Z</time></trkpt><trkpt lat="50.937259992875624" lon="5.002013872633065"><ele>33.8</ele><time>2026-04-15T15:41:44.998Z</time></trkpt><trkpt lat="50.93713920132081" lon="5.002093139279111"><ele>34.599999999999994</ele><time>2026-04-15T15:41:46.998Z</time></trkpt><trkpt lat="50.93708121168633" lon="5.002156203503729"><ele>35.400000000000006</ele><time>2026-04-15T15:41:47.998Z</time></trkpt><trkpt lat="50.9370435594065" lon="5.00230424242069"><ele>36.2</ele><time>2026-04-15T15:41:48.998Z</time></trkpt><trkpt lat="50.9369761797411" lon="5.002391237175816"><ele>37.0</ele><time>2026-04-15T15:41:49.998Z</time></trkpt><trkpt lat="50.936930699506505" lon="5.002476676285091"><ele>36.800000000000004</ele><time>2026-04-15T15:41:50.998Z</time></trkpt><trkpt lat="50.936838000225485" lon="5.0026005990423545"><ele>36.6</ele><time>2026-04-15T15:41:53Z</time></trkpt><trkpt lat="50.936786707106464" lon="5.002664982092511"><ele>36.400000000000006</ele><time>2026-04-15T15:41:54Z</time></trkpt><trkpt lat="50.93668444410925" lon="5.00253270455947"><ele>36.2</ele><time>2026-04-15T15:41:55Z</time></trkpt><trkpt lat="50.936573602509824" lon="5.0025503397690185"><ele>36.0</ele><time>2026-04-15T15:41:56Z</time></trkpt><trkpt lat="50.936425023474996" lon="5.002548141339874"><ele>36.0</ele><time>2026-04-15T15:41:57Z</time></trkpt><trkpt lat="50.93631066551756" lon="5.002558391961175"><ele>36.0</ele><time>2026-04-15T15:41:58Z</time></trkpt><trkpt lat="50.93622005974869" lon="5.002561773898223"><ele>36.0</ele><time>2026-04-15T15:41:59Z</time></trkpt><trkpt lat="50.936120318437524" lon="5.002564381046876"><ele>36.0</ele><time>2026-04-15T15:42:00Z</time></trkpt><trkpt lat="50.93600399118642" lon="5.0025713631249324"><ele>36.0</ele><time>2026-04-15T15:42:01Z</time></trkpt><trkpt lat="50.93588603169877" lon="5.0025798409913005"><ele>36.0</ele><time>2026-04-15T15:42:02Z</time></trkpt><trkpt lat="50.93577154095664" lon="5.0025857932228925"><ele>36.0</ele><time>2026-04-15T15:42:03Z</time></trkpt><trkpt lat="50.935658497912634" lon="5.002588961373393"><ele>36.0</ele><time>2026-04-15T15:42:04Z</time></trkpt><trkpt lat="50.93556582643081" lon="5.002590730247996"><ele>36.0</ele><time>2026-04-15T15:42:05Z</time></trkpt><trkpt lat="50.93547824256212" lon="5.002596396741087"><ele>36.0</ele><time>2026-04-15T15:42:06Z</time></trkpt><trkpt lat="50.93540055046111" lon="5.0025677827418775"><ele>36.0</ele><time>2026-04-15T15:42:07Z</time></trkpt><trkpt lat="50.93530635087004" lon="5.002587390910347"><ele>36.0</ele><time>2026-04-15T15:42:08Z</time></trkpt><trkpt lat="50.935214019344095" lon="5.002583764363288"><ele>36.0</ele><time>2026-04-15T15:42:09Z</time></trkpt><trkpt lat="50.93513017995435" lon="5.0025917202695425"><ele>36.0</ele><time>2026-04-15T15:42:10Z</time></trkpt><trkpt lat="50.935036641606914" lon="5.002599679252813"><ele>36.0</ele><time>2026-04-15T15:42:11Z</time></trkpt><trkpt lat="50.93496100317025" lon="5.002607353846405"><ele>36.0</ele><time>2026-04-15T15:42:12Z</time></trkpt><trkpt lat="50.934893099417174" lon="5.002610200095084"><ele>36.5</ele><time>2026-04-15T15:42:13Z</time></trkpt><trkpt lat="50.934825724136225" lon="5.002615601586628"><ele>37.0</ele><time>2026-04-15T15:42:14Z</time></trkpt><trkpt lat="50.934761965361204" lon="5.002593454074731"><ele>37.5</ele><time>2026-04-15T15:42:15Z</time></trkpt><trkpt lat="50.934652041660584" lon="5.002598261281941"><ele>38.0</ele><time>2026-04-15T15:42:17Z</time></trkpt><trkpt lat="50.934557568388" lon="5.002593130610008"><ele>38.5</ele><time>2026-04-15T15:42:19Z</time></trkpt><trkpt lat="50.9344815080575" lon="5.0025877565552355"><ele>39.0</ele><time>2026-04-15T15:42:21Z</time></trkpt><trkpt lat="50.934417172174584" lon="5.002565559690202"><ele>39.0</ele><time>2026-04-15T15:42:24Z</time></trkpt><trkpt lat="50.93440436671056" lon="5.002685552575281"><ele>39.0</ele><time>2026-04-15T15:42:27Z</time></trkpt><trkpt lat="50.9343515727874" lon="5.0033791577364175"><ele>39.333333333333336</ele><time>2026-04-15T15:42:29Z</time></trkpt><trkpt lat="50.93448358016698" lon="5.00341888282275"><ele>39.66666666666667</ele><time>2026-04-15T15:42:30.999Z</time></trkpt><trkpt lat="50.934563875797586" lon="5.00349325240693"><ele>40.0</ele><time>2026-04-15T15:42:31.999Z</time></trkpt><trkpt lat="50.93508546874201" lon="5.0026371704868655"><ele>39.2</ele><time>2026-04-15T15:42:35.999Z</time></trkpt><trkpt lat="50.93516819904776" lon="5.002626292845554"><ele>38.4</ele><time>2026-04-15T15:42:36.999Z</time></trkpt><trkpt lat="50.93523676866284" lon="5.002610456851442"><ele>37.6</ele><time>2026-04-15T15:42:37.999Z</time></trkpt><trkpt lat="50.93534499809835" lon="5.0025804475812405"><ele>36.8</ele><time>2026-04-15T15:42:39.999Z</time></trkpt><trkpt lat="50.935411842921326" lon="5.002761430320863"><ele>36.0</ele><time>2026-04-15T15:42:41.999Z</time></trkpt><trkpt lat="50.93538938985483" lon="5.0028984108538195"><ele>36.0</ele><time>2026-04-15T15:42:42.999Z</time></trkpt><trkpt lat="50.935351467476025" lon="5.003036721446936"><ele>36.0</ele><time>2026-04-15T15:42:43.999Z</time></trkpt><trkpt lat="50.935323443932816" lon="5.003186293873093"><ele>36.0</ele><time>2026-04-15T15:42:44.999Z</time></trkpt><trkpt lat="50.93529903230681" lon="5.003330803558447"><ele>36.0</ele><time>2026-04-15T15:42:45.999Z</time></trkpt><trkpt lat="50.93526986132094" lon="5.0034918336550644"><ele>36.0</ele><time>2026-04-15T15:42:46.999Z</time></trkpt><trkpt lat="50.93523292243399" lon="5.003661111700529"><ele>36.75</ele><time>2026-04-15T15:42:47.999Z</time></trkpt><trkpt lat="50.93519560551938" lon="5.003839254583516"><ele>37.5</ele><time>2026-04-15T15:42:48.999Z</time></trkpt><trkpt lat="50.93515594819305" lon="5.004014811035711"><ele>38.25</ele><time>2026-04-15T15:42:49.999Z</time></trkpt><trkpt lat="50.93511187005054" lon="5.004184967269351"><ele>39.0</ele><time>2026-04-15T15:42:50.999Z</time></trkpt><trkpt lat="50.935063321232334" lon="5.004327960229212"><ele>39.5</ele><time>2026-04-15T15:42:51.999Z</time></trkpt><trkpt lat="50.93502240740347" lon="5.00444438454471"><ele>40.0</ele><time>2026-04-15T15:42:52.999Z</time></trkpt><trkpt lat="50.93498786730018" lon="5.004555170788143"><ele>40.5</ele><time>2026-04-15T15:42:53.999Z</time></trkpt><trkpt lat="50.934954686879685" lon="5.004645192099416"><ele>41.0</ele><time>2026-04-15T15:42:54.999Z</time></trkpt><trkpt lat="50.93489451683661" lon="5.004797631894309"><ele>41.5</ele><time>2026-04-15T15:42:56.999Z</time></trkpt><trkpt lat="50.9348473780831" lon="5.004918340327758"><ele>42.0</ele><time>2026-04-15T15:42:58.999Z</time></trkpt><trkpt lat="50.93478217751646" lon="5.005067400795581"><ele>42.0</ele><time>2026-04-15T15:43:44.998Z</time></trkpt><trkpt lat="50.934733457414055" lon="5.0051438962228785"><ele>42.0</ele><time>2026-04-15T15:43:45.998Z</time></trkpt><trkpt lat="50.93470128339706" lon="5.005267753745117"><ele>42.0</ele><time>2026-04-15T15:43:46.998Z</time></trkpt><trkpt lat="50.93464223809881" lon="5.0053625995763396"><ele>42.0</ele><time>2026-04-15T15:43:47.998Z</time></trkpt><trkpt lat="50.93459105167871" lon="5.005479491471492"><ele>42.0</ele><time>2026-04-15T15:43:48.998Z</time></trkpt><trkpt lat="50.934531428426375" lon="5.005607297288822"><ele>42.0</ele><time>2026-04-15T15:43:49.998Z</time></trkpt><trkpt lat="50.93446440402748" lon="5.005742991278188"><ele>42.2</ele><time>2026-04-15T15:43:50.998Z</time></trkpt><trkpt lat="50.934394782795536" lon="5.005869663802154"><ele>42.400000000000006</ele><time>2026-04-15T15:43:51.998Z</time></trkpt><trkpt lat="50.93432008513338" lon="5.005982618652704"><ele>42.599999999999994</ele><time>2026-04-15T15:43:52.998Z</time></trkpt><trkpt lat="50.934246139347" lon="5.006113564392687"><ele>42.8</ele><time>2026-04-15T15:43:53.998Z</time></trkpt><trkpt lat="50.93416116484984" lon="5.006212083414343"><ele>43.0</ele><time>2026-04-15T15:43:54.998Z</time></trkpt><trkpt lat="50.9340768845437" lon="5.0063361399029445"><ele>44.0</ele><time>2026-04-15T15:43:55.998Z</time></trkpt><trkpt lat="50.933994183514834" lon="5.006471542910361"><ele>45.0</ele><time>2026-04-15T15:43:56.998Z</time></trkpt><trkpt lat="50.933915794877706" lon="5.006604277709494"><ele>46.0</ele><time>2026-04-15T15:43:58Z</time></trkpt><trkpt lat="50.93383473512028" lon="5.006756776538681"><ele>47.0</ele><time>2026-04-15T15:43:59Z</time></trkpt><trkpt lat="50.93375615353963" lon="5.0069104404605875"><ele>47.75</ele><time>2026-04-15T15:44:00Z</time></trkpt><trkpt lat="50.93367443400021" lon="5.007070238047742"><ele>48.5</ele><time>2026-04-15T15:44:01Z</time></trkpt><trkpt lat="50.93359466379377" lon="5.007227244806084"><ele>49.25</ele><time>2026-04-15T15:44:02Z</time></trkpt><trkpt lat="50.933536256671275" lon="5.007386345662866"><ele>50.0</ele><time>2026-04-15T15:44:03Z</time></trkpt><trkpt lat="50.933460796230435" lon="5.007535878957615"><ele>51.0</ele><time>2026-04-15T15:44:04Z</time></trkpt><trkpt lat="50.93338307864272" lon="5.00769304489908"><ele>52.0</ele><time>2026-04-15T15:44:05Z</time></trkpt><trkpt lat="50.93330514752921" lon="5.007848876808129"><ele>53.0</ele><time>2026-04-15T15:44:06Z</time></trkpt><trkpt lat="50.93322817718583" lon="5.008009246911396"><ele>54.0</ele><time>2026-04-15T15:44:07Z</time></trkpt><trkpt lat="50.93314121630026" lon="5.008173155979386"><ele>54.0</ele><time>2026-04-15T15:44:08Z</time></trkpt><trkpt lat="50.93304875701878" lon="5.008330202702919"><ele>54.0</ele><time>2026-04-15T15:44:09Z</time></trkpt><trkpt lat="50.932965888757266" lon="5.008480975303142"><ele>54.0</ele><time>2026-04-15T15:44:10Z</time></trkpt><trkpt lat="50.93287434239989" lon="5.008619608155666"><ele>54.0</ele><time>2026-04-15T15:44:11Z</time></trkpt><trkpt lat="50.93278072498969" lon="5.008774560459021"><ele>54.0</ele><time>2026-04-15T15:44:12Z</time></trkpt><trkpt lat="50.93269451795116" lon="5.008945376102689"><ele>54.0</ele><time>2026-04-15T15:44:13Z</time></trkpt><trkpt lat="50.93259411665777" lon="5.0090883009110065"><ele>54.0</ele><time>2026-04-15T15:44:14Z</time></trkpt><trkpt lat="50.93248531382207" lon="5.009237528734766"><ele>54.0</ele><time>2026-04-15T15:44:15Z</time></trkpt><trkpt lat="50.93237800645458" lon="5.009378476462441"><ele>55.0</ele><time>2026-04-15T15:44:16Z</time></trkpt><trkpt lat="50.93227262624583" lon="5.0095289644849865"><ele>56.0</ele><time>2026-04-15T15:44:17Z</time></trkpt><trkpt lat="50.93216495203273" lon="5.009683788301712"><ele>57.0</ele><time>2026-04-15T15:44:18Z</time></trkpt><trkpt lat="50.93205807131601" lon="5.009827563465317"><ele>58.0</ele><time>2026-04-15T15:44:19Z</time></trkpt><trkpt lat="50.931945697192965" lon="5.0099658516739956"><ele>58.25</ele><time>2026-04-15T15:44:20Z</time></trkpt><trkpt lat="50.93184047019919" lon="5.010118480362496"><ele>58.5</ele><time>2026-04-15T15:44:21Z</time></trkpt><trkpt lat="50.931725049862855" lon="5.01025115857384"><ele>58.75</ele><time>2026-04-15T15:44:22Z</time></trkpt><trkpt lat="50.931614479699604" lon="5.010405654326372"><ele>59.0</ele><time>2026-04-15T15:44:23Z</time></trkpt><trkpt lat="50.931519502963674" lon="5.010572538807382"><ele>60.5</ele><time>2026-04-15T15:44:24Z</time></trkpt><trkpt lat="50.931407499195366" lon="5.010723302798991"><ele>62.0</ele><time>2026-04-15T15:44:25Z</time></trkpt><trkpt lat="50.93130305058004" lon="5.010868222427012"><ele>63.5</ele><time>2026-04-15T15:44:26Z</time></trkpt><trkpt lat="50.93118193383251" lon="5.011003835455467"><ele>65.0</ele><time>2026-04-15T15:44:27Z</time></trkpt><trkpt lat="50.93107341965852" lon="5.011149205654025"><ele>65.5</ele><time>2026-04-15T15:44:28Z</time></trkpt><trkpt lat="50.930970492727866" lon="5.011286223665849"><ele>66.0</ele><time>2026-04-15T15:44:29Z</time></trkpt><trkpt lat="50.93086055375457" lon="5.011423736266238"><ele>66.5</ele><time>2026-04-15T15:44:30Z</time></trkpt><trkpt lat="50.93074873838719" lon="5.011560756735834"><ele>67.0</ele><time>2026-04-15T15:44:30.999Z</time></trkpt><trkpt lat="50.9306499347873" lon="5.01170937769333"><ele>68.25</ele><time>2026-04-15T15:44:31.999Z</time></trkpt><trkpt lat="50.93054407338512" lon="5.011836379141664"><ele>69.5</ele><time>2026-04-15T15:44:32.999Z</time></trkpt><trkpt lat="50.93043887240512" lon="5.011973942732329"><ele>70.75</ele><time>2026-04-15T15:44:33.999Z</time></trkpt><trkpt lat="50.93033928765002" lon="5.012111258322433"><ele>72.0</ele><time>2026-04-15T15:44:34.999Z</time></trkpt><trkpt lat="50.93023489168583" lon="5.012198521506597"><ele>72.0</ele><time>2026-04-15T15:44:35.999Z</time></trkpt><trkpt lat="50.93014219766108" lon="5.012287597073137"><ele>72.0</ele><time>2026-04-15T15:44:36.999Z</time></trkpt><trkpt lat="50.930032292532275" lon="5.012380861354146"><ele>72.0</ele><time>2026-04-15T15:44:37.999Z</time></trkpt><trkpt lat="50.9299167497683" lon="5.012475754606683"><ele>72.0</ele><time>2026-04-15T15:44:38.999Z</time></trkpt><trkpt lat="50.92982700417032" lon="5.012553026114928"><ele>72.2</ele><time>2026-04-15T15:44:39.999Z</time></trkpt><trkpt lat="50.929749935560466" lon="5.01261937995186"><ele>72.4</ele><time>2026-04-15T15:44:40.999Z</time></trkpt><trkpt lat="50.929660295765075" lon="5.0126614037947705"><ele>72.6</ele><time>2026-04-15T15:44:41.999Z</time></trkpt><trkpt lat="50.92954991267311" lon="5.0127177342153635"><ele>72.8</ele><time>2026-04-15T15:44:42.999Z</time></trkpt><trkpt lat="50.92943422676738" lon="5.012759991825796"><ele>73.0</ele><time>2026-04-15T15:44:43.999Z</time></trkpt><trkpt lat="50.929305384323186" lon="5.012788496565529"><ele>72.33333333333333</ele><time>2026-04-15T15:44:44.999Z</time></trkpt><trkpt lat="50.92920939343101" lon="5.012826526464814"><ele>71.66666666666666</ele><time>2026-04-15T15:44:45.999Z</time></trkpt><trkpt lat="50.92911852641783" lon="5.012903168995677"><ele>71.0</ele><time>2026-04-15T15:44:46.999Z</time></trkpt><trkpt lat="50.92902523694462" lon="5.0129404410263305"><ele>70.33333333333333</ele><time>2026-04-15T15:44:47.999Z</time></trkpt><trkpt lat="50.92894407226511" lon="5.012961029645227"><ele>69.66666666666667</ele><time>2026-04-15T15:44:48.999Z</time></trkpt><trkpt lat="50.92888166597355" lon="5.012923633885344"><ele>69.0</ele><time>2026-04-15T15:44:49.999Z</time></trkpt><trkpt lat="50.92880193600119" lon="5.012880588946683"><ele>69.0</ele><time>2026-04-15T15:44:50.999Z</time></trkpt><trkpt lat="50.928701264443994" lon="5.01283507063176"><ele>69.0</ele><time>2026-04-15T15:44:51.999Z</time></trkpt><trkpt lat="50.928580171971575" lon="5.012805764257316"><ele>69.0</ele><time>2026-04-15T15:44:52.999Z</time></trkpt><trkpt lat="50.92846745876159" lon="5.012754496244224"><ele>69.0</ele><time>2026-04-15T15:44:53.999Z</time></trkpt><trkpt lat="50.928369241129055" lon="5.012711502462602"><ele>69.0</ele><time>2026-04-15T15:44:54.999Z</time></trkpt><trkpt lat="50.92826731601524" lon="5.012630667483754"><ele>67.5</ele><time>2026-04-15T15:44:55.999Z</time></trkpt><trkpt lat="50.92814601429198" lon="5.0125669320159405"><ele>66.0</ele><time>2026-04-15T15:44:56.999Z</time></trkpt><trkpt lat="50.92800859720539" lon="5.012522424038095"><ele>64.5</ele><time>2026-04-15T15:44:57.999Z</time></trkpt><trkpt lat="50.92787755002697" lon="5.012419051036607"><ele>63.0</ele><time>2026-04-15T15:44:58.999Z</time></trkpt><trkpt lat="50.927743000301746" lon="5.012341311170423"><ele>63.0</ele><time>2026-04-15T15:44:59.999Z</time></trkpt><trkpt lat="50.927621950885815" lon="5.012263056632832"><ele>63.0</ele><time>2026-04-15T15:45:00.999Z</time></trkpt><trkpt lat="50.92750401613321" lon="5.012185037403001"><ele>63.0</ele><time>2026-04-15T15:45:01.999Z</time></trkpt><trkpt lat="50.92738715614787" lon="5.012085424249706"><ele>63.0</ele><time>2026-04-15T15:45:02.999Z</time></trkpt><trkpt lat="50.92727059332167" lon="5.011980175059283"><ele>62.5</ele><time>2026-04-15T15:45:03.999Z</time></trkpt><trkpt lat="50.927145882285274" lon="5.011879732051618"><ele>62.0</ele><time>2026-04-15T15:45:04.999Z</time></trkpt><trkpt lat="50.92702278929703" lon="5.011775948540285"><ele>61.5</ele><time>2026-04-15T15:45:05.999Z</time></trkpt><trkpt lat="50.9269033501738" lon="5.011675269776292"><ele>61.0</ele><time>2026-04-15T15:45:06.999Z</time></trkpt><trkpt lat="50.92678730533694" lon="5.011592146611426"><ele>59.75</ele><time>2026-04-15T15:45:07.999Z</time></trkpt><trkpt lat="50.92668102012417" lon="5.011487501626861"><ele>58.5</ele><time>2026-04-15T15:45:08.999Z</time></trkpt><trkpt lat="50.926582012593684" lon="5.01135957663878"><ele>57.25</ele><time>2026-04-15T15:45:09.999Z</time></trkpt><trkpt lat="50.92647958101165" lon="5.011247943983768"><ele>56.0</ele><time>2026-04-15T15:45:10.999Z</time></trkpt><trkpt lat="50.92636457532829" lon="5.0111317446343175"><ele>56.0</ele><time>2026-04-15T15:45:11.999Z</time></trkpt><trkpt lat="50.9262484182913" lon="5.011038060303787"><ele>56.0</ele><time>2026-04-15T15:45:12.999Z</time></trkpt><trkpt lat="50.92613528879892" lon="5.010957998556865"><ele>56.0</ele><time>2026-04-15T15:45:13.999Z</time></trkpt><trkpt lat="50.926019396061896" lon="5.0108806709121545"><ele>56.0</ele><time>2026-04-15T15:45:14.999Z</time></trkpt><trkpt lat="50.92587446655713" lon="5.010811956062427"><ele>55.75</ele><time>2026-04-15T15:45:15.999Z</time></trkpt><trkpt lat="50.92575017466602" lon="5.010716998400416"><ele>55.5</ele><time>2026-04-15T15:45:16.999Z</time></trkpt><trkpt lat="50.92562090741649" lon="5.01063608178003"><ele>55.25</ele><time>2026-04-15T15:45:17.999Z</time></trkpt><trkpt lat="50.92549797953775" lon="5.010553599181589"><ele>55.0</ele><time>2026-04-15T15:45:18.999Z</time></trkpt><trkpt lat="50.92537264131713" lon="5.010476143744088"><ele>55.0</ele><time>2026-04-15T15:45:19.998Z</time></trkpt><trkpt lat="50.92525525758719" lon="5.010403319489154"><ele>55.0</ele><time>2026-04-15T15:45:20.998Z</time></trkpt><trkpt lat="50.92514893387819" lon="5.010332506469398"><ele>55.0</ele><time>2026-04-15T15:45:21.998Z</time></trkpt><trkpt lat="50.92505981597478" lon="5.010276030552463"><ele>55.0</ele><time>2026-04-15T15:45:22.998Z</time></trkpt><trkpt lat="50.9249823913204" lon="5.010225493879879"><ele>55.0</ele><time>2026-04-15T15:45:23.998Z</time></trkpt><trkpt lat="50.92487622196933" lon="5.010150912293728"><ele>54.8</ele><time>2026-04-15T15:45:25.998Z</time></trkpt><trkpt lat="50.92479719112374" lon="5.010108656135006"><ele>54.6</ele><time>2026-04-15T15:45:27.998Z</time></trkpt><trkpt lat="50.92470009095066" lon="5.010244693903948"><ele>54.400000000000006</ele><time>2026-04-15T15:45:31.998Z</time></trkpt><trkpt lat="50.92471579988763" lon="5.010386052928459"><ele>54.2</ele><time>2026-04-15T15:45:32.998Z</time></trkpt><trkpt lat="50.92472504065537" lon="5.01055817263845"><ele>54.0</ele><time>2026-04-15T15:45:33.998Z</time></trkpt><trkpt lat="50.92472397347119" lon="5.010755844999929"><ele>54.0</ele><time>2026-04-15T15:45:34.998Z</time></trkpt><trkpt lat="50.92472569295841" lon="5.010966510689918"><ele>54.0</ele><time>2026-04-15T15:45:35.998Z</time></trkpt><trkpt lat="50.924726709606794" lon="5.011194303376923"><ele>54.0</ele><time>2026-04-15T15:45:36.998Z</time></trkpt><trkpt lat="50.92472769635257" lon="5.011438154832289"><ele>54.0</ele><time>2026-04-15T15:45:37.998Z</time></trkpt><trkpt lat="50.924727989225914" lon="5.011691451642862"><ele>54.33333333333333</ele><time>2026-04-15T15:45:38.998Z</time></trkpt><trkpt lat="50.924725907150375" lon="5.011967721620915"><ele>54.666666666666664</ele><time>2026-04-15T15:45:39.998Z</time></trkpt><trkpt lat="50.92473298753833" lon="5.012262035767939"><ele>55.0</ele><time>2026-04-15T15:45:40.998Z</time></trkpt><trkpt lat="50.92473921069463" lon="5.012577329319445"><ele>54.33333333333333</ele><time>2026-04-15T15:45:41.998Z</time></trkpt><trkpt lat="50.92476700271597" lon="5.012893089808216"><ele>53.66666666666667</ele><time>2026-04-15T15:45:42.998Z</time></trkpt><trkpt lat="50.92479766969453" lon="5.01321053819709"><ele>53.0</ele><time>2026-04-15T15:45:43.998Z</time></trkpt><trkpt lat="50.92483430685934" lon="5.013536842197131"><ele>53.0</ele><time>2026-04-15T15:45:44.998Z</time></trkpt><trkpt lat="50.924872784708995" lon="5.013873879288044"><ele>53.0</ele><time>2026-04-15T15:45:45.998Z</time></trkpt><trkpt lat="50.92491961438947" lon="5.0142179609122675"><ele>53.0</ele><time>2026-04-15T15:45:46.998Z</time></trkpt><trkpt lat="50.92497298865476" lon="5.014564940565952"><ele>53.0</ele><time>2026-04-15T15:45:47.998Z</time></trkpt><trkpt lat="50.925035689602815" lon="5.014916097515689"><ele>53.0</ele><time>2026-04-15T15:45:48.998Z</time></trkpt><trkpt lat="50.925102451063324" lon="5.015264572709094"><ele>53.0</ele><time>2026-04-15T15:45:49.998Z</time></trkpt><trkpt lat="50.92517073536814" lon="5.015620168908248"><ele>53.0</ele><time>2026-04-15T15:45:50.998Z</time></trkpt><trkpt lat="50.92523918254043" lon="5.015968460015145"><ele>53.0</ele><time>2026-04-15T15:45:51.998Z</time></trkpt><trkpt lat="50.92530625591938" lon="5.016315732706949"><ele>53.0</ele><time>2026-04-15T15:45:52.998Z</time></trkpt><trkpt lat="50.92537349789832" lon="5.016675990918926"><ele>53.0</ele><time>2026-04-15T15:45:53.998Z</time></trkpt><trkpt lat="50.925440666409536" lon="5.017040755772395"><ele>53.0</ele><time>2026-04-15T15:45:54.998Z</time></trkpt><trkpt lat="50.9255015953973" lon="5.017406827176931"><ele>53.0</ele><time>2026-04-15T15:45:55.998Z</time></trkpt><trkpt lat="50.9255679968895" lon="5.0177623042324875"><ele>53.0</ele><time>2026-04-15T15:45:56.998Z</time></trkpt><trkpt lat="50.92563186782955" lon="5.018122287974596"><ele>52.5</ele><time>2026-04-15T15:45:57.998Z</time></trkpt><trkpt lat="50.9256973846722" lon="5.01850030424121"><ele>52.0</ele><time>2026-04-15T15:45:58.998Z</time></trkpt><trkpt lat="50.92577190544163" lon="5.018858370795663"><ele>51.5</ele><time>2026-04-15T15:45:59.998Z</time></trkpt><trkpt lat="50.92583760727377" lon="5.019213312777932"><ele>51.0</ele><time>2026-04-15T15:46:00.998Z</time></trkpt><trkpt lat="50.92590478578067" lon="5.019562427387564"><ele>51.66666666666667</ele><time>2026-04-15T15:46:01.998Z</time></trkpt><trkpt lat="50.92596110046503" lon="5.019913995761336"><ele>52.333333333333336</ele><time>2026-04-15T15:46:02.998Z</time></trkpt><trkpt lat="50.926035033022956" lon="5.020242973564656"><ele>53.0</ele><time>2026-04-15T15:46:04Z</time></trkpt><trkpt lat="50.926115587590424" lon="5.0205741354723745"><ele>53.0</ele><time>2026-04-15T15:46:05Z</time></trkpt><trkpt lat="50.92621131115113" lon="5.020890338008898"><ele>53.0</ele><time>2026-04-15T15:46:06Z</time></trkpt><trkpt lat="50.9263172298561" lon="5.021199887021264"><ele>53.0</ele><time>2026-04-15T15:46:07Z</time></trkpt><trkpt lat="50.92643076448864" lon="5.021506682269231"><ele>53.333333333333336</ele><time>2026-04-15T15:46:08Z</time></trkpt><trkpt lat="50.92655175008018" lon="5.0217891486968504"><ele>53.66666666666667</ele><time>2026-04-15T15:46:09Z</time></trkpt><trkpt lat="50.926673609682126" lon="5.022090281595594"><ele>54.0</ele><time>2026-04-15T15:46:10Z</time></trkpt><trkpt lat="50.92679593203682" lon="5.0223761809495935"><ele>56.66666666666667</ele><time>2026-04-15T15:46:11Z</time></trkpt><trkpt lat="50.92691835235925" lon="5.022668409903482"><ele>59.333333333333336</ele><time>2026-04-15T15:46:12Z</time></trkpt><trkpt lat="50.92704052228952" lon="5.022958234744137"><ele>62.0</ele><time>2026-04-15T15:46:13Z</time></trkpt><trkpt lat="50.927163729016506" lon="5.02324189586098"><ele>60.0</ele><time>2026-04-15T15:46:14Z</time></trkpt><trkpt lat="50.92728479485047" lon="5.023532246892256"><ele>58.0</ele><time>2026-04-15T15:46:15Z</time></trkpt><trkpt lat="50.92740358078944" lon="5.023822438033046"><ele>56.0</ele><time>2026-04-15T15:46:16Z</time></trkpt><trkpt lat="50.92752287720777" lon="5.024110816545566"><ele>56.333333333333336</ele><time>2026-04-15T15:46:17Z</time></trkpt><trkpt lat="50.92763953074942" lon="5.0243986194679096"><ele>56.66666666666667</ele><time>2026-04-15T15:46:18Z</time></trkpt><trkpt lat="50.927757638472244" lon="5.024691338089027"><ele>57.0</ele><time>2026-04-15T15:46:19Z</time></trkpt><trkpt lat="50.927873219458434" lon="5.024970247786837"><ele>57.33333333333333</ele><time>2026-04-15T15:46:20Z</time></trkpt><trkpt lat="50.927985485891625" lon="5.025254953707232"><ele>57.666666666666664</ele><time>2026-04-15T15:46:21Z</time></trkpt><trkpt lat="50.92809938493374" lon="5.0255620604787525"><ele>58.0</ele><time>2026-04-15T15:46:22Z</time></trkpt><trkpt lat="50.92820443503965" lon="5.0258540264092"><ele>58.0</ele><time>2026-04-15T15:46:23Z</time></trkpt><trkpt lat="50.92830687816494" lon="5.026164241007555"><ele>58.0</ele><time>2026-04-15T15:46:24Z</time></trkpt><trkpt lat="50.928403473095536" lon="5.026474018364341"><ele>58.0</ele><time>2026-04-15T15:46:25Z</time></trkpt><trkpt lat="50.92850451972083" lon="5.026792557330719"><ele>60.0</ele><time>2026-04-15T15:46:26Z</time></trkpt><trkpt lat="50.928601532761874" lon="5.027101217818554"><ele>62.0</ele><time>2026-04-15T15:46:27Z</time></trkpt><trkpt lat="50.92870122750533" lon="5.027415502999522"><ele>64.0</ele><time>2026-04-15T15:46:28Z</time></trkpt><trkpt lat="50.928799214427514" lon="5.02772278959487"><ele>64.0</ele><time>2026-04-15T15:46:29Z</time></trkpt><trkpt lat="50.92889541762935" lon="5.028026035568626"><ele>64.0</ele><time>2026-04-15T15:46:30Z</time></trkpt><trkpt lat="50.92899654984424" lon="5.028339863655312"><ele>64.0</ele><time>2026-04-15T15:46:31Z</time></trkpt><trkpt lat="50.92909602850205" lon="5.028652045960594"><ele>61.666666666666664</ele><time>2026-04-15T15:46:32Z</time></trkpt><trkpt lat="50.9291924355964" lon="5.028955498160042"><ele>59.33333333333333</ele><time>2026-04-15T15:46:32.999Z</time></trkpt><trkpt lat="50.92928731550367" lon="5.0292556500477525"><ele>57.0</ele><time>2026-04-15T15:46:33.999Z</time></trkpt><trkpt lat="50.92938230372878" lon="5.029566288358086"><ele>56.33333333333333</ele><time>2026-04-15T15:46:34.999Z</time></trkpt><trkpt lat="50.92947623581172" lon="5.0298692141720185"><ele>55.666666666666664</ele><time>2026-04-15T15:46:35.999Z</time></trkpt><trkpt lat="50.92957148140571" lon="5.030169719481992"><ele>55.0</ele><time>2026-04-15T15:46:36.999Z</time></trkpt><trkpt lat="50.929661236218095" lon="5.03045526533021"><ele>55.0</ele><time>2026-04-15T15:46:37.999Z</time></trkpt><trkpt lat="50.92974482362188" lon="5.030717003071354"><ele>55.0</ele><time>2026-04-15T15:46:38.999Z</time></trkpt><trkpt lat="50.92982222232598" lon="5.030972178748058"><ele>55.0</ele><time>2026-04-15T15:46:39.999Z</time></trkpt><trkpt lat="50.92989462719715" lon="5.0312017842896966"><ele>54.666666666666664</ele><time>2026-04-15T15:46:40.999Z</time></trkpt><trkpt lat="50.92997376474684" lon="5.031445654636843"><ele>54.33333333333333</ele><time>2026-04-15T15:46:41.999Z</time></trkpt><trkpt lat="50.93004933078313" lon="5.031680421412269"><ele>54.0</ele><time>2026-04-15T15:46:42.999Z</time></trkpt><trkpt lat="50.9301242225818" lon="5.031918716122572"><ele>54.0</ele><time>2026-04-15T15:46:43.999Z</time></trkpt><trkpt lat="50.93020240536783" lon="5.0321653132086785"><ele>54.0</ele><time>2026-04-15T15:46:44.999Z</time></trkpt><trkpt lat="50.93027865908536" lon="5.032400476690297"><ele>54.0</ele><time>2026-04-15T15:46:45.999Z</time></trkpt><trkpt lat="50.930356635405985" lon="5.03263473845784"><ele>54.0</ele><time>2026-04-15T15:46:46.999Z</time></trkpt><trkpt lat="50.93042664114439" lon="5.032855383811191"><ele>54.0</ele><time>2026-04-15T15:46:47.999Z</time></trkpt><trkpt lat="50.93049491730182" lon="5.033074964018714"><ele>54.0</ele><time>2026-04-15T15:46:48.999Z</time></trkpt><trkpt lat="50.93056513360931" lon="5.033297437990001"><ele>53.25</ele><time>2026-04-15T15:46:49.999Z</time></trkpt><trkpt lat="50.93063009257374" lon="5.03350952771859"><ele>52.5</ele><time>2026-04-15T15:46:50.999Z</time></trkpt><trkpt lat="50.93069533084913" lon="5.033719574116106"><ele>51.75</ele><time>2026-04-15T15:46:51.999Z</time></trkpt><trkpt lat="50.93076375711943" lon="5.0339319815439865"><ele>51.0</ele><time>2026-04-15T15:46:52.999Z</time></trkpt><trkpt lat="50.93083068858861" lon="5.0341392059468175"><ele>51.25</ele><time>2026-04-15T15:46:53.999Z</time></trkpt><trkpt lat="50.930895978830655" lon="5.0343492658702"><ele>51.5</ele><time>2026-04-15T15:46:54.999Z</time></trkpt><trkpt lat="50.930957966806446" lon="5.034539766010645"><ele>51.75</ele><time>2026-04-15T15:46:55.999Z</time></trkpt><trkpt lat="50.931016901808775" lon="5.0347246063006486"><ele>52.0</ele><time>2026-04-15T15:46:56.999Z</time></trkpt><trkpt lat="50.93107454456761" lon="5.034895191091123"><ele>51.75</ele><time>2026-04-15T15:46:57.999Z</time></trkpt><trkpt lat="50.93113636003987" lon="5.035074983172416"><ele>51.5</ele><time>2026-04-15T15:46:58.999Z</time></trkpt><trkpt lat="50.93120027281351" lon="5.035249926938839"><ele>51.25</ele><time>2026-04-15T15:46:59.999Z</time></trkpt><trkpt lat="50.93125743684908" lon="5.0354123050031845"><ele>51.0</ele><time>2026-04-15T15:47:00.999Z</time></trkpt><trkpt lat="50.93131227398202" lon="5.0355614744639645"><ele>51.0</ele><time>2026-04-15T15:47:01.999Z</time></trkpt><trkpt lat="50.931367521478286" lon="5.035714830976628"><ele>51.0</ele><time>2026-04-15T15:47:02.999Z</time></trkpt><trkpt lat="50.93142710757233" lon="5.035866262809104"><ele>51.0</ele><time>2026-04-15T15:47:03.999Z</time></trkpt><trkpt lat="50.93149222812787" lon="5.036025371483933"><ele>51.0</ele><time>2026-04-15T15:47:04.999Z</time></trkpt><trkpt lat="50.93155207967313" lon="5.036168752173332"><ele>51.0</ele><time>2026-04-15T15:47:05.999Z</time></trkpt><trkpt lat="50.93161833460434" lon="5.036309698557864"><ele>51.0</ele><time>2026-04-15T15:47:06.999Z</time></trkpt><trkpt lat="50.93168444272843" lon="5.036436973502721"><ele>51.0</ele><time>2026-04-15T15:47:07.999Z</time></trkpt><trkpt lat="50.93174578517885" lon="5.03655038370397"><ele>51.0</ele><time>2026-04-15T15:47:08.999Z</time></trkpt><trkpt lat="50.93179820525694" lon="5.03665449812051"><ele>51.0</ele><time>2026-04-15T15:47:09.999Z</time></trkpt><trkpt lat="50.93184862846281" lon="5.03675253055533"><ele>51.0</ele><time>2026-04-15T15:47:10.999Z</time></trkpt><trkpt lat="50.93190556520696" lon="5.036861535906044"><ele>51.0</ele><time>2026-04-15T15:47:11.999Z</time></trkpt><trkpt lat="50.931968932182365" lon="5.036976697045571"><ele>51.0</ele><time>2026-04-15T15:47:12.999Z</time></trkpt><trkpt lat="50.93203111692015" lon="5.037088974656004"><ele>51.0</ele><time>2026-04-15T15:47:13.999Z</time></trkpt><trkpt lat="50.932097987371726" lon="5.0372120433642005"><ele>51.0</ele><time>2026-04-15T15:47:14.999Z</time></trkpt><trkpt lat="50.932167594856665" lon="5.0373382392909285"><ele>51.0</ele><time>2026-04-15T15:47:15.999Z</time></trkpt><trkpt lat="50.93223456826218" lon="5.037459784441363"><ele>51.0</ele><time>2026-04-15T15:47:16.999Z</time></trkpt><trkpt lat="50.93232399340896" lon="5.037592935520166"><ele>51.0</ele><time>2026-04-15T15:47:17.999Z</time></trkpt><trkpt lat="50.9324316861458" lon="5.037753177954707"><ele>51.0</ele><time>2026-04-15T15:47:18.999Z</time></trkpt><trkpt lat="50.932539186454065" lon="5.03794465223775"><ele>51.33333333333333</ele><time>2026-04-15T15:47:19.999Z</time></trkpt><trkpt lat="50.93264510409119" lon="5.038157098568702"><ele>51.666666666666664</ele><time>2026-04-15T15:47:20.999Z</time></trkpt><trkpt lat="50.93274980491341" lon="5.038383261172862"><ele>52.0</ele><time>2026-04-15T15:47:21.998Z</time></trkpt><trkpt lat="50.93284763932676" lon="5.038594693341827"><ele>52.0</ele><time>2026-04-15T15:47:22.998Z</time></trkpt><trkpt lat="50.93294710053622" lon="5.038802763074155"><ele>52.0</ele><time>2026-04-15T15:47:23.998Z</time></trkpt><trkpt lat="50.93304112241125" lon="5.0390241070615325"><ele>52.0</ele><time>2026-04-15T15:47:24.998Z</time></trkpt><trkpt lat="50.933130700509196" lon="5.039249529774245"><ele>51.0</ele><time>2026-04-15T15:47:25.998Z</time></trkpt><trkpt lat="50.933215510886505" lon="5.039475206244496"><ele>50.0</ele><time>2026-04-15T15:47:26.998Z</time></trkpt><trkpt lat="50.933299269800095" lon="5.039714334789684"><ele>49.0</ele><time>2026-04-15T15:47:27.998Z</time></trkpt><trkpt lat="50.93337941706552" lon="5.039960057535854"><ele>50.0</ele><time>2026-04-15T15:47:28.998Z</time></trkpt><trkpt lat="50.93345478215825" lon="5.04019951184768"><ele>51.0</ele><time>2026-04-15T15:47:29.998Z</time></trkpt><trkpt lat="50.933526081207056" lon="5.040429242316057"><ele>52.0</ele><time>2026-04-15T15:47:30.998Z</time></trkpt><trkpt lat="50.9335964595331" lon="5.040670103636836"><ele>51.666666666666664</ele><time>2026-04-15T15:47:31.998Z</time></trkpt><trkpt lat="50.933663006515104" lon="5.04090679854774"><ele>51.33333333333333</ele><time>2026-04-15T15:47:32.998Z</time></trkpt><trkpt lat="50.93372702029088" lon="5.041139990015533"><ele>51.0</ele><time>2026-04-15T15:47:33.998Z</time></trkpt><trkpt lat="50.93379302701486" lon="5.0413811546906055"><ele>51.0</ele><time>2026-04-15T15:47:34.998Z</time></trkpt><trkpt lat="50.9338518345461" lon="5.041615356192858"><ele>51.0</ele><time>2026-04-15T15:47:35.998Z</time></trkpt><trkpt lat="50.93392320448603" lon="5.041846559237468"><ele>51.0</ele><time>2026-04-15T15:47:36.998Z</time></trkpt><trkpt lat="50.933981450967515" lon="5.042082327674278"><ele>51.0</ele><time>2026-04-15T15:47:37.998Z</time></trkpt><trkpt lat="50.934029053473374" lon="5.042333930995628"><ele>51.0</ele><time>2026-04-15T15:47:38.998Z</time></trkpt><trkpt lat="50.934072850041005" lon="5.0425855985276495"><ele>51.0</ele><time>2026-04-15T15:47:39.998Z</time></trkpt><trkpt lat="50.934111321885304" lon="5.042843349499648"><ele>50.66666666666667</ele><time>2026-04-15T15:47:40.998Z</time></trkpt><trkpt lat="50.93413924838823" lon="5.0430981269840425"><ele>50.333333333333336</ele><time>2026-04-15T15:47:41.998Z</time></trkpt><trkpt lat="50.93415947899838" lon="5.043364962868157"><ele>50.0</ele><time>2026-04-15T15:47:42.998Z</time></trkpt><trkpt lat="50.934170764505744" lon="5.043627720336484"><ele>49.66666666666667</ele><time>2026-04-15T15:47:43.998Z</time></trkpt><trkpt lat="50.93417552801034" lon="5.043879677198289"><ele>49.33333333333333</ele><time>2026-04-15T15:47:44.998Z</time></trkpt><trkpt lat="50.934172038015106" lon="5.044133447904966"><ele>49.0</ele><time>2026-04-15T15:47:45.998Z</time></trkpt><trkpt lat="50.93415827467738" lon="5.044380394092359"><ele>49.0</ele><time>2026-04-15T15:47:46.998Z</time></trkpt><trkpt lat="50.93411619276027" lon="5.044617591757118"><ele>49.0</ele><time>2026-04-15T15:47:47.998Z</time></trkpt><trkpt lat="50.93409817841956" lon="5.0448610322593055"><ele>49.0</ele><time>2026-04-15T15:47:48.998Z</time></trkpt><trkpt lat="50.934059846686516" lon="5.045104339458292"><ele>49.0</ele><time>2026-04-15T15:47:49.998Z</time></trkpt><trkpt lat="50.934017654349546" lon="5.045347485034167"><ele>49.0</ele><time>2026-04-15T15:47:50.998Z</time></trkpt><trkpt lat="50.933988650621316" lon="5.045596355877027"><ele>49.0</ele><time>2026-04-15T15:47:51.998Z</time></trkpt><trkpt lat="50.93398243425654" lon="5.045845780051751"><ele>49.33333333333333</ele><time>2026-04-15T15:47:52.998Z</time></trkpt><trkpt lat="50.93399416456123" lon="5.046088025579358"><ele>49.66666666666667</ele><time>2026-04-15T15:47:53.998Z</time></trkpt><trkpt lat="50.93401650400687" lon="5.046329505782938"><ele>50.0</ele><time>2026-04-15T15:47:54.998Z</time></trkpt><trkpt lat="50.93403933438866" lon="5.046571588116943"><ele>49.66666666666667</ele><time>2026-04-15T15:47:55.998Z</time></trkpt><trkpt lat="50.93406020631024" lon="5.046816514291436"><ele>49.33333333333333</ele><time>2026-04-15T15:47:56.998Z</time></trkpt><trkpt lat="50.934078540709535" lon="5.047066486553226"><ele>49.0</ele><time>2026-04-15T15:47:57.998Z</time></trkpt><trkpt lat="50.93409874271158" lon="5.047310933303842"><ele>49.0</ele><time>2026-04-15T15:47:58.998Z</time></trkpt><trkpt lat="50.93410118800615" lon="5.04755690321112"><ele>49.0</ele><time>2026-04-15T15:47:59.998Z</time></trkpt><trkpt lat="50.934105981937805" lon="5.047799723475001"><ele>49.0</ele><time>2026-04-15T15:48:00.998Z</time></trkpt><trkpt lat="50.9341079183324" lon="5.04804616379514"><ele>49.0</ele><time>2026-04-15T15:48:01.998Z</time></trkpt><trkpt lat="50.93410463557384" lon="5.048282293804096"><ele>49.0</ele><time>2026-04-15T15:48:02.998Z</time></trkpt><trkpt lat="50.93410859671368" lon="5.048507132455583"><ele>49.0</ele><time>2026-04-15T15:48:03.998Z</time></trkpt><trkpt lat="50.93409223834502" lon="5.048733221965579"><ele>49.0</ele><time>2026-04-15T15:48:04.998Z</time></trkpt><trkpt lat="50.93408302704415" lon="5.048964078919276"><ele>48.0</ele><time>2026-04-15T15:48:05.998Z</time></trkpt><trkpt lat="50.934077191400654" lon="5.049199787057709"><ele>47.0</ele><time>2026-04-15T15:48:06.998Z</time></trkpt><trkpt lat="50.93407778321253" lon="5.049440673505113"><ele>46.0</ele><time>2026-04-15T15:48:07.998Z</time></trkpt><trkpt lat="50.934091581704536" lon="5.049684301354924"><ele>46.0</ele><time>2026-04-15T15:48:08.998Z</time></trkpt><trkpt lat="50.934108556412156" lon="5.049925159935673"><ele>46.0</ele><time>2026-04-15T15:48:10Z</time></trkpt><trkpt lat="50.93410260939954" lon="5.050152219828924"><ele>46.0</ele><time>2026-04-15T15:48:11Z</time></trkpt><trkpt lat="50.93406561552777" lon="5.050382578519131"><ele>46.0</ele><time>2026-04-15T15:48:12Z</time></trkpt><trkpt lat="50.93400962778267" lon="5.050604653830614"><ele>46.333333333333336</ele><time>2026-04-15T15:48:13Z</time></trkpt><trkpt lat="50.93395019422335" lon="5.050829868212873"><ele>46.666666666666664</ele><time>2026-04-15T15:48:14Z</time></trkpt><trkpt lat="50.93389500057033" lon="5.051059958902102"><ele>47.0</ele><time>2026-04-15T15:48:15Z</time></trkpt><trkpt lat="50.933840165980754" lon="5.051295020649354"><ele>47.0</ele><time>2026-04-15T15:48:16Z</time></trkpt><trkpt lat="50.93378624356314" lon="5.0515395158124115"><ele>47.0</ele><time>2026-04-15T15:48:17Z</time></trkpt><trkpt lat="50.93372614963227" lon="5.051784289273387"><ele>47.0</ele><time>2026-04-15T15:48:18Z</time></trkpt><trkpt lat="50.93367054651399" lon="5.052023972631192"><ele>46.666666666666664</ele><time>2026-04-15T15:48:19Z</time></trkpt><trkpt lat="50.93361211848927" lon="5.0522754531689555"><ele>46.333333333333336</ele><time>2026-04-15T15:48:20Z</time></trkpt><trkpt lat="50.93355630455044" lon="5.052520423137199"><ele>46.0</ele><time>2026-04-15T15:48:21Z</time></trkpt><trkpt lat="50.93349968169208" lon="5.052766653595252"><ele>46.0</ele><time>2026-04-15T15:48:22Z</time></trkpt><trkpt lat="50.93344066403715" lon="5.053015975073616"><ele>46.0</ele><time>2026-04-15T15:48:23Z</time></trkpt><trkpt lat="50.93338533201817" lon="5.05326454268285"><ele>46.0</ele><time>2026-04-15T15:48:24Z</time></trkpt><trkpt lat="50.93331057996367" lon="5.053506831981861"><ele>44.0</ele><time>2026-04-15T15:48:25Z</time></trkpt><trkpt lat="50.933267980773735" lon="5.053766683110983"><ele>42.0</ele><time>2026-04-15T15:48:26Z</time></trkpt><trkpt lat="50.9332171022347" lon="5.054029768608305"><ele>40.0</ele><time>2026-04-15T15:48:27Z</time></trkpt><trkpt lat="50.933180937724835" lon="5.054291189127477"><ele>39.66666666666667</ele><time>2026-04-15T15:48:28Z</time></trkpt><trkpt lat="50.933154121344565" lon="5.054562861072214"><ele>39.333333333333336</ele><time>2026-04-15T15:48:29Z</time></trkpt><trkpt lat="50.933131308822375" lon="5.054829245870791"><ele>39.0</ele><time>2026-04-15T15:48:30Z</time></trkpt><trkpt lat="50.93309329349925" lon="5.055098060803631"><ele>38.333333333333336</ele><time>2026-04-15T15:48:30.999Z</time></trkpt><trkpt lat="50.93306861693446" lon="5.055365258245259"><ele>37.66666666666667</ele><time>2026-04-15T15:48:31.999Z</time></trkpt><trkpt lat="50.93304490189393" lon="5.055625459908582"><ele>37.0</ele><time>2026-04-15T15:48:32.999Z</time></trkpt><trkpt lat="50.933035833597636" lon="5.055896419201826"><ele>37.0</ele><time>2026-04-15T15:48:33.999Z</time></trkpt><trkpt lat="50.93301278422659" lon="5.056157951802848"><ele>37.0</ele><time>2026-04-15T15:48:34.999Z</time></trkpt><trkpt lat="50.9329860187872" lon="5.056418190981496"><ele>37.0</ele><time>2026-04-15T15:48:35.999Z</time></trkpt><trkpt lat="50.93295594289369" lon="5.056681413929734"><ele>37.0</ele><time>2026-04-15T15:48:36.999Z</time></trkpt><trkpt lat="50.932935118594976" lon="5.05695019875725"><ele>37.0</ele><time>2026-04-15T15:48:37.999Z</time></trkpt><trkpt lat="50.93291001163954" lon="5.057207736040586"><ele>37.0</ele><time>2026-04-15T15:48:38.999Z</time></trkpt><trkpt lat="50.93287421186498" lon="5.0574527168058045"><ele>37.333333333333336</ele><time>2026-04-15T15:48:39.999Z</time></trkpt><trkpt lat="50.93285120334848" lon="5.057704567696838"><ele>37.666666666666664</ele><time>2026-04-15T15:48:40.999Z</time></trkpt><trkpt lat="50.93282784219039" lon="5.057960278596813"><ele>38.0</ele><time>2026-04-15T15:48:41.999Z</time></trkpt><trkpt lat="50.93280454597949" lon="5.058216786968151"><ele>38.0</ele><time>2026-04-15T15:48:42.999Z</time></trkpt><trkpt lat="50.93278120776329" lon="5.058474342885929"><ele>38.0</ele><time>2026-04-15T15:48:43.999Z</time></trkpt><trkpt lat="50.93277043204412" lon="5.058737859435363"><ele>38.0</ele><time>2026-04-15T15:48:44.999Z</time></trkpt><trkpt lat="50.93273992099877" lon="5.058985194912705"><ele>38.33333333333333</ele><time>2026-04-15T15:48:45.999Z</time></trkpt><trkpt lat="50.932719224878056" lon="5.059233244517409"><ele>38.666666666666664</ele><time>2026-04-15T15:48:46.999Z</time></trkpt><trkpt lat="50.93269724171058" lon="5.059481696103948"><ele>39.0</ele><time>2026-04-15T15:48:47.999Z</time></trkpt><trkpt lat="50.93267474885276" lon="5.059727291360327"><ele>39.0</ele><time>2026-04-15T15:48:48.999Z</time></trkpt><trkpt lat="50.93265125493669" lon="5.0599752364121775"><ele>39.0</ele><time>2026-04-15T15:48:49.999Z</time></trkpt><trkpt lat="50.932637451363306" lon="5.060227352636378"><ele>39.0</ele><time>2026-04-15T15:48:50.999Z</time></trkpt><trkpt lat="50.93264072147076" lon="5.060472983904987"><ele>39.0</ele><time>2026-04-15T15:48:51.999Z</time></trkpt><trkpt lat="50.932654402991474" lon="5.060727278082046"><ele>39.0</ele><time>2026-04-15T15:48:52.999Z</time></trkpt><trkpt lat="50.93267316740844" lon="5.06096432220983"><ele>39.0</ele><time>2026-04-15T15:48:53.999Z</time></trkpt><trkpt lat="50.93269623636391" lon="5.06118039659869"><ele>38.8</ele><time>2026-04-15T15:48:54.999Z</time></trkpt><trkpt lat="50.93271367203168" lon="5.061383557143447"><ele>38.599999999999994</ele><time>2026-04-15T15:48:55.999Z</time></trkpt><trkpt lat="50.932729780507835" lon="5.06156196218738"><ele>38.4</ele><time>2026-04-15T15:48:56.999Z</time></trkpt><trkpt lat="50.93274392701007" lon="5.061727712242499"><ele>38.199999999999996</ele><time>2026-04-15T15:48:57.999Z</time></trkpt><trkpt lat="50.932757242530236" lon="5.0618840334775514"><ele>38.0</ele><time>2026-04-15T15:48:58.999Z</time></trkpt><trkpt lat="50.93277372371295" lon="5.062040088510372"><ele>38.0</ele><time>2026-04-15T15:48:59.999Z</time></trkpt><trkpt lat="50.9327860767837" lon="5.062187543605535"><ele>38.0</ele><time>2026-04-15T15:49:00.999Z</time></trkpt><trkpt lat="50.93279910222793" lon="5.062331491494491"><ele>38.0</ele><time>2026-04-15T15:49:01.999Z</time></trkpt><trkpt lat="50.93281288445086" lon="5.06246586468965"><ele>38.0</ele><time>2026-04-15T15:49:02.999Z</time></trkpt><trkpt lat="50.93282528523037" lon="5.062588638050879"><ele>38.0</ele><time>2026-04-15T15:49:03.999Z</time></trkpt><trkpt lat="50.93283427731702" lon="5.062697377826643"><ele>38.0</ele><time>2026-04-15T15:49:04.999Z</time></trkpt><trkpt lat="50.93284803195897" lon="5.062885643878631"><ele>38.166666666666664</ele><time>2026-04-15T15:49:06.999Z</time></trkpt><trkpt lat="50.93282712099166" lon="5.062997505430817"><ele>38.33333333333333</ele><time>2026-04-15T15:49:07.999Z</time></trkpt><trkpt lat="50.932767746115196" lon="5.063083489154198"><ele>38.5</ele><time>2026-04-15T15:49:08.999Z</time></trkpt><trkpt lat="50.93268500722932" lon="5.063120897816859"><ele>38.666666666666664</ele><time>2026-04-15T15:49:09.998Z</time></trkpt><trkpt lat="50.93259412131021" lon="5.063144530448414"><ele>38.833333333333336</ele><time>2026-04-15T15:49:10.998Z</time></trkpt><trkpt lat="50.93249999866928" lon="5.063177800997926"><ele>39.0</ele><time>2026-04-15T15:49:11.998Z</time></trkpt><trkpt lat="50.93241187373023" lon="5.0632205380554485"><ele>39.166666666666664</ele><time>2026-04-15T15:49:12.998Z</time></trkpt><trkpt lat="50.93233436402474" lon="5.063252334771903"><ele>39.333333333333336</ele><time>2026-04-15T15:49:13.998Z</time></trkpt><trkpt lat="50.932267805903074" lon="5.063276406066256"><ele>39.5</ele><time>2026-04-15T15:49:14.998Z</time></trkpt><trkpt lat="50.932166640014856" lon="5.063314157619427"><ele>39.66666666666667</ele><time>2026-04-15T15:49:16.998Z</time></trkpt><trkpt lat="50.93207813479638" lon="5.063347678462534"><ele>39.833333333333336</ele><time>2026-04-15T15:49:18.998Z</time></trkpt><trkpt lat="50.932006079768215" lon="5.063372916388005"><ele>40.0</ele><time>2026-04-15T15:49:21.998Z</time></trkpt><trkpt lat="50.931923716261316" lon="5.063404435424693"><ele>40.0</ele><time>2026-04-15T15:49:30.998Z</time></trkpt><trkpt lat="50.93185486628036" lon="5.063423617790486"><ele>40.0</ele><time>2026-04-15T15:49:32.998Z</time></trkpt><trkpt lat="50.93172377156542" lon="5.063459980271063"><ele>40.0</ele><time>2026-04-15T15:49:34.998Z</time></trkpt><trkpt lat="50.93165161433977" lon="5.063464266441172"><ele>40.0</ele><time>2026-04-15T15:49:35.998Z</time></trkpt><trkpt lat="50.93158190567614" lon="5.063464953010559"><ele>40.0</ele><time>2026-04-15T15:49:36.998Z</time></trkpt><trkpt lat="50.93149777153853" lon="5.063466438522717"><ele>40.0</ele><time>2026-04-15T15:49:37.998Z</time></trkpt><trkpt lat="50.931398464545474" lon="5.063465708708803"><ele>41.0</ele><time>2026-04-15T15:49:38.998Z</time></trkpt><trkpt lat="50.931286322313575" lon="5.063464539226809"><ele>42.0</ele><time>2026-04-15T15:49:39.998Z</time></trkpt><trkpt lat="50.93117040029507" lon="5.063469404541785"><ele>43.0</ele><time>2026-04-15T15:49:40.998Z</time></trkpt><trkpt lat="50.93104197880263" lon="5.063471315034248"><ele>44.0</ele><time>2026-04-15T15:49:41.998Z</time></trkpt><trkpt lat="50.93090626406877" lon="5.06345609090663"><ele>44.75</ele><time>2026-04-15T15:49:42.998Z</time></trkpt><trkpt lat="50.930773559534906" lon="5.0634363400346105"><ele>45.5</ele><time>2026-04-15T15:49:43.998Z</time></trkpt><trkpt lat="50.93063436676404" lon="5.063405982144371"><ele>46.25</ele><time>2026-04-15T15:49:44.998Z</time></trkpt><trkpt lat="50.93049488782402" lon="5.063364174998458"><ele>47.0</ele><time>2026-04-15T15:49:45.998Z</time></trkpt><trkpt lat="50.930356481779846" lon="5.0633065391268195"><ele>47.0</ele><time>2026-04-15T15:49:46.998Z</time></trkpt><trkpt lat="50.93021890155582" lon="5.063237007338925"><ele>47.0</ele><time>2026-04-15T15:49:47.998Z</time></trkpt><trkpt lat="50.93007862317326" lon="5.06315906484823"><ele>47.0</ele><time>2026-04-15T15:49:48.998Z</time></trkpt><trkpt lat="50.92993668446152" lon="5.063077969652878"><ele>47.0</ele><time>2026-04-15T15:49:49.998Z</time></trkpt><trkpt lat="50.92979271599934" lon="5.06299427776155"><ele>48.666666666666664</ele><time>2026-04-15T15:49:50.998Z</time></trkpt><trkpt lat="50.929653013195484" lon="5.062922697503805"><ele>50.33333333333333</ele><time>2026-04-15T15:49:51.998Z</time></trkpt><trkpt lat="50.929504765531085" lon="5.0628629086493575"><ele>52.0</ele><time>2026-04-15T15:49:52.998Z</time></trkpt><trkpt lat="50.92935081775648" lon="5.062842403813902"><ele>50.666666666666664</ele><time>2026-04-15T15:49:53.998Z</time></trkpt><trkpt lat="50.929196750546" lon="5.062877595882697"><ele>49.33333333333333</ele><time>2026-04-15T15:49:54.998Z</time></trkpt><trkpt lat="50.929050605030646" lon="5.062923452939041"><ele>48.0</ele><time>2026-04-15T15:49:55.998Z</time></trkpt><trkpt lat="50.92889768483213" lon="5.063005749724233"><ele>48.0</ele><time>2026-04-15T15:49:56.998Z</time></trkpt><trkpt lat="50.9287495227993" lon="5.063089111618594"><ele>48.0</ele><time>2026-04-15T15:49:57.997Z</time></trkpt><trkpt lat="50.92861093829705" lon="5.063167084757169"><ele>48.0</ele><time>2026-04-15T15:49:58.997Z</time></trkpt><trkpt lat="50.928487961998634" lon="5.063236276103783"><ele>48.0</ele><time>2026-04-15T15:49:59.997Z</time></trkpt><trkpt lat="50.92837941750483" lon="5.063322418237487"><ele>48.0</ele><time>2026-04-15T15:50:00.997Z</time></trkpt><trkpt lat="50.92825025680318" lon="5.063370018003832"><ele>48.0</ele><time>2026-04-15T15:50:01.997Z</time></trkpt><trkpt lat="50.928105874617444" lon="5.0634503560152755"><ele>48.0</ele><time>2026-04-15T15:50:02.997Z</time></trkpt><trkpt lat="50.927965666464594" lon="5.063554567125462"><ele>48.0</ele><time>2026-04-15T15:50:03.997Z</time></trkpt><trkpt lat="50.92782166759555" lon="5.06363200178176"><ele>48.0</ele><time>2026-04-15T15:50:04.997Z</time></trkpt><trkpt lat="50.92767876160452" lon="5.063709849090185"><ele>48.0</ele><time>2026-04-15T15:50:05.997Z</time></trkpt><trkpt lat="50.92753759021226" lon="5.063794153916694"><ele>48.0</ele><time>2026-04-15T15:50:06.997Z</time></trkpt><trkpt lat="50.92739205944438" lon="5.063879273564322"><ele>48.66666666666667</ele><time>2026-04-15T15:50:07.997Z</time></trkpt><trkpt lat="50.92724762462997" lon="5.063958756918549"><ele>49.333333333333336</ele><time>2026-04-15T15:50:08.997Z</time></trkpt><trkpt lat="50.927102733268086" lon="5.064035615937343"><ele>50.0</ele><time>2026-04-15T15:50:09.997Z</time></trkpt><trkpt lat="50.92696694944188" lon="5.064115321576481"><ele>50.0</ele><time>2026-04-15T15:50:10.997Z</time></trkpt><trkpt lat="50.9268367015867" lon="5.06421701536954"><ele>50.0</ele><time>2026-04-15T15:50:11.997Z</time></trkpt><trkpt lat="50.926709538652865" lon="5.064334235215523"><ele>50.0</ele><time>2026-04-15T15:50:12.997Z</time></trkpt><trkpt lat="50.926589327986" lon="5.064465937902659"><ele>50.0</ele><time>2026-04-15T15:50:13.997Z</time></trkpt><trkpt lat="50.92647396593323" lon="5.064616118223933"><ele>50.0</ele><time>2026-04-15T15:50:14.997Z</time></trkpt><trkpt lat="50.926348461199844" lon="5.064759781797488"><ele>50.0</ele><time>2026-04-15T15:50:15.999Z</time></trkpt><trkpt lat="50.926245240383196" lon="5.06494784489106"><ele>50.0</ele><time>2026-04-15T15:50:16.999Z</time></trkpt><trkpt lat="50.92613521206457" lon="5.065123252628118"><ele>50.0</ele><time>2026-04-15T15:50:17.999Z</time></trkpt><trkpt lat="50.92601895761451" lon="5.065306820990845"><ele>50.0</ele><time>2026-04-15T15:50:18.999Z</time></trkpt><trkpt lat="50.92589838610931" lon="5.0654905118459235"><ele>50.0</ele><time>2026-04-15T15:50:19.999Z</time></trkpt><trkpt lat="50.92577451166288" lon="5.065680654076181"><ele>49.0</ele><time>2026-04-15T15:50:20.999Z</time></trkpt><trkpt lat="50.92566189149681" lon="5.065858409632725"><ele>48.0</ele><time>2026-04-15T15:50:21.999Z</time></trkpt><trkpt lat="50.92555659738256" lon="5.06602408955654"><ele>47.0</ele><time>2026-04-15T15:50:23Z</time></trkpt><trkpt lat="50.92546181747972" lon="5.066178713823684"><ele>46.0</ele><time>2026-04-15T15:50:24Z</time></trkpt><trkpt lat="50.925360235313775" lon="5.066339504605614"><ele>46.0</ele><time>2026-04-15T15:50:25Z</time></trkpt><trkpt lat="50.925259756685286" lon="5.066500480277305"><ele>46.0</ele><time>2026-04-15T15:50:26Z</time></trkpt><trkpt lat="50.92515754696928" lon="5.0666624556693"><ele>46.0</ele><time>2026-04-15T15:50:27Z</time></trkpt><trkpt lat="50.925055967591696" lon="5.0668257769069465"><ele>46.0</ele><time>2026-04-15T15:50:28Z</time></trkpt><trkpt lat="50.924953852841696" lon="5.066989496068874"><ele>44.5</ele><time>2026-04-15T15:50:29Z</time></trkpt><trkpt lat="50.92485148541864" lon="5.067154416438937"><ele>43.0</ele><time>2026-04-15T15:50:30Z</time></trkpt><trkpt lat="50.924747464082266" lon="5.067320828093357"><ele>41.5</ele><time>2026-04-15T15:50:31Z</time></trkpt><trkpt lat="50.9246406488077" lon="5.06748699252524"><ele>40.0</ele><time>2026-04-15T15:50:32Z</time></trkpt><trkpt lat="50.92453066009299" lon="5.067661715207423"><ele>39.66666666666667</ele><time>2026-04-15T15:50:33Z</time></trkpt><trkpt lat="50.92441862474131" lon="5.067836204516558"><ele>39.333333333333336</ele><time>2026-04-15T15:50:34Z</time></trkpt><trkpt lat="50.92430304627473" lon="5.068015957383465"><ele>39.0</ele><time>2026-04-15T15:50:35Z</time></trkpt><trkpt lat="50.92419128730909" lon="5.068188607581746"><ele>37.333333333333336</ele><time>2026-04-15T15:50:36Z</time></trkpt><trkpt lat="50.924078248159425" lon="5.068361852549607"><ele>35.66666666666667</ele><time>2026-04-15T15:50:37Z</time></trkpt><trkpt lat="50.923966126284675" lon="5.068545569883917"><ele>34.0</ele><time>2026-04-15T15:50:38Z</time></trkpt><trkpt lat="50.92385314767875" lon="5.06873358009457"><ele>34.0</ele><time>2026-04-15T15:50:39Z</time></trkpt><trkpt lat="50.92374215450852" lon="5.068908627348795"><ele>34.0</ele><time>2026-04-15T15:50:40Z</time></trkpt><trkpt lat="50.92363046401021" lon="5.069085444464585"><ele>34.0</ele><time>2026-04-15T15:50:40.999Z</time></trkpt><trkpt lat="50.92352114968594" lon="5.06926306356634"><ele>33.66666666666667</ele><time>2026-04-15T15:50:41.999Z</time></trkpt><trkpt lat="50.92341035579286" lon="5.069440657795728"><ele>33.333333333333336</ele><time>2026-04-15T15:50:42.999Z</time></trkpt><trkpt lat="50.92328625410409" lon="5.069605018186671"><ele>33.0</ele><time>2026-04-15T15:50:43.999Z</time></trkpt><trkpt lat="50.92317215336046" lon="5.069785478787786"><ele>32.0</ele><time>2026-04-15T15:50:44.999Z</time></trkpt><trkpt lat="50.923057399136745" lon="5.069971740591293"><ele>31.0</ele><time>2026-04-15T15:50:45.999Z</time></trkpt><trkpt lat="50.922947079725546" lon="5.07015848798319"><ele>30.0</ele><time>2026-04-15T15:50:46.999Z</time></trkpt><trkpt lat="50.922853034850846" lon="5.0703801624531515"><ele>30.0</ele><time>2026-04-15T15:50:47.999Z</time></trkpt><trkpt lat="50.92275484131481" lon="5.0705870503512465"><ele>30.0</ele><time>2026-04-15T15:50:48.999Z</time></trkpt><trkpt lat="50.92266129842758" lon="5.070780467972238"><ele>30.0</ele><time>2026-04-15T15:50:49.999Z</time></trkpt><trkpt lat="50.92257325078826" lon="5.070954940772427"><ele>30.0</ele><time>2026-04-15T15:50:50.999Z</time></trkpt><trkpt lat="50.922488121596786" lon="5.071130024917556"><ele>30.0</ele><time>2026-04-15T15:50:51.999Z</time></trkpt><trkpt lat="50.922393136914344" lon="5.071316741247401"><ele>30.0</ele><time>2026-04-15T15:50:52.999Z</time></trkpt><trkpt lat="50.92230153766575" lon="5.071513898998336"><ele>30.0</ele><time>2026-04-15T15:50:53.999Z</time></trkpt><trkpt lat="50.922222579624886" lon="5.071726133649298"><ele>29.333333333333336</ele><time>2026-04-15T15:50:54.999Z</time></trkpt><trkpt lat="50.922113294566664" lon="5.0719164969893225"><ele>28.666666666666668</ele><time>2026-04-15T15:50:55.999Z</time></trkpt><trkpt lat="50.92202761516491" lon="5.072142370855502"><ele>28.0</ele><time>2026-04-15T15:50:56.999Z</time></trkpt><trkpt lat="50.921927257250296" lon="5.072352740314024"><ele>27.333333333333336</ele><time>2026-04-15T15:50:57.999Z</time></trkpt><trkpt lat="50.92182390697167" lon="5.072569703936229"><ele>26.666666666666664</ele><time>2026-04-15T15:50:58.999Z</time></trkpt><trkpt lat="50.921718070430416" lon="5.072786854860604"><ele>26.0</ele><time>2026-04-15T15:50:59.999Z</time></trkpt><trkpt lat="50.921596103598944" lon="5.072973402533679"><ele>25.666666666666664</ele><time>2026-04-15T15:51:00.999Z</time></trkpt><trkpt lat="50.921485203034784" lon="5.07319253752714"><ele>25.333333333333336</ele><time>2026-04-15T15:51:01.999Z</time></trkpt><trkpt lat="50.92136401100463" lon="5.073374741398936"><ele>25.0</ele><time>2026-04-15T15:51:02.999Z</time></trkpt><trkpt lat="50.92121962844577" lon="5.0735296998139665"><ele>25.666666666666668</ele><time>2026-04-15T15:51:03.999Z</time></trkpt><trkpt lat="50.92107749946821" lon="5.073678282096909"><ele>26.333333333333336</ele><time>2026-04-15T15:51:04.999Z</time></trkpt><trkpt lat="50.92093039800299" lon="5.0738209637088305"><ele>27.0</ele><time>2026-04-15T15:51:05.999Z</time></trkpt><trkpt lat="50.920784250570556" lon="5.073955426083624"><ele>28.0</ele><time>2026-04-15T15:51:06.999Z</time></trkpt><trkpt lat="50.92064223558898" lon="5.074116306896376"><ele>29.0</ele><time>2026-04-15T15:51:07.999Z</time></trkpt><trkpt lat="50.920499207876716" lon="5.074262013107975"><ele>30.0</ele><time>2026-04-15T15:51:08.999Z</time></trkpt><trkpt lat="50.920362011903116" lon="5.074422743723305"><ele>30.0</ele><time>2026-04-15T15:51:09.999Z</time></trkpt><trkpt lat="50.920228091738785" lon="5.074587654787565"><ele>30.0</ele><time>2026-04-15T15:51:10.999Z</time></trkpt><trkpt lat="50.92008580070695" lon="5.074728375387317"><ele>30.0</ele><time>2026-04-15T15:51:11.999Z</time></trkpt><trkpt lat="50.91996209986747" lon="5.074877705263522"><ele>29.0</ele><time>2026-04-15T15:51:12.999Z</time></trkpt><trkpt lat="50.9198529075" lon="5.075009427394592"><ele>28.0</ele><time>2026-04-15T15:51:13.999Z</time></trkpt><trkpt lat="50.919754248886555" lon="5.075127547115544"><ele>27.0</ele><time>2026-04-15T15:51:14.999Z</time></trkpt><trkpt lat="50.919664278102175" lon="5.075235694830317"><ele>26.0</ele><time>2026-04-15T15:51:15.999Z</time></trkpt><trkpt lat="50.919577381933706" lon="5.0753408638588375"><ele>26.0</ele><time>2026-04-15T15:51:16.999Z</time></trkpt><trkpt lat="50.91949867531509" lon="5.075434462788342"><ele>26.0</ele><time>2026-04-15T15:51:17.999Z</time></trkpt><trkpt lat="50.91944043779245" lon="5.075513679181953"><ele>26.0</ele><time>2026-04-15T15:51:18.999Z</time></trkpt><trkpt lat="50.91936542176923" lon="5.075525905987239"><ele>26.0</ele><time>2026-04-15T15:51:19.999Z</time></trkpt><trkpt lat="50.91925971909899" lon="5.07561473265364"><ele>26.0</ele><time>2026-04-15T15:51:21.999Z</time></trkpt><trkpt lat="50.91922992257267" lon="5.0757693100382335"><ele>26.5</ele><time>2026-04-15T15:51:22.999Z</time></trkpt><trkpt lat="50.91917041523329" lon="5.0758824563287295"><ele>27.0</ele><time>2026-04-15T15:51:23.999Z</time></trkpt><trkpt lat="50.91906672717511" lon="5.075957259728485"><ele>27.5</ele><time>2026-04-15T15:51:24.999Z</time></trkpt><trkpt lat="50.9189321637568" lon="5.075976202116891"><ele>28.0</ele><time>2026-04-15T15:51:25.999Z</time></trkpt><trkpt lat="50.91879720367177" lon="5.076048543077566"><ele>28.0</ele><time>2026-04-15T15:51:26.999Z</time></trkpt><trkpt lat="50.91866137934497" lon="5.076121347324883"><ele>28.0</ele><time>2026-04-15T15:51:27.999Z</time></trkpt><trkpt lat="50.91852184614595" lon="5.076194677330859"><ele>28.0</ele><time>2026-04-15T15:51:28.999Z</time></trkpt><trkpt lat="50.91837588750265" lon="5.0762714462423615"><ele>28.0</ele><time>2026-04-15T15:51:29.999Z</time></trkpt><trkpt lat="50.91821778465927" lon="5.0763547395882735"><ele>28.333333333333336</ele><time>2026-04-15T15:51:30.999Z</time></trkpt><trkpt lat="50.91805183344462" lon="5.0764680310962245"><ele>28.666666666666664</ele><time>2026-04-15T15:51:31.999Z</time></trkpt><trkpt lat="50.91788535749368" lon="5.076556244025597"><ele>29.0</ele><time>2026-04-15T15:51:32.999Z</time></trkpt><trkpt lat="50.91771820740301" lon="5.076641858099026"><ele>30.666666666666664</ele><time>2026-04-15T15:51:33.999Z</time></trkpt><trkpt lat="50.91754340552757" lon="5.076732292797223"><ele>32.333333333333336</ele><time>2026-04-15T15:51:34.998Z</time></trkpt><trkpt lat="50.917364736495976" lon="5.0768260163229515"><ele>34.0</ele><time>2026-04-15T15:51:35.998Z</time></trkpt><trkpt lat="50.91719479757013" lon="5.07691611350953"><ele>34.0</ele><time>2026-04-15T15:51:36.998Z</time></trkpt><trkpt lat="50.917026774684395" lon="5.077018795740271"><ele>34.0</ele><time>2026-04-15T15:51:37.998Z</time></trkpt><trkpt lat="50.91685743879004" lon="5.07713643899994"><ele>34.0</ele><time>2026-04-15T15:51:38.998Z</time></trkpt><trkpt lat="50.916699224398315" lon="5.077259752606344"><ele>35.0</ele><time>2026-04-15T15:51:39.998Z</time></trkpt><trkpt lat="50.91653678020866" lon="5.077398764063343"><ele>36.0</ele><time>2026-04-15T15:51:40.998Z</time></trkpt><trkpt lat="50.91637876280696" lon="5.077547761508486"><ele>37.0</ele><time>2026-04-15T15:51:41.998Z</time></trkpt><trkpt lat="50.916219033542475" lon="5.0777168845454845"><ele>37.333333333333336</ele><time>2026-04-15T15:51:42.998Z</time></trkpt><trkpt lat="50.91605299004254" lon="5.077865174788249"><ele>37.666666666666664</ele><time>2026-04-15T15:51:43.998Z</time></trkpt><trkpt lat="50.915897070974985" lon="5.078029887292974"><ele>38.0</ele><time>2026-04-15T15:51:44.998Z</time></trkpt><trkpt lat="50.91573815888756" lon="5.078197484329372"><ele>39.666666666666664</ele><time>2026-04-15T15:51:45.998Z</time></trkpt><trkpt lat="50.91558079337991" lon="5.078362790775628"><ele>41.333333333333336</ele><time>2026-04-15T15:51:46.998Z</time></trkpt><trkpt lat="50.91542001264526" lon="5.078531684844626"><ele>43.0</ele><time>2026-04-15T15:51:47.998Z</time></trkpt><trkpt lat="50.9152597250977" lon="5.078700060830822"><ele>43.0</ele><time>2026-04-15T15:51:48.998Z</time></trkpt><trkpt lat="50.91510234672145" lon="5.078865380809308"><ele>43.0</ele><time>2026-04-15T15:51:49.998Z</time></trkpt><trkpt lat="50.914948410557834" lon="5.079026531110026"><ele>43.0</ele><time>2026-04-15T15:51:50.998Z</time></trkpt><trkpt lat="50.91478912109543" lon="5.0791931953958835"><ele>43.66666666666667</ele><time>2026-04-15T15:51:51.998Z</time></trkpt><trkpt lat="50.91462998395767" lon="5.079359700351065"><ele>44.333333333333336</ele><time>2026-04-15T15:51:52.998Z</time></trkpt><trkpt lat="50.91446520318861" lon="5.079526339482931"><ele>45.0</ele><time>2026-04-15T15:51:53.998Z</time></trkpt><trkpt lat="50.914303366108754" lon="5.079694390610111"><ele>45.333333333333336</ele><time>2026-04-15T15:51:54.998Z</time></trkpt><trkpt lat="50.91413854539647" lon="5.079869383134516"><ele>45.66666666666667</ele><time>2026-04-15T15:51:55.998Z</time></trkpt><trkpt lat="50.91397714921299" lon="5.080040680928915"><ele>46.0</ele><time>2026-04-15T15:51:56.998Z</time></trkpt><trkpt lat="50.91381213289045" lon="5.080215757296031"><ele>46.0</ele><time>2026-04-15T15:51:57.998Z</time></trkpt><trkpt lat="50.91365632076931" lon="5.0804116633977525"><ele>46.0</ele><time>2026-04-15T15:51:58.998Z</time></trkpt><trkpt lat="50.91349003029086" lon="5.080588075806769"><ele>46.0</ele><time>2026-04-15T15:51:59.998Z</time></trkpt><trkpt lat="50.913329245769184" lon="5.080757080651266"><ele>46.66666666666667</ele><time>2026-04-15T15:52:00.998Z</time></trkpt><trkpt lat="50.91316538879358" lon="5.080929032091564"><ele>47.333333333333336</ele><time>2026-04-15T15:52:01.998Z</time></trkpt><trkpt lat="50.91299106414117" lon="5.081079902820049"><ele>48.0</ele><time>2026-04-15T15:52:02.998Z</time></trkpt><trkpt lat="50.912827148622476" lon="5.081251333880015"><ele>48.0</ele><time>2026-04-15T15:52:03.998Z</time></trkpt><trkpt lat="50.91266441808255" lon="5.081421525630674"><ele>48.0</ele><time>2026-04-15T15:52:04.998Z</time></trkpt><trkpt lat="50.91250503365399" lon="5.081588790869569"><ele>48.0</ele><time>2026-04-15T15:52:05.998Z</time></trkpt><trkpt lat="50.91234956830155" lon="5.081782475759631"><ele>48.66666666666667</ele><time>2026-04-15T15:52:06.998Z</time></trkpt><trkpt lat="50.91218834798032" lon="5.0819489359868815"><ele>49.333333333333336</ele><time>2026-04-15T15:52:07.998Z</time></trkpt><trkpt lat="50.912026751500186" lon="5.082117271359203"><ele>50.0</ele><time>2026-04-15T15:52:08.998Z</time></trkpt><trkpt lat="50.91186469682509" lon="5.082285102057517"><ele>50.0</ele><time>2026-04-15T15:52:09.998Z</time></trkpt><trkpt lat="50.911708856892865" lon="5.082446029381372"><ele>50.0</ele><time>2026-04-15T15:52:10.998Z</time></trkpt><trkpt lat="50.91155353955762" lon="5.0826098095088295"><ele>50.0</ele><time>2026-04-15T15:52:11.998Z</time></trkpt><trkpt lat="50.91139449888614" lon="5.082781069227413"><ele>50.0</ele><time>2026-04-15T15:52:12.998Z</time></trkpt><trkpt lat="50.91123688043098" lon="5.082949357685357"><ele>50.0</ele><time>2026-04-15T15:52:13.998Z</time></trkpt><trkpt lat="50.91107758687663" lon="5.083117904116112"><ele>50.0</ele><time>2026-04-15T15:52:14.998Z</time></trkpt><trkpt lat="50.910919540790985" lon="5.083281111750489"><ele>50.0</ele><time>2026-04-15T15:52:15.998Z</time></trkpt><trkpt lat="50.91076063012512" lon="5.083425456622525"><ele>50.0</ele><time>2026-04-15T15:52:16.998Z</time></trkpt><trkpt lat="50.910612300964246" lon="5.083615639017799"><ele>50.0</ele><time>2026-04-15T15:52:17.998Z</time></trkpt><trkpt lat="50.910451964069516" lon="5.083774863662018"><ele>50.0</ele><time>2026-04-15T15:52:18.998Z</time></trkpt><trkpt lat="50.91029179077636" lon="5.08393682849398"><ele>50.0</ele><time>2026-04-15T15:52:19.998Z</time></trkpt><trkpt lat="50.910145217628994" lon="5.084090921391841"><ele>50.0</ele><time>2026-04-15T15:52:21Z</time></trkpt><trkpt lat="50.90999013367736" lon="5.084245164068043"><ele>50.333333333333336</ele><time>2026-04-15T15:52:22Z</time></trkpt><trkpt lat="50.909826250224484" lon="5.084372100479391"><ele>50.66666666666667</ele><time>2026-04-15T15:52:23Z</time></trkpt><trkpt lat="50.9096716402229" lon="5.084526306201591"><ele>51.0</ele><time>2026-04-15T15:52:24Z</time></trkpt><trkpt lat="50.90951682937343" lon="5.084671416660752"><ele>51.0</ele><time>2026-04-15T15:52:25Z</time></trkpt><trkpt lat="50.90935336846041" lon="5.084811029303149"><ele>51.0</ele><time>2026-04-15T15:52:26Z</time></trkpt><trkpt lat="50.90919058485353" lon="5.084942784610001"><ele>51.0</ele><time>2026-04-15T15:52:27Z</time></trkpt><trkpt lat="50.909026827592804" lon="5.085075631962639"><ele>51.0</ele><time>2026-04-15T15:52:28Z</time></trkpt><trkpt lat="50.90887586061793" lon="5.08522726891497"><ele>51.0</ele><time>2026-04-15T15:52:29Z</time></trkpt><trkpt lat="50.908711830775935" lon="5.085330122329323"><ele>51.0</ele><time>2026-04-15T15:52:30Z</time></trkpt><trkpt lat="50.90855364329432" lon="5.085457777167996"><ele>49.666666666666664</ele><time>2026-04-15T15:52:31Z</time></trkpt><trkpt lat="50.90839453046901" lon="5.085584427976638"><ele>48.33333333333333</ele><time>2026-04-15T15:52:32Z</time></trkpt><trkpt lat="50.908239442153295" lon="5.085704578022024"><ele>47.0</ele><time>2026-04-15T15:52:33Z</time></trkpt><trkpt lat="50.908084290122794" lon="5.08582474591621"><ele>46.33333333333333</ele><time>2026-04-15T15:52:34Z</time></trkpt><trkpt lat="50.907930353181726" lon="5.08594875333898"><ele>45.666666666666664</ele><time>2026-04-15T15:52:35Z</time></trkpt><trkpt lat="50.90778385202921" lon="5.086065516068682"><ele>45.0</ele><time>2026-04-15T15:52:36Z</time></trkpt><trkpt lat="50.907656260220826" lon="5.086204412103179"><ele>45.5</ele><time>2026-04-15T15:52:37Z</time></trkpt><trkpt lat="50.90752579423865" lon="5.086309805714224"><ele>46.0</ele><time>2026-04-15T15:52:38Z</time></trkpt><trkpt lat="50.907416622621405" lon="5.086398939199249"><ele>46.5</ele><time>2026-04-15T15:52:39Z</time></trkpt><trkpt lat="50.90732180001312" lon="5.08646847740641"><ele>47.0</ele><time>2026-04-15T15:52:40Z</time></trkpt><trkpt lat="50.90724087637666" lon="5.086513602417606"><ele>47.0</ele><time>2026-04-15T15:52:41Z</time></trkpt><trkpt lat="50.90717252004354" lon="5.086532306800095"><ele>47.0</ele><time>2026-04-15T15:52:42Z</time></trkpt><trkpt lat="50.90709638985412" lon="5.086548125848411"><ele>47.0</ele><time>2026-04-15T15:52:43Z</time></trkpt><trkpt lat="50.90703633088409" lon="5.0866269778623465"><ele>47.0</ele><time>2026-04-15T15:52:44Z</time></trkpt><trkpt lat="50.907051751547804" lon="5.086944075549783"><ele>47.0</ele><time>2026-04-15T15:52:45Z</time></trkpt><trkpt lat="50.9070253072811" lon="5.0871345466232265"><ele>46.5</ele><time>2026-04-15T15:52:46Z</time></trkpt><trkpt lat="50.907023246387716" lon="5.087373408524566"><ele>46.0</ele><time>2026-04-15T15:52:46.999Z</time></trkpt><trkpt lat="50.907041791879465" lon="5.087595953773874"><ele>45.5</ele><time>2026-04-15T15:52:47.999Z</time></trkpt><trkpt lat="50.90703967267955" lon="5.0877876687073025"><ele>45.0</ele><time>2026-04-15T15:52:48.999Z</time></trkpt><trkpt lat="50.90703394612195" lon="5.087985220204177"><ele>45.0</ele><time>2026-04-15T15:52:49.999Z</time></trkpt><trkpt lat="50.90703673138046" lon="5.088195889004667"><ele>45.0</ele><time>2026-04-15T15:52:50.999Z</time></trkpt><trkpt lat="50.90703731785639" lon="5.08841719999611"><ele>45.0</ele><time>2026-04-15T15:52:51.999Z</time></trkpt><trkpt lat="50.907044895544146" lon="5.088654838531092"><ele>45.0</ele><time>2026-04-15T15:52:52.999Z</time></trkpt><trkpt lat="50.907057933173384" lon="5.088933554089395"><ele>45.333333333333336</ele><time>2026-04-15T15:52:53.999Z</time></trkpt><trkpt lat="50.907085504089345" lon="5.089216102210355"><ele>45.66666666666667</ele><time>2026-04-15T15:52:54.999Z</time></trkpt><trkpt lat="50.90711310435762" lon="5.089459516167936"><ele>46.0</ele><time>2026-04-15T15:52:55.999Z</time></trkpt><trkpt lat="50.90713830638919" lon="5.089662334013484"><ele>46.0</ele><time>2026-04-15T15:52:56.999Z</time></trkpt><trkpt lat="50.907149670387625" lon="5.089847581839854"><ele>46.0</ele><time>2026-04-15T15:52:57.999Z</time></trkpt><trkpt lat="50.90712076855305" lon="5.090047657006122"><ele>46.0</ele><time>2026-04-15T15:52:58.999Z</time></trkpt><trkpt lat="50.90703767955394" lon="5.090241730798598"><ele>46.0</ele><time>2026-04-15T15:52:59.999Z</time></trkpt><trkpt lat="50.90695458779835" lon="5.090483625579826"><ele>45.0</ele><time>2026-04-15T15:53:00.999Z</time></trkpt><trkpt lat="50.90686682101195" lon="5.090767355335154"><ele>44.0</ele><time>2026-04-15T15:53:01.999Z</time></trkpt><trkpt lat="50.906769374145625" lon="5.0910574178689005"><ele>43.0</ele><time>2026-04-15T15:53:02.999Z</time></trkpt><trkpt lat="50.90665269782799" lon="5.091347378860442"><ele>42.5</ele><time>2026-04-15T15:53:03.999Z</time></trkpt><trkpt lat="50.9065794441118" lon="5.09170967384152"><ele>42.0</ele><time>2026-04-15T15:53:04.999Z</time></trkpt><trkpt lat="50.90650956494025" lon="5.092087401833311"><ele>42.666666666666664</ele><time>2026-04-15T15:53:05.999Z</time></trkpt><trkpt lat="50.90644858010503" lon="5.092438552100384"><ele>43.33333333333333</ele><time>2026-04-15T15:53:06.999Z</time></trkpt><trkpt lat="50.906401575007024" lon="5.092739584593005"><ele>44.0</ele><time>2026-04-15T15:53:07.999Z</time></trkpt><trkpt lat="50.9063585071774" lon="5.093002600638329"><ele>44.0</ele><time>2026-04-15T15:53:08.999Z</time></trkpt><trkpt lat="50.9063220040448" lon="5.093208310088823"><ele>44.0</ele><time>2026-04-15T15:53:09.999Z</time></trkpt><trkpt lat="50.906267994650065" lon="5.093409266893408"><ele>44.0</ele><time>2026-04-15T15:53:10.999Z</time></trkpt><trkpt lat="50.9061729419725" lon="5.0935640878281845"><ele>44.0</ele><time>2026-04-15T15:53:11.999Z</time></trkpt><trkpt lat="50.90604318634543" lon="5.0936647045617365"><ele>44.666666666666664</ele><time>2026-04-15T15:53:12.999Z</time></trkpt><trkpt lat="50.90588796335859" lon="5.0937522428734185"><ele>45.333333333333336</ele><time>2026-04-15T15:53:13.999Z</time></trkpt><trkpt lat="50.905718706963654" lon="5.09385345803673"><ele>46.0</ele><time>2026-04-15T15:53:14.999Z</time></trkpt><trkpt lat="50.905552856626166" lon="5.093964823642898"><ele>46.0</ele><time>2026-04-15T15:53:15.999Z</time></trkpt><trkpt lat="50.90537796778825" lon="5.094070727156065"><ele>46.0</ele><time>2026-04-15T15:53:16.999Z</time></trkpt><trkpt lat="50.90519814819478" lon="5.094149620567152"><ele>46.0</ele><time>2026-04-15T15:53:17.999Z</time></trkpt><trkpt lat="50.90504338666036" lon="5.094237225226992"><ele>46.5</ele><time>2026-04-15T15:53:18.999Z</time></trkpt><trkpt lat="50.904906196250415" lon="5.0943173106762565"><ele>47.0</ele><time>2026-04-15T15:53:19.999Z</time></trkpt><trkpt lat="50.90477777456542" lon="5.094393565308175"><ele>47.5</ele><time>2026-04-15T15:53:20.999Z</time></trkpt><trkpt lat="50.9046720715448" lon="5.094484082166668"><ele>48.0</ele><time>2026-04-15T15:53:21.999Z</time></trkpt><trkpt lat="50.904567060388565" lon="5.09454694861194"><ele>48.0</ele><time>2026-04-15T15:53:22.999Z</time></trkpt><trkpt lat="50.90446639150541" lon="5.094609580574328"><ele>48.0</ele><time>2026-04-15T15:53:23.999Z</time></trkpt><trkpt lat="50.9043605097444" lon="5.094672582039676"><ele>48.0</ele><time>2026-04-15T15:53:24.999Z</time></trkpt><trkpt lat="50.904253483820575" lon="5.094749286440993"><ele>48.0</ele><time>2026-04-15T15:53:25.999Z</time></trkpt><trkpt lat="50.9041474632207" lon="5.094833154733497"><ele>48.166666666666664</ele><time>2026-04-15T15:53:26.999Z</time></trkpt><trkpt lat="50.90404693467787" lon="5.0949172001281395"><ele>48.33333333333333</ele><time>2026-04-15T15:53:27.999Z</time></trkpt><trkpt lat="50.90395411669389" lon="5.094988834455114"><ele>48.5</ele><time>2026-04-15T15:53:28.999Z</time></trkpt><trkpt lat="50.90387783313096" lon="5.095050920530762"><ele>48.666666666666664</ele><time>2026-04-15T15:53:29.999Z</time></trkpt><trkpt lat="50.9038128588718" lon="5.09510871020291"><ele>48.83333333333333</ele><time>2026-04-15T15:53:30.999Z</time></trkpt><trkpt lat="50.90375637017599" lon="5.095163790126065"><ele>49.0</ele><time>2026-04-15T15:53:31.999Z</time></trkpt><trkpt lat="50.90371078681583" lon="5.095236764239082"><ele>48.99999999999999</ele><time>2026-04-15T15:53:32.999Z</time></trkpt><trkpt lat="50.90369940542899" lon="5.095364450184783"><ele>49.0</ele><time>2026-04-15T15:53:33.999Z</time></trkpt><trkpt lat="50.90374722988378" lon="5.0954952710885815"><ele>49.0</ele><time>2026-04-15T15:53:34.998Z</time></trkpt><trkpt lat="50.90377322533439" lon="5.095611785443645"><ele>49.0</ele><time>2026-04-15T15:53:35.998Z</time></trkpt><trkpt lat="50.90381415900349" lon="5.0957588304347174"><ele>48.99999999999999</ele><time>2026-04-15T15:53:37.998Z</time></trkpt><trkpt lat="50.90375905536326" lon="5.095821388307592"><ele>49.0</ele><time>2026-04-15T15:53:38.998Z</time></trkpt><trkpt lat="50.9036809567229" lon="5.095874899760629"><ele>49.0</ele><time>2026-04-15T15:53:39.998Z</time></trkpt><trkpt lat="50.903606953692936" lon="5.095976704026743"><ele>49.0</ele><time>2026-04-15T15:53:40.998Z</time></trkpt><trkpt lat="50.90351969225681" lon="5.0960856730538735"><ele>49.0</ele><time>2026-04-15T15:53:41.998Z</time></trkpt><trkpt lat="50.90342470732355" lon="5.096179964144131"><ele>49.0</ele><time>2026-04-15T15:53:42.998Z</time></trkpt><trkpt lat="50.903346788518476" lon="5.0963028119361535"><ele>49.0</ele><time>2026-04-15T15:53:43.998Z</time></trkpt><trkpt lat="50.90326703669755" lon="5.096431678204869"><ele>49.2</ele><time>2026-04-15T15:53:44.998Z</time></trkpt><trkpt lat="50.90318825873954" lon="5.096545737618949"><ele>49.400000000000006</ele><time>2026-04-15T15:53:45.998Z</time></trkpt><trkpt lat="50.903099160456414" lon="5.09665050671249"><ele>49.6</ele><time>2026-04-15T15:53:46.998Z</time></trkpt><trkpt lat="50.903019564891316" lon="5.096740222011378"><ele>49.8</ele><time>2026-04-15T15:53:47.998Z</time></trkpt><trkpt lat="50.90293541381105" lon="5.096829020746824"><ele>50.0</ele><time>2026-04-15T15:53:48.998Z</time></trkpt><trkpt lat="50.9028490581566" lon="5.096896512884828"><ele>50.0</ele><time>2026-04-15T15:53:49.998Z</time></trkpt><trkpt lat="50.902749896394326" lon="5.096959041968585"><ele>50.0</ele><time>2026-04-15T15:53:50.998Z</time></trkpt><trkpt lat="50.902655460532614" lon="5.09701313121652"><ele>50.0</ele><time>2026-04-15T15:53:51.998Z</time></trkpt><trkpt lat="50.90257109197807" lon="5.097064536307926"><ele>50.0</ele><time>2026-04-15T15:53:52.998Z</time></trkpt><trkpt lat="50.90250046076759" lon="5.097107994928724"><ele>50.0</ele><time>2026-04-15T15:53:53.998Z</time></trkpt><trkpt lat="50.90240172000435" lon="5.097167251467162"><ele>50.0</ele><time>2026-04-15T15:53:55.998Z</time></trkpt><trkpt lat="50.90236064247253" lon="5.096854463902448"><ele>50.0</ele><time>2026-04-15T15:55:06.999Z</time></trkpt><trkpt lat="50.90230651404573" lon="5.0967372901016"><ele>50.0</ele><time>2026-04-15T15:55:08.999Z</time></trkpt><trkpt lat="50.90225881107713" lon="5.096624821682505"><ele>50.0</ele><time>2026-04-15T15:55:10.999Z</time></trkpt></trkseg></trk></gpx>